﻿<?xml version="1.0" encoding="utf-8"?><gpx creator="Garmin Desktop App" version="1.1" xsi:schemaLocation="http://www.topografix.com/GPX/1/1 http://www.topografix.com/GPX/1/1/gpx.xsd http://www.garmin.com/xmlschemas/WaypointExtension/v1 http://www8.garmin.com/xmlschemas/WaypointExtensionv1.xsd http://www.garmin.com/xmlschemas/TrackPointExtension/v1 http://www.garmin.com/xmlschemas/TrackPointExtensionv1.xsd http://www.garmin.com/xmlschemas/GpxExtensions/v3 http://www8.garmin.com/xmlschemas/GpxExtensionsv3.xsd http://www.garmin.com/xmlschemas/ActivityExtension/v1 http://www8.garmin.com/xmlschemas/ActivityExtensionv1.xsd http://www.garmin.com/xmlschemas/AdventuresExtensions/v1 http://www8.garmin.com/xmlschemas/AdventuresExtensionv1.xsd http://www.garmin.com/xmlschemas/PressureExtension/v1 http://www.garmin.com/xmlschemas/PressureExtensionv1.xsd http://www.garmin.com/xmlschemas/TripExtensions/v1 http://www.garmin.com/xmlschemas/TripExtensionsv1.xsd http://www.garmin.com/xmlschemas/TripMetaDataExtensions/v1 http://www.garmin.com/xmlschemas/TripMetaDataExtensionsv1.xsd http://www.garmin.com/xmlschemas/ViaPointTransportationModeExtensions/v1 http://www.garmin.com/xmlschemas/ViaPointTransportationModeExtensionsv1.xsd http://www.garmin.com/xmlschemas/CreationTimeExtensions/v1 http://www.garmin.com/xmlschemas/CreationTimeExtensionsv1.xsd" xmlns="http://www.topografix.com/GPX/1/1" xmlns:xsi="http://www.w3.org/2001/XMLSchema-instance" xmlns:wptx1="http://www.garmin.com/xmlschemas/WaypointExtension/v1" xmlns:gpxtrx="http://www.garmin.com/xmlschemas/GpxExtensions/v3" xmlns:gpxtpx="http://www.garmin.com/xmlschemas/TrackPointExtension/v1" xmlns:gpxx="http://www.garmin.com/xmlschemas/GpxExtensions/v3" xmlns:trp="http://www.garmin.com/xmlschemas/TripExtensions/v1" xmlns:adv="http://www.garmin.com/xmlschemas/AdventuresExtensions/v1" xmlns:prs="http://www.garmin.com/xmlschemas/PressureExtension/v1" xmlns:tmd="http://www.garmin.com/xmlschemas/TripMetaDataExtensions/v1" xmlns:vptm="http://www.garmin.com/xmlschemas/ViaPointTransportationModeExtensions/v1" xmlns:ctx="http://www.garmin.com/xmlschemas/CreationTimeExtension/v1">

  <metadata>
    <link href="http://www.garmin.com">
      <text>Garmin International</text>
    </link>
    <time>2014-06-03T07:22:17Z</time>
    <bounds maxlat="46.133979968726635" maxlon="8.194306790828705" minlat="46.123847002163529" minlon="8.146010767668486" />
  </metadata>

  <trk>
    <name>alpe-laghetto2014-06-02</name>
    <extensions>
      <gpxx:TrackExtension>
        <gpxx:DisplayColor>Yellow</gpxx:DisplayColor>
      </gpxx:TrackExtension>
      <gpxtrkx:TrackStatsExtension xmlns:gpxtrkx="http://www.garmin.com/xmlschemas/TrackStatsExtension/v1">
        <gpxtrkx:Distance>14740</gpxtrkx:Distance>
        <gpxtrkx:TotalElapsedTime>22037</gpxtrkx:TotalElapsedTime>
        <gpxtrkx:MovingTime>15859</gpxtrkx:MovingTime>
        <gpxtrkx:StoppedTime>6168</gpxtrkx:StoppedTime>
        <gpxtrkx:MovingSpeed>1</gpxtrkx:MovingSpeed>
        <gpxtrkx:MaxSpeed>4</gpxtrkx:MaxSpeed>
        <gpxtrkx:MaxElevation>2057</gpxtrkx:MaxElevation>
        <gpxtrkx:MinElevation>1255</gpxtrkx:MinElevation>
        <gpxtrkx:Ascent>914</gpxtrkx:Ascent>
        <gpxtrkx:Descent>924</gpxtrkx:Descent>
        <gpxtrkx:AvgAscentRate>0</gpxtrkx:AvgAscentRate>
        <gpxtrkx:MaxAscentRate>0</gpxtrkx:MaxAscentRate>
        <gpxtrkx:AvgDescentRate>0</gpxtrkx:AvgDescentRate>
        <gpxtrkx:MaxDescentRate>-1</gpxtrkx:MaxDescentRate>
      </gpxtrkx:TrackStatsExtension>
    </extensions>
    <trkseg>
      <trkpt lat="46.133932610973716" lon="8.19343482144177">
        <ele>1267.6400000000001</ele>
        <time>2014-06-02T07:05:29Z</time>
      </trkpt>
      <trkpt lat="46.133930515497923" lon="8.19342895410955">
        <ele>1267.6400000000001</ele>
        <time>2014-06-02T07:05:30Z</time>
      </trkpt>
      <trkpt lat="46.133964965119958" lon="8.193507827818394">
        <ele>1268.1199999999999</ele>
        <time>2014-06-02T07:05:49Z</time>
      </trkpt>
      <trkpt lat="46.133979968726635" lon="8.193661719560623">
        <ele>1267.6400000000001</ele>
        <time>2014-06-02T07:06:03Z</time>
      </trkpt>
      <trkpt lat="46.133961444720626" lon="8.193780658766627">
        <ele>1267.1600000000001</ele>
        <time>2014-06-02T07:06:14Z</time>
      </trkpt>
      <trkpt lat="46.133887181058526" lon="8.193874871358275">
        <ele>1265.71</ele>
        <time>2014-06-02T07:06:26Z</time>
      </trkpt>
      <trkpt lat="46.13379992544651" lon="8.193970676511526">
        <ele>1265.23</ele>
        <time>2014-06-02T07:06:39Z</time>
      </trkpt>
      <trkpt lat="46.133737899363041" lon="8.194153150543571">
        <ele>1263.3099999999999</ele>
        <time>2014-06-02T07:06:54Z</time>
      </trkpt>
      <trkpt lat="46.133678974583745" lon="8.194306790828705">
        <ele>1261.8699999999999</ele>
        <time>2014-06-02T07:07:10Z</time>
      </trkpt>
      <trkpt lat="46.13354092463851" lon="8.194200256839395">
        <ele>1261.3900000000001</ele>
        <time>2014-06-02T07:07:25Z</time>
      </trkpt>
      <trkpt lat="46.133458698168397" lon="8.194123143330216">
        <ele>1261.3900000000001</ele>
        <time>2014-06-02T07:07:34Z</time>
      </trkpt>
      <trkpt lat="46.133449142798781" lon="8.194110989570618">
        <ele>1260.9100000000001</ele>
        <time>2014-06-02T07:07:35Z</time>
      </trkpt>
      <trkpt lat="46.133289383724332" lon="8.193979812785983">
        <ele>1260.4300000000001</ele>
        <time>2014-06-02T07:07:52Z</time>
      </trkpt>
      <trkpt lat="46.133133647963405" lon="8.19393471814692">
        <ele>1259.46</ele>
        <time>2014-06-02T07:08:09Z</time>
      </trkpt>
      <trkpt lat="46.133049493655562" lon="8.193956511095166">
        <ele>1258.98</ele>
        <time>2014-06-02T07:08:17Z</time>
      </trkpt>
      <trkpt lat="46.133038597181439" lon="8.193961372599006">
        <ele>1258.98</ele>
        <time>2014-06-02T07:08:18Z</time>
      </trkpt>
      <trkpt lat="46.132996771484613" lon="8.193987272679806">
        <ele>1258.5</ele>
        <time>2014-06-02T07:08:22Z</time>
      </trkpt>
      <trkpt lat="46.132987048476934" lon="8.193994564935565">
        <ele>1258.5</ele>
        <time>2014-06-02T07:08:23Z</time>
      </trkpt>
      <trkpt lat="46.132865762338042" lon="8.194045526906848">
        <ele>1257.54</ele>
        <time>2014-06-02T07:08:36Z</time>
      </trkpt>
      <trkpt lat="46.132768783718348" lon="8.194112749770284">
        <ele>1258.5</ele>
        <time>2014-06-02T07:08:48Z</time>
      </trkpt>
      <trkpt lat="46.132650682702661" lon="8.19416438229382">
        <ele>1257.54</ele>
        <time>2014-06-02T07:09:00Z</time>
      </trkpt>
      <trkpt lat="46.132508106529713" lon="8.194204866886139">
        <ele>1255.1400000000001</ele>
        <time>2014-06-02T07:09:15Z</time>
      </trkpt>
      <trkpt lat="46.132404841482639" lon="8.194216098636389">
        <ele>1254.6600000000001</ele>
        <time>2014-06-02T07:09:25Z</time>
      </trkpt>
      <trkpt lat="46.132344407960773" lon="8.194133201614022">
        <ele>1256.0999999999999</ele>
        <time>2014-06-02T07:09:40Z</time>
      </trkpt>
      <trkpt lat="46.132337870076299" lon="8.194142421707511">
        <ele>1257.0599999999999</ele>
        <time>2014-06-02T07:10:02Z</time>
      </trkpt>
      <trkpt lat="46.132341558113694" lon="8.194038653746247">
        <ele>1256.5799999999999</ele>
        <time>2014-06-02T07:10:18Z</time>
      </trkpt>
      <trkpt lat="46.13230568356812" lon="8.193976627662778">
        <ele>1257.54</ele>
        <time>2014-06-02T07:10:25Z</time>
      </trkpt>
      <trkpt lat="46.132273832336068" lon="8.193970341235399">
        <ele>1257.54</ele>
        <time>2014-06-02T07:10:28Z</time>
      </trkpt>
      <trkpt lat="46.132153887301683" lon="8.193989871069789">
        <ele>1260.4300000000001</ele>
        <time>2014-06-02T07:10:43Z</time>
      </trkpt>
      <trkpt lat="46.132061099633574" lon="8.193961707875133">
        <ele>1261.8699999999999</ele>
        <time>2014-06-02T07:10:55Z</time>
      </trkpt>
      <trkpt lat="46.131948195397854" lon="8.193947458639741">
        <ele>1262.8299999999999</ele>
        <time>2014-06-02T07:11:07Z</time>
      </trkpt>
      <trkpt lat="46.131875524297357" lon="8.193933377042413">
        <ele>1263.79</ele>
        <time>2014-06-02T07:11:22Z</time>
      </trkpt>
      <trkpt lat="46.131866723299026" lon="8.193937735632062">
        <ele>1263.79</ele>
        <time>2014-06-02T07:11:23Z</time>
      </trkpt>
      <trkpt lat="46.131856329739094" lon="8.193943602964282">
        <ele>1263.79</ele>
        <time>2014-06-02T07:11:24Z</time>
      </trkpt>
      <trkpt lat="46.131726745516062" lon="8.194039324298501">
        <ele>1263.79</ele>
        <time>2014-06-02T07:11:39Z</time>
      </trkpt>
      <trkpt lat="46.131672933697701" lon="8.194054579362273">
        <ele>1262.8299999999999</ele>
        <time>2014-06-02T07:11:45Z</time>
      </trkpt>
      <trkpt lat="46.131662456318736" lon="8.194052232429385">
        <ele>1262.3499999999999</ele>
        <time>2014-06-02T07:11:46Z</time>
      </trkpt>
      <trkpt lat="46.13165239803493" lon="8.194046448916197">
        <ele>1262.3499999999999</ele>
        <time>2014-06-02T07:11:47Z</time>
      </trkpt>
      <trkpt lat="46.131635215133429" lon="8.193989116698504">
        <ele>1261.3900000000001</ele>
        <time>2014-06-02T07:11:51Z</time>
      </trkpt>
      <trkpt lat="46.131623983383179" lon="8.193909404799342">
        <ele>1260.9100000000001</ele>
        <time>2014-06-02T07:11:56Z</time>
      </trkpt>
      <trkpt lat="46.131623480468988" lon="8.193865483626723">
        <ele>1260.9100000000001</ele>
        <time>2014-06-02T07:11:59Z</time>
      </trkpt>
      <trkpt lat="46.131599759683013" lon="8.193724835291505">
        <ele>1260.9100000000001</ele>
        <time>2014-06-02T07:12:09Z</time>
      </trkpt>
      <trkpt lat="46.131582912057638" lon="8.19366448558867">
        <ele>1261.3900000000001</ele>
        <time>2014-06-02T07:12:17Z</time>
      </trkpt>
      <trkpt lat="46.131543600931764" lon="8.193488465622068">
        <ele>1261.8699999999999</ele>
        <time>2014-06-02T07:12:31Z</time>
      </trkpt>
      <trkpt lat="46.131500517949462" lon="8.193343626335263">
        <ele>1262.3499999999999</ele>
        <time>2014-06-02T07:12:45Z</time>
      </trkpt>
      <trkpt lat="46.131485095247626" lon="8.19330339320004">
        <ele>1262.3499999999999</ele>
        <time>2014-06-02T07:12:48Z</time>
      </trkpt>
      <trkpt lat="46.131333131343126" lon="8.1931690312922">
        <ele>1261.3900000000001</ele>
        <time>2014-06-02T07:13:02Z</time>
      </trkpt>
      <trkpt lat="46.131131211295724" lon="8.193044392392039">
        <ele>1258.5</ele>
        <time>2014-06-02T07:13:18Z</time>
      </trkpt>
      <trkpt lat="46.13104110583663" lon="8.192853284999728">
        <ele>1260.4300000000001</ele>
        <time>2014-06-02T07:13:33Z</time>
      </trkpt>
      <trkpt lat="46.13095753826201" lon="8.192697213962674">
        <ele>1261.8699999999999</ele>
        <time>2014-06-02T07:13:49Z</time>
      </trkpt>
      <trkpt lat="46.130960304290056" lon="8.192538544535637">
        <ele>1263.79</ele>
        <time>2014-06-02T07:14:03Z</time>
      </trkpt>
      <trkpt lat="46.130908420309424" lon="8.192490264773369">
        <ele>1264.75</ele>
        <time>2014-06-02T07:14:18Z</time>
      </trkpt>
      <trkpt lat="46.130925351753831" lon="8.192412815988064">
        <ele>1266.1900000000001</ele>
        <time>2014-06-02T07:14:30Z</time>
      </trkpt>
      <trkpt lat="46.131035992875695" lon="8.19245271384716">
        <ele>1268.1199999999999</ele>
        <time>2014-06-02T07:14:45Z</time>
      </trkpt>
      <trkpt lat="46.13104353658855" lon="8.192414660006762">
        <ele>1269.5599999999999</ele>
        <time>2014-06-02T07:15:02Z</time>
      </trkpt>
      <trkpt lat="46.131032975390553" lon="8.192442571744323">
        <ele>1269.5599999999999</ele>
        <time>2014-06-02T07:15:18Z</time>
      </trkpt>
      <trkpt lat="46.130986791104078" lon="8.192349784076214">
        <ele>1270.52</ele>
        <time>2014-06-02T07:15:30Z</time>
      </trkpt>
      <trkpt lat="46.130954688414931" lon="8.192228246480227">
        <ele>1273.8800000000001</ele>
        <time>2014-06-02T07:15:48Z</time>
      </trkpt>
      <trkpt lat="46.130916634574533" lon="8.19211408495903">
        <ele>1277.25</ele>
        <time>2014-06-02T07:16:05Z</time>
      </trkpt>
      <trkpt lat="46.130850249901414" lon="8.192050131037831">
        <ele>1278.21</ele>
        <time>2014-06-02T07:16:18Z</time>
      </trkpt>
      <trkpt lat="46.13079484552145" lon="8.191973268985748">
        <ele>1279.1700000000001</ele>
        <time>2014-06-02T07:16:26Z</time>
      </trkpt>
      <trkpt lat="46.130725527182221" lon="8.19188492372632">
        <ele>1279.6500000000001</ele>
        <time>2014-06-02T07:16:38Z</time>
      </trkpt>
      <trkpt lat="46.130619999021292" lon="8.191821556538343">
        <ele>1282.0599999999999</ele>
        <time>2014-06-02T07:16:55Z</time>
      </trkpt>
      <trkpt lat="46.130611533299088" lon="8.191802697256208">
        <ele>1282.0599999999999</ele>
        <time>2014-06-02T07:16:57Z</time>
      </trkpt>
      <trkpt lat="46.130516231060028" lon="8.191655091941357">
        <ele>1283.02</ele>
        <time>2014-06-02T07:17:12Z</time>
      </trkpt>
      <trkpt lat="46.130491672083735" lon="8.191579403355718">
        <ele>1283.5</ele>
        <time>2014-06-02T07:17:21Z</time>
      </trkpt>
      <trkpt lat="46.130489408969879" lon="8.19156046025455">
        <ele>1283.5</ele>
        <time>2014-06-02T07:17:22Z</time>
      </trkpt>
      <trkpt lat="46.130448337644339" lon="8.191356612369418">
        <ele>1283.5</ele>
        <time>2014-06-02T07:17:36Z</time>
      </trkpt>
      <trkpt lat="46.130358399823308" lon="8.191257202997804">
        <ele>1283.98</ele>
        <time>2014-06-02T07:17:49Z</time>
      </trkpt>
      <trkpt lat="46.130269384011626" lon="8.191160140559077">
        <ele>1285.9000000000001</ele>
        <time>2014-06-02T07:18:04Z</time>
      </trkpt>
      <trkpt lat="46.130187073722482" lon="8.191044554114342">
        <ele>1287.3399999999999</ele>
        <time>2014-06-02T07:18:20Z</time>
      </trkpt>
      <trkpt lat="46.130128065124154" lon="8.190913209691644">
        <ele>1287.8199999999999</ele>
        <time>2014-06-02T07:18:33Z</time>
      </trkpt>
      <trkpt lat="46.130051035434008" lon="8.190786307677627">
        <ele>1287.8199999999999</ele>
        <time>2014-06-02T07:18:47Z</time>
      </trkpt>
      <trkpt lat="46.129913907498121" lon="8.190694022923708">
        <ele>1288.78</ele>
        <time>2014-06-02T07:19:03Z</time>
      </trkpt>
      <trkpt lat="46.12979463301599" lon="8.190602408722043">
        <ele>1289.75</ele>
        <time>2014-06-02T07:19:19Z</time>
      </trkpt>
      <trkpt lat="46.129705030471087" lon="8.190433932468295">
        <ele>1291.6700000000001</ele>
        <time>2014-06-02T07:19:35Z</time>
      </trkpt>
      <trkpt lat="46.129640573635697" lon="8.190331002697349">
        <ele>1293.1099999999999</ele>
        <time>2014-06-02T07:19:50Z</time>
      </trkpt>
      <trkpt lat="46.129601178690791" lon="8.190274508669972">
        <ele>1292.6300000000001</ele>
        <time>2014-06-02T07:20:04Z</time>
      </trkpt>
      <trkpt lat="46.129595395177603" lon="8.19005599245429">
        <ele>1292.6300000000001</ele>
        <time>2014-06-02T07:20:19Z</time>
      </trkpt>
      <trkpt lat="46.129579721018672" lon="8.18988542072475">
        <ele>1292.6300000000001</ele>
        <time>2014-06-02T07:20:32Z</time>
      </trkpt>
      <trkpt lat="46.1295903660357" lon="8.189726918935776">
        <ele>1292.1500000000001</ele>
        <time>2014-06-02T07:20:43Z</time>
      </trkpt>
      <trkpt lat="46.129593970254064" lon="8.189485603943467">
        <ele>1292.6300000000001</ele>
        <time>2014-06-02T07:20:57Z</time>
      </trkpt>
      <trkpt lat="46.12959916703403" lon="8.189333472400904">
        <ele>1294.55</ele>
        <time>2014-06-02T07:21:11Z</time>
      </trkpt>
      <trkpt lat="46.129600508138537" lon="8.189148232340813">
        <ele>1296.48</ele>
        <time>2014-06-02T07:21:28Z</time>
      </trkpt>
      <trkpt lat="46.12964459694922" lon="8.189036082476378">
        <ele>1299.3599999999999</ele>
        <time>2014-06-02T07:21:44Z</time>
      </trkpt>
      <trkpt lat="46.129678878933191" lon="8.188922423869371">
        <ele>1302.24</ele>
        <time>2014-06-02T07:21:59Z</time>
      </trkpt>
      <trkpt lat="46.129733612760901" lon="8.188782529905438">
        <ele>1303.6900000000001</ele>
        <time>2014-06-02T07:22:14Z</time>
      </trkpt>
      <trkpt lat="46.129741575568914" lon="8.188771298155189">
        <ele>1303.6900000000001</ele>
        <time>2014-06-02T07:22:15Z</time>
      </trkpt>
      <trkpt lat="46.129852887243032" lon="8.188754450529814">
        <ele>1303.2</ele>
        <time>2014-06-02T07:22:28Z</time>
      </trkpt>
      <trkpt lat="46.129989679902792" lon="8.188644731417298">
        <ele>1304.1700000000001</ele>
        <time>2014-06-02T07:22:45Z</time>
      </trkpt>
      <trkpt lat="46.130087580531836" lon="8.188475500792265">
        <ele>1305.1300000000001</ele>
        <time>2014-06-02T07:23:03Z</time>
      </trkpt>
      <trkpt lat="46.130182631313801" lon="8.188373744487763">
        <ele>1307.05</ele>
        <time>2014-06-02T07:23:19Z</time>
      </trkpt>
      <trkpt lat="46.130214398726821" lon="8.188218427821994">
        <ele>1308.97</ele>
        <time>2014-06-02T07:23:33Z</time>
      </trkpt>
      <trkpt lat="46.1301982216537" lon="8.188068978488445">
        <ele>1310.9000000000001</ele>
        <time>2014-06-02T07:23:48Z</time>
      </trkpt>
      <trkpt lat="46.130259074270725" lon="8.187943836674094">
        <ele>1311.8599999999999</ele>
        <time>2014-06-02T07:24:04Z</time>
      </trkpt>
      <trkpt lat="46.130262343212962" lon="8.187831770628691">
        <ele>1312.3399999999999</ele>
        <time>2014-06-02T07:24:21Z</time>
      </trkpt>
      <trkpt lat="46.130269384011626" lon="8.187784412875772">
        <ele>1312.8199999999999</ele>
        <time>2014-06-02T07:24:23Z</time>
      </trkpt>
      <trkpt lat="46.130324704572558" lon="8.187580481171608">
        <ele>1313.78</ele>
        <time>2014-06-02T07:24:36Z</time>
      </trkpt>
      <trkpt lat="46.130331913009286" lon="8.187537482008338">
        <ele>1315.7</ele>
        <time>2014-06-02T07:24:40Z</time>
      </trkpt>
      <trkpt lat="46.130399219691753" lon="8.18744570016861">
        <ele>1317.1400000000001</ele>
        <time>2014-06-02T07:24:53Z</time>
      </trkpt>
      <trkpt lat="46.130408775061369" lon="8.187433211132884">
        <ele>1317.1400000000001</ele>
        <time>2014-06-02T07:24:55Z</time>
      </trkpt>
      <trkpt lat="46.130440877750516" lon="8.187393480911851">
        <ele>1318.5899999999999</ele>
        <time>2014-06-02T07:25:04Z</time>
      </trkpt>
      <trkpt lat="46.130428556352854" lon="8.187261046841741">
        <ele>1320.99</ele>
        <time>2014-06-02T07:25:20Z</time>
      </trkpt>
      <trkpt lat="46.130405338481069" lon="8.187218382954598">
        <ele>1321.95</ele>
        <time>2014-06-02T07:25:24Z</time>
      </trkpt>
      <trkpt lat="46.130377678200603" lon="8.187075555324554">
        <ele>1323.3900000000001</ele>
        <time>2014-06-02T07:25:37Z</time>
      </trkpt>
      <trkpt lat="46.130363345146179" lon="8.187007829546928">
        <ele>1323.8699999999999</ele>
        <time>2014-06-02T07:25:45Z</time>
      </trkpt>
      <trkpt lat="46.130297128111124" lon="8.186898110434413">
        <ele>1325.3099999999999</ele>
        <time>2014-06-02T07:26:00Z</time>
      </trkpt>
      <trkpt lat="46.130248177796602" lon="8.186709182336927">
        <ele>1326.28</ele>
        <time>2014-06-02T07:26:15Z</time>
      </trkpt>
      <trkpt lat="46.130316993221641" lon="8.186541376635432">
        <ele>1328.2</ele>
        <time>2014-06-02T07:26:31Z</time>
      </trkpt>
      <trkpt lat="46.130359405651689" lon="8.186449678614736">
        <ele>1329.6400000000001</ele>
        <time>2014-06-02T07:26:42Z</time>
      </trkpt>
      <trkpt lat="46.130401147529483" lon="8.186351610347629">
        <ele>1331.0799999999999</ele>
        <time>2014-06-02T07:26:54Z</time>
      </trkpt>
      <trkpt lat="46.13047918304801" lon="8.186185648664832">
        <ele>1333.01</ele>
        <time>2014-06-02T07:27:10Z</time>
      </trkpt>
      <trkpt lat="46.130486391484737" lon="8.186025470495224">
        <ele>1335.8900000000001</ele>
        <time>2014-06-02T07:27:27Z</time>
      </trkpt>
      <trkpt lat="46.130523439496756" lon="8.185983309522271">
        <ele>1338.29</ele>
        <time>2014-06-02T07:27:42Z</time>
      </trkpt>
      <trkpt lat="46.13058571703732" lon="8.185907285660505">
        <ele>1339.73</ele>
        <time>2014-06-02T07:27:55Z</time>
      </trkpt>
      <trkpt lat="46.130655203014612" lon="8.185716094449163">
        <ele>1342.1400000000001</ele>
        <time>2014-06-02T07:28:10Z</time>
      </trkpt>
      <trkpt lat="46.130671883001924" lon="8.185557592660189">
        <ele>1343.0999999999999</ele>
        <time>2014-06-02T07:28:25Z</time>
      </trkpt>
      <trkpt lat="46.130684707313776" lon="8.185466900467873">
        <ele>1346.46</ele>
        <time>2014-06-02T07:28:41Z</time>
      </trkpt>
      <trkpt lat="46.130758551880717" lon="8.185290126129985">
        <ele>1347.4300000000001</ele>
        <time>2014-06-02T07:28:58Z</time>
      </trkpt>
      <trkpt lat="46.130809430032969" lon="8.185128606855869">
        <ele>1348.8699999999999</ele>
        <time>2014-06-02T07:29:12Z</time>
      </trkpt>
      <trkpt lat="46.130923423916101" lon="8.185054259374738">
        <ele>1350.3099999999999</ele>
        <time>2014-06-02T07:29:27Z</time>
      </trkpt>
      <trkpt lat="46.130962567403913" lon="8.184969099238515">
        <ele>1349.3499999999999</ele>
        <time>2014-06-02T07:29:42Z</time>
      </trkpt>
      <trkpt lat="46.130902469158173" lon="8.184872539713979">
        <ele>1349.8299999999999</ele>
        <time>2014-06-02T07:29:56Z</time>
      </trkpt>
      <trkpt lat="46.130895847454667" lon="8.184855440631509">
        <ele>1349.8299999999999</ele>
        <time>2014-06-02T07:29:58Z</time>
      </trkpt>
      <trkpt lat="46.130820410326123" lon="8.18477681837976">
        <ele>1351.75</ele>
        <time>2014-06-02T07:30:13Z</time>
      </trkpt>
      <trkpt lat="46.130798365920782" lon="8.184671625494957">
        <ele>1353.6700000000001</ele>
        <time>2014-06-02T07:30:26Z</time>
      </trkpt>
      <trkpt lat="46.130798617377877" lon="8.18457355722785">
        <ele>1356.0799999999999</ele>
        <time>2014-06-02T07:30:38Z</time>
      </trkpt>
      <trkpt lat="46.130775064229965" lon="8.184530809521675">
        <ele>1358</ele>
        <time>2014-06-02T07:30:50Z</time>
      </trkpt>
      <trkpt lat="46.130746649578214" lon="8.18454128690064">
        <ele>1359.4400000000001</ele>
        <time>2014-06-02T07:31:01Z</time>
      </trkpt>
      <trkpt lat="46.130682108923793" lon="8.184537515044212">
        <ele>1361.8399999999999</ele>
        <time>2014-06-02T07:31:14Z</time>
      </trkpt>
      <trkpt lat="46.130658471956849" lon="8.184511363506317">
        <ele>1362.3299999999999</ele>
        <time>2014-06-02T07:31:18Z</time>
      </trkpt>
      <trkpt lat="46.130613461136818" lon="8.184428969398141">
        <ele>1364.25</ele>
        <time>2014-06-02T07:31:29Z</time>
      </trkpt>
      <trkpt lat="46.130600720643997" lon="8.184405583888292">
        <ele>1364.25</ele>
        <time>2014-06-02T07:31:41Z</time>
      </trkpt>
      <trkpt lat="46.130578089505434" lon="8.184390077367425">
        <ele>1364.25</ele>
        <time>2014-06-02T07:31:44Z</time>
      </trkpt>
      <trkpt lat="46.130481362342834" lon="8.184371888637543">
        <ele>1364.73</ele>
        <time>2014-06-02T07:31:55Z</time>
      </trkpt>
      <trkpt lat="46.130382874980569" lon="8.184363339096308">
        <ele>1367.6099999999999</ele>
        <time>2014-06-02T07:32:09Z</time>
      </trkpt>
      <trkpt lat="46.130300564691424" lon="8.184380354359746">
        <ele>1369.05</ele>
        <time>2014-06-02T07:32:22Z</time>
      </trkpt>
      <trkpt lat="46.130284890532494" lon="8.184330146759749">
        <ele>1371.9400000000001</ele>
        <time>2014-06-02T07:32:36Z</time>
      </trkpt>
      <trkpt lat="46.130373319610953" lon="8.184242974966765">
        <ele>1374.3399999999999</ele>
        <time>2014-06-02T07:32:53Z</time>
      </trkpt>
      <trkpt lat="46.130375666543841" lon="8.184199556708336">
        <ele>1376.26</ele>
        <time>2014-06-02T07:33:08Z</time>
      </trkpt>
      <trkpt lat="46.130310874432325" lon="8.184192264452577">
        <ele>1378.1900000000001</ele>
        <time>2014-06-02T07:33:24Z</time>
      </trkpt>
      <trkpt lat="46.130253542214632" lon="8.184191677719355">
        <ele>1381.0699999999999</ele>
        <time>2014-06-02T07:33:39Z</time>
      </trkpt>
      <trkpt lat="46.130308108404279" lon="8.184097297489643">
        <ele>1382.51</ele>
        <time>2014-06-02T07:33:52Z</time>
      </trkpt>
      <trkpt lat="46.130364267155528" lon="8.184010712429881">
        <ele>1385.8800000000001</ele>
        <time>2014-06-02T07:34:10Z</time>
      </trkpt>
      <trkpt lat="46.130349515005946" lon="8.183988584205508">
        <ele>1388.28</ele>
        <time>2014-06-02T07:34:26Z</time>
      </trkpt>
      <trkpt lat="46.130315316841006" lon="8.183941645547748">
        <ele>1391.1700000000001</ele>
        <time>2014-06-02T07:34:44Z</time>
      </trkpt>
      <trkpt lat="46.130382874980569" lon="8.183869728818536">
        <ele>1393.0899999999999</ele>
        <time>2014-06-02T07:35:02Z</time>
      </trkpt>
      <trkpt lat="46.130351945757866" lon="8.183876937255263">
        <ele>1395.49</ele>
        <time>2014-06-02T07:35:16Z</time>
      </trkpt>
      <trkpt lat="46.130288662388921" lon="8.183879116550088">
        <ele>1397.4100000000001</ele>
        <time>2014-06-02T07:35:29Z</time>
      </trkpt>
      <trkpt lat="46.130256308242679" lon="8.183784065768123">
        <ele>1399.8199999999999</ele>
        <time>2014-06-02T07:35:43Z</time>
      </trkpt>
      <trkpt lat="46.130323698744178" lon="8.183751879259944">
        <ele>1401.74</ele>
        <time>2014-06-02T07:35:57Z</time>
      </trkpt>
      <trkpt lat="46.130373068153858" lon="8.183724721893668">
        <ele>1405.5799999999999</ele>
        <time>2014-06-02T07:36:14Z</time>
      </trkpt>
      <trkpt lat="46.130379773676395" lon="8.18368767388165">
        <ele>1406.55</ele>
        <time>2014-06-02T07:36:28Z</time>
      </trkpt>
      <trkpt lat="46.130278520286083" lon="8.183724889531732">
        <ele>1408.95</ele>
        <time>2014-06-02T07:36:44Z</time>
      </trkpt>
      <trkpt lat="46.130323614925146" lon="8.183637047186494">
        <ele>1410.8699999999999</ele>
        <time>2014-06-02T07:36:57Z</time>
      </trkpt>
      <trkpt lat="46.130373822525144" lon="8.183569069951773">
        <ele>1413.76</ele>
        <time>2014-06-02T07:37:16Z</time>
      </trkpt>
      <trkpt lat="46.130298301577568" lon="8.183583319187164">
        <ele>1416.1600000000001</ele>
        <time>2014-06-02T07:37:30Z</time>
      </trkpt>
      <trkpt lat="46.130248345434666" lon="8.183445353060961">
        <ele>1418.0799999999999</ele>
        <time>2014-06-02T07:37:46Z</time>
      </trkpt>
      <trkpt lat="46.13021825440228" lon="8.183381482958794">
        <ele>1420.49</ele>
        <time>2014-06-02T07:38:00Z</time>
      </trkpt>
      <trkpt lat="46.130199311301112" lon="8.183287689462304">
        <ele>1423.8499999999999</ele>
        <time>2014-06-02T07:38:15Z</time>
      </trkpt>
      <trkpt lat="46.130315233021975" lon="8.183289114385843">
        <ele>1425.77</ele>
        <time>2014-06-02T07:38:33Z</time>
      </trkpt>
      <trkpt lat="46.130396286025643" lon="8.183295987546444">
        <ele>1428.6600000000001</ele>
        <time>2014-06-02T07:38:54Z</time>
      </trkpt>
      <trkpt lat="46.130442637950182" lon="8.183244103565812">
        <ele>1431.54</ele>
        <time>2014-06-02T07:39:13Z</time>
      </trkpt>
      <trkpt lat="46.130358902737498" lon="8.18324351683259">
        <ele>1433.9400000000001</ele>
        <time>2014-06-02T07:39:26Z</time>
      </trkpt>
      <trkpt lat="46.130319675430655" lon="8.183167157694697">
        <ele>1435.8699999999999</ele>
        <time>2014-06-02T07:39:40Z</time>
      </trkpt>
      <trkpt lat="46.130271814763546" lon="8.183050146326423">
        <ele>1438.75</ele>
        <time>2014-06-02T07:39:57Z</time>
      </trkpt>
      <trkpt lat="46.130363764241338" lon="8.183062886819243">
        <ele>1440.6700000000001</ele>
        <time>2014-06-02T07:40:13Z</time>
      </trkpt>
      <trkpt lat="46.130452612414956" lon="8.183011002838612">
        <ele>1443.5599999999999</ele>
        <time>2014-06-02T07:40:32Z</time>
      </trkpt>
      <trkpt lat="46.130503406748176" lon="8.182959454134107">
        <ele>1446.9200000000001</ele>
        <time>2014-06-02T07:40:45Z</time>
      </trkpt>
      <trkpt lat="46.130486810579896" lon="8.18295325152576">
        <ele>1449.8099999999999</ele>
        <time>2014-06-02T07:41:02Z</time>
      </trkpt>
      <trkpt lat="46.130406847223639" lon="8.182937409728766">
        <ele>1453.1700000000001</ele>
        <time>2014-06-02T07:41:19Z</time>
      </trkpt>
      <trkpt lat="46.130334343761206" lon="8.182863900437951">
        <ele>1455.5699999999999</ele>
        <time>2014-06-02T07:41:37Z</time>
      </trkpt>
      <trkpt lat="46.130266701802611" lon="8.182674301788211">
        <ele>1457.5</ele>
        <time>2014-06-02T07:41:52Z</time>
      </trkpt>
      <trkpt lat="46.130221942439675" lon="8.182595344260335">
        <ele>1458.46</ele>
        <time>2014-06-02T07:42:07Z</time>
      </trkpt>
      <trkpt lat="46.130159664899111" lon="8.182571120560169">
        <ele>1460.3800000000001</ele>
        <time>2014-06-02T07:42:24Z</time>
      </trkpt>
      <trkpt lat="46.130103254690766" lon="8.182542119175196">
        <ele>1462.78</ele>
        <time>2014-06-02T07:42:39Z</time>
      </trkpt>
      <trkpt lat="46.130032930523157" lon="8.182520577684045">
        <ele>1465.6700000000001</ele>
        <time>2014-06-02T07:42:55Z</time>
      </trkpt>
      <trkpt lat="46.129964869469404" lon="8.18249786272645">
        <ele>1467.5899999999999</ele>
        <time>2014-06-02T07:43:09Z</time>
      </trkpt>
      <trkpt lat="46.129874177277088" lon="8.182507501915097">
        <ele>1469.51</ele>
        <time>2014-06-02T07:43:26Z</time>
      </trkpt>
      <trkpt lat="46.129897814244032" lon="8.182416390627623">
        <ele>1472.4000000000001</ele>
        <time>2014-06-02T07:43:43Z</time>
      </trkpt>
      <trkpt lat="46.12993385642767" lon="8.182306755334139">
        <ele>1475.28</ele>
        <time>2014-06-02T07:44:00Z</time>
      </trkpt>
      <trkpt lat="46.130022117868066" lon="8.182221846655011">
        <ele>1478.1600000000001</ele>
        <time>2014-06-02T07:44:16Z</time>
      </trkpt>
      <trkpt lat="46.13001792691648" lon="8.182261744514108">
        <ele>1480.0899999999999</ele>
        <time>2014-06-02T07:44:31Z</time>
      </trkpt>
      <trkpt lat="46.129914410412312" lon="8.182289907708764">
        <ele>1482.01</ele>
        <time>2014-06-02T07:44:47Z</time>
      </trkpt>
      <trkpt lat="46.129840901121497" lon="8.182273898273706">
        <ele>1484.4100000000001</ele>
        <time>2014-06-02T07:45:02Z</time>
      </trkpt>
      <trkpt lat="46.129758507013321" lon="8.182270126417279">
        <ele>1486.8199999999999</ele>
        <time>2014-06-02T07:45:16Z</time>
      </trkpt>
      <trkpt lat="46.129709305241704" lon="8.182273982092738">
        <ele>1488.74</ele>
        <time>2014-06-02T07:45:30Z</time>
      </trkpt>
      <trkpt lat="46.129634287208319" lon="8.182232156395912">
        <ele>1490.6600000000001</ele>
        <time>2014-06-02T07:45:44Z</time>
      </trkpt>
      <trkpt lat="46.129615847021341" lon="8.18217633292079">
        <ele>1492.0999999999999</ele>
        <time>2014-06-02T07:46:02Z</time>
      </trkpt>
      <trkpt lat="46.129661276936531" lon="8.182022860273719">
        <ele>1494.51</ele>
        <time>2014-06-02T07:46:22Z</time>
      </trkpt>
      <trkpt lat="46.129700839519501" lon="8.181892521679401">
        <ele>1496.4300000000001</ele>
        <time>2014-06-02T07:46:35Z</time>
      </trkpt>
      <trkpt lat="46.12979119643569" lon="8.181822448968887">
        <ele>1499.79</ele>
        <time>2014-06-02T07:46:50Z</time>
      </trkpt>
      <trkpt lat="46.12989236600697" lon="8.18176687695086">
        <ele>1501.72</ele>
        <time>2014-06-02T07:47:09Z</time>
      </trkpt>
      <trkpt lat="46.129917679354548" lon="8.181744581088424">
        <ele>1503.1600000000001</ele>
        <time>2014-06-02T07:47:16Z</time>
      </trkpt>
      <trkpt lat="46.129917511716485" lon="8.181710550561547">
        <ele>1504.5999999999999</ele>
        <time>2014-06-02T07:47:21Z</time>
      </trkpt>
      <trkpt lat="46.129938131198287" lon="8.181522879749537">
        <ele>1505.5599999999999</ele>
        <time>2014-06-02T07:47:37Z</time>
      </trkpt>
      <trkpt lat="46.1299719940871" lon="8.181436965242028">
        <ele>1507</ele>
        <time>2014-06-02T07:47:47Z</time>
      </trkpt>
      <trkpt lat="46.129998983815312" lon="8.181229429319501">
        <ele>1507.97</ele>
        <time>2014-06-02T07:48:02Z</time>
      </trkpt>
      <trkpt lat="46.130048772320151" lon="8.181115016341209">
        <ele>1510.3699999999999</ele>
        <time>2014-06-02T07:48:18Z</time>
      </trkpt>
      <trkpt lat="46.130093531683087" lon="8.181041674688458">
        <ele>1511.8099999999999</ele>
        <time>2014-06-02T07:48:31Z</time>
      </trkpt>
      <trkpt lat="46.130095794796944" lon="8.18091225810349">
        <ele>1513.73</ele>
        <time>2014-06-02T07:48:47Z</time>
      </trkpt>
      <trkpt lat="46.130136949941516" lon="8.180802119895816">
        <ele>1515.6600000000001</ele>
        <time>2014-06-02T07:49:02Z</time>
      </trkpt>
      <trkpt lat="46.130161257460713" lon="8.180684689432383">
        <ele>1517.5799999999999</ele>
        <time>2014-06-02T07:49:17Z</time>
      </trkpt>
      <trkpt lat="46.130209118127823" lon="8.180549237877131">
        <ele>1519.02</ele>
        <time>2014-06-02T07:49:29Z</time>
      </trkpt>
      <trkpt lat="46.130257397890091" lon="8.180415295064449">
        <ele>1519.5</ele>
        <time>2014-06-02T07:49:41Z</time>
      </trkpt>
      <trkpt lat="46.130297379568219" lon="8.180277245119214">
        <ele>1520.46</ele>
        <time>2014-06-02T07:49:52Z</time>
      </trkpt>
      <trkpt lat="46.130355801433325" lon="8.180095525458455">
        <ele>1521.4200000000001</ele>
        <time>2014-06-02T07:50:07Z</time>
      </trkpt>
      <trkpt lat="46.13041078671813" lon="8.179923444986343">
        <ele>1522.3900000000001</ele>
        <time>2014-06-02T07:50:22Z</time>
      </trkpt>
      <trkpt lat="46.130482535809278" lon="8.179752202704549">
        <ele>1521.9000000000001</ele>
        <time>2014-06-02T07:50:37Z</time>
      </trkpt>
      <trkpt lat="46.130552776157856" lon="8.179605016484857">
        <ele>1520.46</ele>
        <time>2014-06-02T07:50:50Z</time>
      </trkpt>
      <trkpt lat="46.130631901323795" lon="8.179424554109573">
        <ele>1518.54</ele>
        <time>2014-06-02T07:51:03Z</time>
      </trkpt>
      <trkpt lat="46.130734998732805" lon="8.179248534142971">
        <ele>1518.0599999999999</ele>
        <time>2014-06-02T07:51:17Z</time>
      </trkpt>
      <trkpt lat="46.130726030096412" lon="8.17912925966084">
        <ele>1519.5</ele>
        <time>2014-06-02T07:51:30Z</time>
      </trkpt>
      <trkpt lat="46.130687473341823" lon="8.178967321291566">
        <ele>1520.46</ele>
        <time>2014-06-02T07:51:44Z</time>
      </trkpt>
      <trkpt lat="46.130631063133478" lon="8.178821476176381">
        <ele>1522.8699999999999</ele>
        <time>2014-06-02T07:52:00Z</time>
      </trkpt>
      <trkpt lat="46.130592674016953" lon="8.178697004914284">
        <ele>1524.79</ele>
        <time>2014-06-02T07:52:15Z</time>
      </trkpt>
      <trkpt lat="46.130563085898757" lon="8.178583094850183">
        <ele>1526.71</ele>
        <time>2014-06-02T07:52:30Z</time>
      </trkpt>
      <trkpt lat="46.130568785592914" lon="8.178390394896269">
        <ele>1526.71</ele>
        <time>2014-06-02T07:52:44Z</time>
      </trkpt>
      <trkpt lat="46.130504915490746" lon="8.178242621943355">
        <ele>1527.6700000000001</ele>
        <time>2014-06-02T07:52:58Z</time>
      </trkpt>
      <trkpt lat="46.130419503897429" lon="8.178150085732341">
        <ele>1528.1500000000001</ele>
        <time>2014-06-02T07:53:15Z</time>
      </trkpt>
      <trkpt lat="46.130357142537832" lon="8.177992003038526">
        <ele>1529.5899999999999</ele>
        <time>2014-06-02T07:53:30Z</time>
      </trkpt>
      <trkpt lat="46.130302492529154" lon="8.177813971415162">
        <ele>1529.5899999999999</ele>
        <time>2014-06-02T07:53:43Z</time>
      </trkpt>
      <trkpt lat="46.130225546658039" lon="8.17764725536108">
        <ele>1529.1099999999999</ele>
        <time>2014-06-02T07:53:58Z</time>
      </trkpt>
      <trkpt lat="46.130145583301783" lon="8.177547762170434">
        <ele>1531.52</ele>
        <time>2014-06-02T07:54:12Z</time>
      </trkpt>
      <trkpt lat="46.130083557218313" lon="8.177419686689973">
        <ele>1532.96</ele>
        <time>2014-06-02T07:54:23Z</time>
      </trkpt>
      <trkpt lat="46.130042904987931" lon="8.177296305075288">
        <ele>1532.96</ele>
        <time>2014-06-02T07:54:33Z</time>
      </trkpt>
      <trkpt lat="46.130033517256379" lon="8.177078878507018">
        <ele>1532.48</ele>
        <time>2014-06-02T07:54:49Z</time>
      </trkpt>
      <trkpt lat="46.130115995183587" lon="8.176910821348429">
        <ele>1531.52</ele>
        <time>2014-06-02T07:55:05Z</time>
      </trkpt>
      <trkpt lat="46.130115240812302" lon="8.176814429461956">
        <ele>1531.04</ele>
        <time>2014-06-02T07:55:13Z</time>
      </trkpt>
      <trkpt lat="46.130123706534505" lon="8.176682582125068">
        <ele>1529.1099999999999</ele>
        <time>2014-06-02T07:55:25Z</time>
      </trkpt>
      <trkpt lat="46.130136949941516" lon="8.17657713778317">
        <ele>1527.1900000000001</ele>
        <time>2014-06-02T07:55:34Z</time>
      </trkpt>
      <trkpt lat="46.130139464512467" lon="8.176453672349453">
        <ele>1526.23</ele>
        <time>2014-06-02T07:55:45Z</time>
      </trkpt>
      <trkpt lat="46.130177099257708" lon="8.176224175840616">
        <ele>1525.27</ele>
        <time>2014-06-02T07:56:00Z</time>
      </trkpt>
      <trkpt lat="46.130180787295103" lon="8.176106326282024">
        <ele>1526.23</ele>
        <time>2014-06-02T07:56:13Z</time>
      </trkpt>
      <trkpt lat="46.13017039373517" lon="8.176077157258987">
        <ele>1527.1900000000001</ele>
        <time>2014-06-02T07:56:20Z</time>
      </trkpt>
      <trkpt lat="46.130163855850697" lon="8.176060058176518">
        <ele>1528.6300000000001</ele>
        <time>2014-06-02T07:56:22Z</time>
      </trkpt>
      <trkpt lat="46.130143152549863" lon="8.175942627713084">
        <ele>1529.1099999999999</ele>
        <time>2014-06-02T07:56:35Z</time>
      </trkpt>
      <trkpt lat="46.130176680162549" lon="8.175740875303745">
        <ele>1529.1099999999999</ele>
        <time>2014-06-02T07:56:48Z</time>
      </trkpt>
      <trkpt lat="46.130244741216302" lon="8.175529148429632">
        <ele>1529.1099999999999</ele>
        <time>2014-06-02T07:57:03Z</time>
      </trkpt>
      <trkpt lat="46.130303163081408" lon="8.175415908917785">
        <ele>1530.0799999999999</ele>
        <time>2014-06-02T07:57:15Z</time>
      </trkpt>
      <trkpt lat="46.130408691242337" lon="8.175273248925805">
        <ele>1531.52</ele>
        <time>2014-06-02T07:57:30Z</time>
      </trkpt>
      <trkpt lat="46.130439285188913" lon="8.17523050121963">
        <ele>1531.52</ele>
        <time>2014-06-02T07:57:34Z</time>
      </trkpt>
      <trkpt lat="46.130536012351513" lon="8.175145508721471">
        <ele>1532.48</ele>
        <time>2014-06-02T07:57:48Z</time>
      </trkpt>
      <trkpt lat="46.130638020113111" lon="8.174996981397271">
        <ele>1533.9200000000001</ele>
        <time>2014-06-02T07:58:02Z</time>
      </trkpt>
      <trkpt lat="46.130719827488065" lon="8.174865804612637">
        <ele>1535.3599999999999</ele>
        <time>2014-06-02T07:58:16Z</time>
      </trkpt>
      <trkpt lat="46.130771962925792" lon="8.174717696383596">
        <ele>1537.77</ele>
        <time>2014-06-02T07:58:32Z</time>
      </trkpt>
      <trkpt lat="46.130887884646654" lon="8.174689197912812">
        <ele>1538.25</ele>
        <time>2014-06-02T07:58:46Z</time>
      </trkpt>
      <trkpt lat="46.130950162187219" lon="8.174621388316155">
        <ele>1539.21</ele>
        <time>2014-06-02T07:59:00Z</time>
      </trkpt>
      <trkpt lat="46.130972625687718" lon="8.174520805478096">
        <ele>1540.6500000000001</ele>
        <time>2014-06-02T07:59:08Z</time>
      </trkpt>
      <trkpt lat="46.13103523850441" lon="8.174421144649386">
        <ele>1542.5699999999999</ele>
        <time>2014-06-02T07:59:21Z</time>
      </trkpt>
      <trkpt lat="46.131130959838629" lon="8.17437487654388">
        <ele>1544.01</ele>
        <time>2014-06-02T07:59:34Z</time>
      </trkpt>
      <trkpt lat="46.131216119974852" lon="8.174286196008325">
        <ele>1544.98</ele>
        <time>2014-06-02T07:59:47Z</time>
      </trkpt>
      <trkpt lat="46.131296083331108" lon="8.174266079440713">
        <ele>1546.4200000000001</ele>
        <time>2014-06-02T08:00:03Z</time>
      </trkpt>
      <trkpt lat="46.131272697821259" lon="8.174155941233039">
        <ele>1549.78</ele>
        <time>2014-06-02T08:00:22Z</time>
      </trkpt>
      <trkpt lat="46.131263813003898" lon="8.174107410013676">
        <ele>1550.26</ele>
        <time>2014-06-02T08:00:26Z</time>
      </trkpt>
      <trkpt lat="46.131198350340128" lon="8.17402359098196">
        <ele>1551.22</ele>
        <time>2014-06-02T08:00:41Z</time>
      </trkpt>
      <trkpt lat="46.131142610684037" lon="8.173907166346908">
        <ele>1552.6700000000001</ele>
        <time>2014-06-02T08:00:55Z</time>
      </trkpt>
      <trkpt lat="46.131111513823271" lon="8.173746569082141">
        <ele>1555.0699999999999</ele>
        <time>2014-06-02T08:01:12Z</time>
      </trkpt>
      <trkpt lat="46.131165325641632" lon="8.17363852635026">
        <ele>1556.51</ele>
        <time>2014-06-02T08:01:26Z</time>
      </trkpt>
      <trkpt lat="46.131181670352817" lon="8.173521598801017">
        <ele>1558.4300000000001</ele>
        <time>2014-06-02T08:01:40Z</time>
      </trkpt>
      <trkpt lat="46.131178317591548" lon="8.173423446714878">
        <ele>1560.8399999999999</ele>
        <time>2014-06-02T08:01:54Z</time>
      </trkpt>
      <trkpt lat="46.131235817447305" lon="8.173307357355952">
        <ele>1562.76</ele>
        <time>2014-06-02T08:02:09Z</time>
      </trkpt>
      <trkpt lat="46.131256185472012" lon="8.173219012096524">
        <ele>1565.1600000000001</ele>
        <time>2014-06-02T08:02:23Z</time>
      </trkpt>
      <trkpt lat="46.131277726963162" lon="8.173106862232089">
        <ele>1566.6099999999999</ele>
        <time>2014-06-02T08:02:36Z</time>
      </trkpt>
      <trkpt lat="46.131303878501058" lon="8.17303947173059">
        <ele>1568.53</ele>
        <time>2014-06-02T08:02:51Z</time>
      </trkpt>
      <trkpt lat="46.131350817158818" lon="8.17316796630621">
        <ele>1569.97</ele>
        <time>2014-06-02T08:03:05Z</time>
      </trkpt>
      <trkpt lat="46.131393481045961" lon="8.173330826684833">
        <ele>1571.4100000000001</ele>
        <time>2014-06-02T08:03:19Z</time>
      </trkpt>
      <trkpt lat="46.131415273994207" lon="8.173466194421053">
        <ele>1572.8499999999999</ele>
        <time>2014-06-02T08:03:35Z</time>
      </trkpt>
      <trkpt lat="46.131407814100385" lon="8.173607345670462">
        <ele>1574.3</ele>
        <time>2014-06-02T08:03:47Z</time>
      </trkpt>
      <trkpt lat="46.13141736947" lon="8.173763668164611">
        <ele>1575.74</ele>
        <time>2014-06-02T08:04:02Z</time>
      </trkpt>
      <trkpt lat="46.131430277600884" lon="8.17368395626545">
        <ele>1578.6199999999999</ele>
        <time>2014-06-02T08:04:19Z</time>
      </trkpt>
      <trkpt lat="46.131463721394539" lon="8.1735984608531">
        <ele>1581.03</ele>
        <time>2014-06-02T08:04:33Z</time>
      </trkpt>
      <trkpt lat="46.131474366411567" lon="8.173497375100851">
        <ele>1582.95</ele>
        <time>2014-06-02T08:04:47Z</time>
      </trkpt>
      <trkpt lat="46.131467996165156" lon="8.173375502228737">
        <ele>1584.8699999999999</ele>
        <time>2014-06-02T08:05:00Z</time>
      </trkpt>
      <trkpt lat="46.131458943709731" lon="8.173197051510215">
        <ele>1584.8699999999999</ele>
        <time>2014-06-02T08:05:15Z</time>
      </trkpt>
      <trkpt lat="46.131472354754806" lon="8.173105856403709">
        <ele>1584.8699999999999</ele>
        <time>2014-06-02T08:05:21Z</time>
      </trkpt>
      <trkpt lat="46.131517281755805" lon="8.172997646033764">
        <ele>1585.8299999999999</ele>
        <time>2014-06-02T08:05:30Z</time>
      </trkpt>
      <trkpt lat="46.131571177393198" lon="8.172951964661479">
        <ele>1585.3499999999999</ele>
        <time>2014-06-02T08:05:35Z</time>
      </trkpt>
      <trkpt lat="46.131670419126749" lon="8.172900835052133">
        <ele>1585.8299999999999</ele>
        <time>2014-06-02T08:05:45Z</time>
      </trkpt>
      <trkpt lat="46.131762536242604" lon="8.172869738191366">
        <ele>1587.27</ele>
        <time>2014-06-02T08:05:57Z</time>
      </trkpt>
      <trkpt lat="46.131853815168142" lon="8.17285087890923">
        <ele>1586.79</ele>
        <time>2014-06-02T08:06:07Z</time>
      </trkpt>
      <trkpt lat="46.131939813494682" lon="8.172739567235112">
        <ele>1586.3099999999999</ele>
        <time>2014-06-02T08:06:21Z</time>
      </trkpt>
      <trkpt lat="46.13200125284493" lon="8.172673434019089">
        <ele>1585.8299999999999</ele>
        <time>2014-06-02T08:06:28Z</time>
      </trkpt>
      <trkpt lat="46.132143326103687" lon="8.172612749040127">
        <ele>1586.79</ele>
        <time>2014-06-02T08:06:43Z</time>
      </trkpt>
      <trkpt lat="46.132111893966794" lon="8.172606797888875">
        <ele>1589.2</ele>
        <time>2014-06-02T08:06:55Z</time>
      </trkpt>
      <trkpt lat="46.132101248949766" lon="8.172506047412753">
        <ele>1590.6400000000001</ele>
        <time>2014-06-02T08:07:08Z</time>
      </trkpt>
      <trkpt lat="46.132072499021888" lon="8.172403201460838">
        <ele>1593.04</ele>
        <time>2014-06-02T08:07:23Z</time>
      </trkpt>
      <trkpt lat="46.132058752700686" lon="8.17225911654532">
        <ele>1594.96</ele>
        <time>2014-06-02T08:07:35Z</time>
      </trkpt>
      <trkpt lat="46.132061686366796" lon="8.172180745750666">
        <ele>1594.96</ele>
        <time>2014-06-02T08:07:40Z</time>
      </trkpt>
      <trkpt lat="46.132069062441587" lon="8.172126933932304">
        <ele>1594.96</ele>
        <time>2014-06-02T08:07:44Z</time>
      </trkpt>
      <trkpt lat="46.132112313061953" lon="8.171920236200094">
        <ele>1595.9300000000001</ele>
        <time>2014-06-02T08:08:00Z</time>
      </trkpt>
      <trkpt lat="46.132165621966124" lon="8.171744635328651">
        <ele>1596.8900000000001</ele>
        <time>2014-06-02T08:08:16Z</time>
      </trkpt>
      <trkpt lat="46.132217673584819" lon="8.171606585383415">
        <ele>1597.8499999999999</ele>
        <time>2014-06-02T08:08:29Z</time>
      </trkpt>
      <trkpt lat="46.132243573665619" lon="8.171518240123987">
        <ele>1598.3299999999999</ele>
        <time>2014-06-02T08:08:36Z</time>
      </trkpt>
      <trkpt lat="46.132324878126383" lon="8.171349260956049">
        <ele>1598.3299999999999</ele>
        <time>2014-06-02T08:08:50Z</time>
      </trkpt>
      <trkpt lat="46.132368883118033" lon="8.171204254031181">
        <ele>1598.8099999999999</ele>
        <time>2014-06-02T08:09:04Z</time>
      </trkpt>
      <trkpt lat="46.132435267791152" lon="8.171122949570417">
        <ele>1597.8499999999999</ele>
        <time>2014-06-02T08:09:17Z</time>
      </trkpt>
      <trkpt lat="46.132427221164107" lon="8.170983223244548">
        <ele>1595.45</ele>
        <time>2014-06-02T08:09:32Z</time>
      </trkpt>
      <trkpt lat="46.132387658581138" lon="8.170867385342717">
        <ele>1593.52</ele>
        <time>2014-06-02T08:09:46Z</time>
      </trkpt>
      <trkpt lat="46.132364440709352" lon="8.170840898528695">
        <ele>1593.04</ele>
        <time>2014-06-02T08:09:51Z</time>
      </trkpt>
      <trkpt lat="46.132356561720371" lon="8.170833857730031">
        <ele>1593.04</ele>
        <time>2014-06-02T08:09:52Z</time>
      </trkpt>
      <trkpt lat="46.132351197302341" lon="8.170826397836208">
        <ele>1592.5599999999999</ele>
        <time>2014-06-02T08:09:53Z</time>
      </trkpt>
      <trkpt lat="46.132350023835897" lon="8.170814495533705">
        <ele>1592.5599999999999</ele>
        <time>2014-06-02T08:09:54Z</time>
      </trkpt>
      <trkpt lat="46.132350275292993" lon="8.170794798061252">
        <ele>1592.5599999999999</ele>
        <time>2014-06-02T08:09:55Z</time>
      </trkpt>
      <trkpt lat="46.132347593083978" lon="8.170776190236211">
        <ele>1592.5599999999999</ele>
        <time>2014-06-02T08:09:56Z</time>
      </trkpt>
      <trkpt lat="46.132348431274295" lon="8.170754313468933">
        <ele>1592.0799999999999</ele>
        <time>2014-06-02T08:09:57Z</time>
      </trkpt>
      <trkpt lat="46.132320100441575" lon="8.170532612130046">
        <ele>1593.04</ele>
        <time>2014-06-02T08:10:11Z</time>
      </trkpt>
      <trkpt lat="46.132303168997169" lon="8.170349970459938">
        <ele>1595.45</ele>
        <time>2014-06-02T08:10:27Z</time>
      </trkpt>
      <trkpt lat="46.132267294451594" lon="8.170170346274972">
        <ele>1595.9300000000001</ele>
        <time>2014-06-02T08:10:41Z</time>
      </trkpt>
      <trkpt lat="46.13223485648632" lon="8.17007596604526">
        <ele>1595.9300000000001</ele>
        <time>2014-06-02T08:10:48Z</time>
      </trkpt>
      <trkpt lat="46.132272323593497" lon="8.16992006264627">
        <ele>1595.9300000000001</ele>
        <time>2014-06-02T08:10:59Z</time>
      </trkpt>
      <trkpt lat="46.132315322756767" lon="8.169703809544444">
        <ele>1594.96</ele>
        <time>2014-06-02T08:11:16Z</time>
      </trkpt>
      <trkpt lat="46.132324878126383" lon="8.169546481221914">
        <ele>1593.04</ele>
        <time>2014-06-02T08:11:31Z</time>
      </trkpt>
      <trkpt lat="46.132326554507017" lon="8.169484790414572">
        <ele>1592.5599999999999</ele>
        <time>2014-06-02T08:11:40Z</time>
      </trkpt>
      <trkpt lat="46.132366955280304" lon="8.1693210080266">
        <ele>1592.0799999999999</ele>
        <time>2014-06-02T08:11:52Z</time>
      </trkpt>
      <trkpt lat="46.132376426830888" lon="8.169310027733445">
        <ele>1591.5999999999999</ele>
        <time>2014-06-02T08:11:53Z</time>
      </trkpt>
      <trkpt lat="46.132465777918696" lon="8.169212797656655">
        <ele>1592.5599999999999</ele>
        <time>2014-06-02T08:12:07Z</time>
      </trkpt>
      <trkpt lat="46.132547501474619" lon="8.169100228697062">
        <ele>1593.52</ele>
        <time>2014-06-02T08:12:21Z</time>
      </trkpt>
      <trkpt lat="46.132554709911346" lon="8.169097295030952">
        <ele>1594</ele>
        <time>2014-06-02T08:12:22Z</time>
      </trkpt>
      <trkpt lat="46.132612125948071" lon="8.169056307524443">
        <ele>1595.45</ele>
        <time>2014-06-02T08:12:35Z</time>
      </trkpt>
      <trkpt lat="46.132673649117351" lon="8.168990593403578">
        <ele>1597.8499999999999</ele>
        <time>2014-06-02T08:12:49Z</time>
      </trkpt>
      <trkpt lat="46.132721845060587" lon="8.168958909809589">
        <ele>1598.3299999999999</ele>
        <time>2014-06-02T08:12:55Z</time>
      </trkpt>
      <trkpt lat="46.132814297452569" lon="8.168860087171197">
        <ele>1599.77</ele>
        <time>2014-06-02T08:13:11Z</time>
      </trkpt>
      <trkpt lat="46.132838102057576" lon="8.168786242604256">
        <ele>1601.21</ele>
        <time>2014-06-02T08:13:25Z</time>
      </trkpt>
      <trkpt lat="46.132846483960748" lon="8.168716756626964">
        <ele>1603.6199999999999</ele>
        <time>2014-06-02T08:13:41Z</time>
      </trkpt>
      <trkpt lat="46.132874228060246" lon="8.168593291193247">
        <ele>1606.02</ele>
        <time>2014-06-02T08:14:00Z</time>
      </trkpt>
      <trkpt lat="46.13292477093637" lon="8.168466640636325">
        <ele>1607.9400000000001</ele>
        <time>2014-06-02T08:14:15Z</time>
      </trkpt>
      <trkpt lat="46.132963746786118" lon="8.168405117467046">
        <ele>1609.8599999999999</ele>
        <time>2014-06-02T08:14:29Z</time>
      </trkpt>
      <trkpt lat="46.132942456752062" lon="8.168282071128488">
        <ele>1611.79</ele>
        <time>2014-06-02T08:14:45Z</time>
      </trkpt>
      <trkpt lat="46.132958214730024" lon="8.168143602088094">
        <ele>1613.71</ele>
        <time>2014-06-02T08:15:01Z</time>
      </trkpt>
      <trkpt lat="46.132960394024849" lon="8.168075708672404">
        <ele>1616.1099999999999</ele>
        <time>2014-06-02T08:15:17Z</time>
      </trkpt>
      <trkpt lat="46.133014541119337" lon="8.167902790009975">
        <ele>1618.52</ele>
        <time>2014-06-02T08:15:33Z</time>
      </trkpt>
      <trkpt lat="46.133076902478933" lon="8.167768009006977">
        <ele>1619.96</ele>
        <time>2014-06-02T08:15:49Z</time>
      </trkpt>
      <trkpt lat="46.133135659620166" lon="8.167626690119505">
        <ele>1620.9200000000001</ele>
        <time>2014-06-02T08:16:04Z</time>
      </trkpt>
      <trkpt lat="46.133149322122335" lon="8.167538680136204">
        <ele>1622.3599999999999</ele>
        <time>2014-06-02T08:16:15Z</time>
      </trkpt>
      <trkpt lat="46.133155440911651" lon="8.16748034209013">
        <ele>1622.3599999999999</ele>
        <time>2014-06-02T08:16:21Z</time>
      </trkpt>
      <trkpt lat="46.13322526216507" lon="8.167317565530539">
        <ele>1622.3599999999999</ele>
        <time>2014-06-02T08:16:36Z</time>
      </trkpt>
      <trkpt lat="46.13327706232667" lon="8.167230058461428">
        <ele>1623.8</ele>
        <time>2014-06-02T08:16:49Z</time>
      </trkpt>
      <trkpt lat="46.13334059715271" lon="8.16714758053422">
        <ele>1624.77</ele>
        <time>2014-06-02T08:17:03Z</time>
      </trkpt>
      <trkpt lat="46.133385105058551" lon="8.167073484510183">
        <ele>1623.8</ele>
        <time>2014-06-02T08:17:19Z</time>
      </trkpt>
      <trkpt lat="46.133396336808801" lon="8.167077004909515">
        <ele>1624.28</ele>
        <time>2014-06-02T08:17:20Z</time>
      </trkpt>
      <trkpt lat="46.133416621014476" lon="8.167094690725207">
        <ele>1624.28</ele>
        <time>2014-06-02T08:17:29Z</time>
      </trkpt>
      <trkpt lat="46.133421817794442" lon="8.167074406519532">
        <ele>1624.28</ele>
        <time>2014-06-02T08:17:30Z</time>
      </trkpt>
      <trkpt lat="46.133447634056211" lon="8.167009614408016">
        <ele>1623.3199999999999</ele>
        <time>2014-06-02T08:17:44Z</time>
      </trkpt>
      <trkpt lat="46.133457608520985" lon="8.166993521153927">
        <ele>1623.3199999999999</ele>
        <time>2014-06-02T08:17:45Z</time>
      </trkpt>
      <trkpt lat="46.1334671638906" lon="8.166981535032392">
        <ele>1623.3199999999999</ele>
        <time>2014-06-02T08:17:46Z</time>
      </trkpt>
      <trkpt lat="46.13347596488893" lon="8.166932249441743">
        <ele>1623.8</ele>
        <time>2014-06-02T08:17:50Z</time>
      </trkpt>
      <trkpt lat="46.13346473313868" lon="8.166843401268125">
        <ele>1624.77</ele>
        <time>2014-06-02T08:18:01Z</time>
      </trkpt>
      <trkpt lat="46.13347252830863" lon="8.166800234466791">
        <ele>1624.28</ele>
        <time>2014-06-02T08:18:05Z</time>
      </trkpt>
      <trkpt lat="46.133489292114973" lon="8.16669856198132">
        <ele>1624.77</ele>
        <time>2014-06-02T08:18:17Z</time>
      </trkpt>
      <trkpt lat="46.133508486673236" lon="8.166650617495179">
        <ele>1626.21</ele>
        <time>2014-06-02T08:18:28Z</time>
      </trkpt>
      <trkpt lat="46.133506977930665" lon="8.166628740727902">
        <ele>1626.21</ele>
        <time>2014-06-02T08:18:48Z</time>
      </trkpt>
      <trkpt lat="46.133518377318978" lon="8.166575850918889">
        <ele>1626.6900000000001</ele>
        <time>2014-06-02T08:19:03Z</time>
      </trkpt>
      <trkpt lat="46.133516198024154" lon="8.166563613340259">
        <ele>1626.6900000000001</ele>
        <time>2014-06-02T08:19:17Z</time>
      </trkpt>
      <trkpt lat="46.133497757837176" lon="8.166574006900191">
        <ele>1626.6900000000001</ele>
        <time>2014-06-02T08:19:31Z</time>
      </trkpt>
      <trkpt lat="46.133512258529663" lon="8.166557997465134">
        <ele>1626.6900000000001</ele>
        <time>2014-06-02T08:19:43Z</time>
      </trkpt>
      <trkpt lat="46.133509911596775" lon="8.166545424610376">
        <ele>1627.1700000000001</ele>
        <time>2014-06-02T08:19:44Z</time>
      </trkpt>
      <trkpt lat="46.133481077849865" lon="8.166511645540595">
        <ele>1627.1700000000001</ele>
        <time>2014-06-02T08:19:54Z</time>
      </trkpt>
      <trkpt lat="46.133479652926326" lon="8.16648499108851">
        <ele>1627.1700000000001</ele>
        <time>2014-06-02T08:20:03Z</time>
      </trkpt>
      <trkpt lat="46.133499266579747" lon="8.166516255587339">
        <ele>1627.6500000000001</ele>
        <time>2014-06-02T08:20:19Z</time>
      </trkpt>
      <trkpt lat="46.13350328989327" lon="8.166523799300194">
        <ele>1627.6500000000001</ele>
        <time>2014-06-02T08:20:38Z</time>
      </trkpt>
      <trkpt lat="46.133529860526323" lon="8.166513573378325">
        <ele>1627.6500000000001</ele>
        <time>2014-06-02T08:20:58Z</time>
      </trkpt>
      <trkpt lat="46.133533045649529" lon="8.166521200910211">
        <ele>1628.1300000000001</ele>
        <time>2014-06-02T08:21:19Z</time>
      </trkpt>
      <trkpt lat="46.13353899680078" lon="8.16654902882874">
        <ele>1628.1300000000001</ele>
        <time>2014-06-02T08:21:42Z</time>
      </trkpt>
      <trkpt lat="46.133498679846525" lon="8.166489098221064">
        <ele>1628.1300000000001</ele>
        <time>2014-06-02T08:21:56Z</time>
      </trkpt>
      <trkpt lat="46.133430618792772" lon="8.166485745459795">
        <ele>1630.05</ele>
        <time>2014-06-02T08:22:13Z</time>
      </trkpt>
      <trkpt lat="46.13333816640079" lon="8.166474429890513">
        <ele>1632.9400000000001</ele>
        <time>2014-06-02T08:22:26Z</time>
      </trkpt>
      <trkpt lat="46.133256861940026" lon="8.166413493454456">
        <ele>1634.3800000000001</ele>
        <time>2014-06-02T08:22:39Z</time>
      </trkpt>
      <trkpt lat="46.133220652118325" lon="8.166256248950958">
        <ele>1637.26</ele>
        <time>2014-06-02T08:22:53Z</time>
      </trkpt>
      <trkpt lat="46.133267674595118" lon="8.166231187060475">
        <ele>1639.1900000000001</ele>
        <time>2014-06-02T08:23:07Z</time>
      </trkpt>
      <trkpt lat="46.133247138932347" lon="8.166155498474836">
        <ele>1641.1099999999999</ele>
        <time>2014-06-02T08:23:19Z</time>
      </trkpt>
      <trkpt lat="46.133246719837189" lon="8.166140830144286">
        <ele>1641.1099999999999</ele>
        <time>2014-06-02T08:23:20Z</time>
      </trkpt>
      <trkpt lat="46.133250826969743" lon="8.166028596460819">
        <ele>1642.0699999999999</ele>
        <time>2014-06-02T08:23:33Z</time>
      </trkpt>
      <trkpt lat="46.13325216807425" lon="8.16601300612092">
        <ele>1643.99</ele>
        <time>2014-06-02T08:23:36Z</time>
      </trkpt>
      <trkpt lat="46.133222747594118" lon="8.165953075513244">
        <ele>1645.4300000000001</ele>
        <time>2014-06-02T08:23:48Z</time>
      </trkpt>
      <trkpt lat="46.133217215538025" lon="8.165865987539291">
        <ele>1647.3599999999999</ele>
        <time>2014-06-02T08:24:01Z</time>
      </trkpt>
      <trkpt lat="46.133179580792785" lon="8.165825754404068">
        <ele>1647.3599999999999</ele>
        <time>2014-06-02T08:24:06Z</time>
      </trkpt>
      <trkpt lat="46.133171198889613" lon="8.165794322267175">
        <ele>1649.76</ele>
        <time>2014-06-02T08:24:09Z</time>
      </trkpt>
      <trkpt lat="46.133118476718664" lon="8.165629282593727">
        <ele>1650.72</ele>
        <time>2014-06-02T08:24:24Z</time>
      </trkpt>
      <trkpt lat="46.133073549717665" lon="8.165571447461844">
        <ele>1653.5999999999999</ele>
        <time>2014-06-02T08:24:39Z</time>
      </trkpt>
      <trkpt lat="46.133021665737033" lon="8.165557449683547">
        <ele>1656.49</ele>
        <time>2014-06-02T08:24:53Z</time>
      </trkpt>
      <trkpt lat="46.132961316034198" lon="8.165585864335299">
        <ele>1659.3699999999999</ele>
        <time>2014-06-02T08:25:06Z</time>
      </trkpt>
      <trkpt lat="46.13290524110198" lon="8.165550492703915">
        <ele>1660.3299999999999</ele>
        <time>2014-06-02T08:25:21Z</time>
      </trkpt>
      <trkpt lat="46.13280457444489" lon="8.165535908192396">
        <ele>1663.22</ele>
        <time>2014-06-02T08:25:37Z</time>
      </trkpt>
      <trkpt lat="46.132728634402156" lon="8.165498357266188">
        <ele>1666.5799999999999</ele>
        <time>2014-06-02T08:25:50Z</time>
      </trkpt>
      <trkpt lat="46.132678175345063" lon="8.165452424436808">
        <ele>1668.99</ele>
        <time>2014-06-02T08:26:03Z</time>
      </trkpt>
      <trkpt lat="46.132580190896988" lon="8.165392996743321">
        <ele>1670.9100000000001</ele>
        <time>2014-06-02T08:26:17Z</time>
      </trkpt>
      <trkpt lat="46.132461670786142" lon="8.165304148569703">
        <ele>1673.3099999999999</ele>
        <time>2014-06-02T08:26:34Z</time>
      </trkpt>
      <trkpt lat="46.132357651367784" lon="8.165191076695919">
        <ele>1675.72</ele>
        <time>2014-06-02T08:26:50Z</time>
      </trkpt>
      <trkpt lat="46.132246255874634" lon="8.16508605144918">
        <ele>1677.6400000000001</ele>
        <time>2014-06-02T08:27:05Z</time>
      </trkpt>
      <trkpt lat="46.13217132166028" lon="8.165038274601102">
        <ele>1677.6400000000001</ele>
        <time>2014-06-02T08:27:12Z</time>
      </trkpt>
      <trkpt lat="46.132072666659951" lon="8.164826715365052">
        <ele>1678.5999999999999</ele>
        <time>2014-06-02T08:27:28Z</time>
      </trkpt>
      <trkpt lat="46.1319924518466" lon="8.164619849994779">
        <ele>1679.0799999999999</ele>
        <time>2014-06-02T08:27:42Z</time>
      </trkpt>
      <trkpt lat="46.131978370249271" lon="8.164601577445865">
        <ele>1679.0799999999999</ele>
        <time>2014-06-02T08:27:44Z</time>
      </trkpt>
      <trkpt lat="46.13195389509201" lon="8.164514740929008">
        <ele>1680.52</ele>
        <time>2014-06-02T08:27:56Z</time>
      </trkpt>
      <trkpt lat="46.131944507360458" lon="8.164507783949375">
        <ele>1680.52</ele>
        <time>2014-06-02T08:27:57Z</time>
      </trkpt>
      <trkpt lat="46.131927575916052" lon="8.164503341540694">
        <ele>1680.04</ele>
        <time>2014-06-02T08:28:05Z</time>
      </trkpt>
      <trkpt lat="46.131911734119058" lon="8.164500491693616">
        <ele>1679.5599999999999</ele>
        <time>2014-06-02T08:28:06Z</time>
      </trkpt>
      <trkpt lat="46.131874350830913" lon="8.164485236629844">
        <ele>1679.5599999999999</ele>
        <time>2014-06-02T08:28:09Z</time>
      </trkpt>
      <trkpt lat="46.131864376366138" lon="8.164479788392782">
        <ele>1679.5599999999999</ele>
        <time>2014-06-02T08:28:10Z</time>
      </trkpt>
      <trkpt lat="46.131843589246273" lon="8.164472412317991">
        <ele>1680.04</ele>
        <time>2014-06-02T08:28:12Z</time>
      </trkpt>
      <trkpt lat="46.131814504042268" lon="8.164488840848208">
        <ele>1680.04</ele>
        <time>2014-06-02T08:28:15Z</time>
      </trkpt>
      <trkpt lat="46.131700426340103" lon="8.164552040398121">
        <ele>1681</ele>
        <time>2014-06-02T08:28:28Z</time>
      </trkpt>
      <trkpt lat="46.131604788824916" lon="8.164507364854217">
        <ele>1680.52</ele>
        <time>2014-06-02T08:28:40Z</time>
      </trkpt>
      <trkpt lat="46.131544103845954" lon="8.164456067606807">
        <ele>1680.04</ele>
        <time>2014-06-02T08:28:47Z</time>
      </trkpt>
      <trkpt lat="46.131470007821918" lon="8.164372332394123">
        <ele>1680.52</ele>
        <time>2014-06-02T08:28:58Z</time>
      </trkpt>
      <trkpt lat="46.131429187953472" lon="8.164254315197468">
        <ele>1681</ele>
        <time>2014-06-02T08:29:12Z</time>
      </trkpt>
      <trkpt lat="46.131373532116413" lon="8.164187595248222">
        <ele>1682.9300000000001</ele>
        <time>2014-06-02T08:29:25Z</time>
      </trkpt>
      <trkpt lat="46.131285689771175" lon="8.164121797308326">
        <ele>1684.3699999999999</ele>
        <time>2014-06-02T08:29:40Z</time>
      </trkpt>
      <trkpt lat="46.131256520748138" lon="8.164098830893636">
        <ele>1683.8900000000001</ele>
        <time>2014-06-02T08:29:45Z</time>
      </trkpt>
      <trkpt lat="46.131250569596887" lon="8.164086509495974">
        <ele>1683.8900000000001</ele>
        <time>2014-06-02T08:29:46Z</time>
      </trkpt>
      <trkpt lat="46.131239337846637" lon="8.164057172834873">
        <ele>1683.4100000000001</ele>
        <time>2014-06-02T08:29:48Z</time>
      </trkpt>
      <trkpt lat="46.131207821890712" lon="8.163818707689643">
        <ele>1681.96</ele>
        <time>2014-06-02T08:30:05Z</time>
      </trkpt>
      <trkpt lat="46.13119306974113" lon="8.163714269176126">
        <ele>1681.48</ele>
        <time>2014-06-02T08:30:13Z</time>
      </trkpt>
      <trkpt lat="46.131160128861666" lon="8.163535315543413">
        <ele>1681</ele>
        <time>2014-06-02T08:30:27Z</time>
      </trkpt>
      <trkpt lat="46.131125763058662" lon="8.163506733253598">
        <ele>1680.52</ele>
        <time>2014-06-02T08:30:42Z</time>
      </trkpt>
      <trkpt lat="46.131101371720433" lon="8.163487873971462">
        <ele>1680.04</ele>
        <time>2014-06-02T08:30:46Z</time>
      </trkpt>
      <trkpt lat="46.13109047524631" lon="8.163491645827889">
        <ele>1680.04</ele>
        <time>2014-06-02T08:30:47Z</time>
      </trkpt>
      <trkpt lat="46.13102694042027" lon="8.163483599200845">
        <ele>1678.5999999999999</ele>
        <time>2014-06-02T08:30:58Z</time>
      </trkpt>
      <trkpt lat="46.130999196320772" lon="8.163424339145422">
        <ele>1678.1199999999999</ele>
        <time>2014-06-02T08:31:02Z</time>
      </trkpt>
      <trkpt lat="46.130990562960505" lon="8.16341151483357">
        <ele>1678.1199999999999</ele>
        <time>2014-06-02T08:31:03Z</time>
      </trkpt>
      <trkpt lat="46.130983857437968" lon="8.163395924493671">
        <ele>1678.1199999999999</ele>
        <time>2014-06-02T08:31:04Z</time>
      </trkpt>
      <trkpt lat="46.130917556583881" lon="8.163239099085331">
        <ele>1679.0799999999999</ele>
        <time>2014-06-02T08:31:18Z</time>
      </trkpt>
      <trkpt lat="46.13086961209774" lon="8.163133822381496">
        <ele>1680.52</ele>
        <time>2014-06-02T08:31:32Z</time>
      </trkpt>
      <trkpt lat="46.130822924897075" lon="8.163086548447609">
        <ele>1682.9300000000001</ele>
        <time>2014-06-02T08:31:48Z</time>
      </trkpt>
      <trkpt lat="46.130757546052337" lon="8.163013961166143">
        <ele>1685.8099999999999</ele>
        <time>2014-06-02T08:32:03Z</time>
      </trkpt>
      <trkpt lat="46.130708931013942" lon="8.162951432168484">
        <ele>1686.77</ele>
        <time>2014-06-02T08:32:15Z</time>
      </trkpt>
      <trkpt lat="46.130638439208269" lon="8.162836851552129">
        <ele>1687.73</ele>
        <time>2014-06-02T08:32:29Z</time>
      </trkpt>
      <trkpt lat="46.130588902160525" lon="8.162817070260644">
        <ele>1687.73</ele>
        <time>2014-06-02T08:32:41Z</time>
      </trkpt>
      <trkpt lat="46.130532827228308" lon="8.162746829912067">
        <ele>1688.6900000000001</ele>
        <time>2014-06-02T08:32:55Z</time>
      </trkpt>
      <trkpt lat="46.130492258816957" lon="8.162649096921086">
        <ele>1690.1400000000001</ele>
        <time>2014-06-02T08:33:07Z</time>
      </trkpt>
      <trkpt lat="46.130424533039331" lon="8.162546418607235">
        <ele>1691.5799999999999</ele>
        <time>2014-06-02T08:33:22Z</time>
      </trkpt>
      <trkpt lat="46.130418162792921" lon="8.162536025047302">
        <ele>1691.5799999999999</ele>
        <time>2014-06-02T08:33:23Z</time>
      </trkpt>
      <trkpt lat="46.130346162244678" lon="8.162410883232951">
        <ele>1693.02</ele>
        <time>2014-06-02T08:33:38Z</time>
      </trkpt>
      <trkpt lat="46.130334595218301" lon="8.162371823564172">
        <ele>1693.5</ele>
        <time>2014-06-02T08:33:51Z</time>
      </trkpt>
      <trkpt lat="46.130292434245348" lon="8.162272749468684">
        <ele>1694.46</ele>
        <time>2014-06-02T08:34:02Z</time>
      </trkpt>
      <trkpt lat="46.130280699580908" lon="8.162171328440309">
        <ele>1696.3800000000001</ele>
        <time>2014-06-02T08:34:15Z</time>
      </trkpt>
      <trkpt lat="46.130253709852695" lon="8.162154229357839">
        <ele>1696.3800000000001</ele>
        <time>2014-06-02T08:34:27Z</time>
      </trkpt>
      <trkpt lat="46.130226720124483" lon="8.162137884646654">
        <ele>1696.3800000000001</ele>
        <time>2014-06-02T08:34:48Z</time>
      </trkpt>
      <trkpt lat="46.130176596343517" lon="8.162091448903084">
        <ele>1698.3099999999999</ele>
        <time>2014-06-02T08:35:03Z</time>
      </trkpt>
      <trkpt lat="46.130107780918479" lon="8.162095053121448">
        <ele>1700.23</ele>
        <time>2014-06-02T08:35:16Z</time>
      </trkpt>
      <trkpt lat="46.130068218335509" lon="8.162149451673031">
        <ele>1701.6700000000001</ele>
        <time>2014-06-02T08:35:29Z</time>
      </trkpt>
      <trkpt lat="46.130049861967564" lon="8.162164958193898">
        <ele>1702.6300000000001</ele>
        <time>2014-06-02T08:35:42Z</time>
      </trkpt>
      <trkpt lat="46.130030164495111" lon="8.162155151367188">
        <ele>1702.6300000000001</ele>
        <time>2014-06-02T08:36:00Z</time>
      </trkpt>
      <trkpt lat="46.130015747621655" lon="8.162209214642644">
        <ele>1703.5899999999999</ele>
        <time>2014-06-02T08:36:19Z</time>
      </trkpt>
      <trkpt lat="46.129905190318823" lon="8.162273420020938">
        <ele>1706.48</ele>
        <time>2014-06-02T08:36:33Z</time>
      </trkpt>
      <trkpt lat="46.129869148135185" lon="8.162326645106077">
        <ele>1707.9200000000001</ele>
        <time>2014-06-02T08:36:40Z</time>
      </trkpt>
      <trkpt lat="46.12986059859395" lon="8.162342319265008">
        <ele>1707.9200000000001</ele>
        <time>2014-06-02T08:36:41Z</time>
      </trkpt>
      <trkpt lat="46.129789855331182" lon="8.16242253407836">
        <ele>1709.3599999999999</ele>
        <time>2014-06-02T08:36:51Z</time>
      </trkpt>
      <trkpt lat="46.129708969965577" lon="8.162450697273016">
        <ele>1711.76</ele>
        <time>2014-06-02T08:37:02Z</time>
      </trkpt>
      <trkpt lat="46.129589946940541" lon="8.162517417222261">
        <ele>1714.6500000000001</ele>
        <time>2014-06-02T08:37:17Z</time>
      </trkpt>
      <trkpt lat="46.129468576982617" lon="8.162551950663328">
        <ele>1716.0899999999999</ele>
        <time>2014-06-02T08:37:32Z</time>
      </trkpt>
      <trkpt lat="46.129326671361923" lon="8.162570893764496">
        <ele>1717.53</ele>
        <time>2014-06-02T08:37:50Z</time>
      </trkpt>
      <trkpt lat="46.129196500405669" lon="8.162573324516416">
        <ele>1718.49</ele>
        <time>2014-06-02T08:38:08Z</time>
      </trkpt>
      <trkpt lat="46.129050822928548" lon="8.162604169920087">
        <ele>1719.9400000000001</ele>
        <time>2014-06-02T08:38:19Z</time>
      </trkpt>
      <trkpt lat="46.128910426050425" lon="8.162617161870003">
        <ele>1720.9000000000001</ele>
        <time>2014-06-02T08:38:31Z</time>
      </trkpt>
      <trkpt lat="46.128894332796335" lon="8.162618167698383">
        <ele>1721.3800000000001</ele>
        <time>2014-06-02T08:38:32Z</time>
      </trkpt>
      <trkpt lat="46.128784446045756" lon="8.162596542388201">
        <ele>1724.26</ele>
        <time>2014-06-02T08:38:42Z</time>
      </trkpt>
      <trkpt lat="46.128764916211367" lon="8.162586819380522">
        <ele>1724.74</ele>
        <time>2014-06-02T08:38:44Z</time>
      </trkpt>
      <trkpt lat="46.128714876249433" lon="8.162553543224931">
        <ele>1726.1800000000001</ele>
        <time>2014-06-02T08:38:53Z</time>
      </trkpt>
      <trkpt lat="46.128697609528899" lon="8.162562260404229">
        <ele>1725.7</ele>
        <time>2014-06-02T08:38:55Z</time>
      </trkpt>
      <trkpt lat="46.128687299787998" lon="8.162587657570839">
        <ele>1725.7</ele>
        <time>2014-06-02T08:38:57Z</time>
      </trkpt>
      <trkpt lat="46.128682354465127" lon="8.162602242082357">
        <ele>1725.7</ele>
        <time>2014-06-02T08:38:58Z</time>
      </trkpt>
      <trkpt lat="46.12867321819067" lon="8.162611713632941">
        <ele>1726.1800000000001</ele>
        <time>2014-06-02T08:38:59Z</time>
      </trkpt>
      <trkpt lat="46.128538437187672" lon="8.162665944546461">
        <ele>1727.1500000000001</ele>
        <time>2014-06-02T08:39:13Z</time>
      </trkpt>
      <trkpt lat="46.128426203504205" lon="8.162701483815908">
        <ele>1728.5899999999999</ele>
        <time>2014-06-02T08:39:27Z</time>
      </trkpt>
      <trkpt lat="46.128307683393359" lon="8.162745488807559">
        <ele>1729.0699999999999</ele>
        <time>2014-06-02T08:39:40Z</time>
      </trkpt>
      <trkpt lat="46.128190420567989" lon="8.162785470485687">
        <ele>1729.55</ele>
        <time>2014-06-02T08:39:53Z</time>
      </trkpt>
      <trkpt lat="46.12810785882175" lon="8.162840707227588">
        <ele>1729.0699999999999</ele>
        <time>2014-06-02T08:40:02Z</time>
      </trkpt>
      <trkpt lat="46.127987746149302" lon="8.162869373336434">
        <ele>1730.99</ele>
        <time>2014-06-02T08:40:15Z</time>
      </trkpt>
      <trkpt lat="46.127840308472514" lon="8.1628901604563">
        <ele>1731.47</ele>
        <time>2014-06-02T08:40:30Z</time>
      </trkpt>
      <trkpt lat="46.127828992903233" lon="8.162888064980507">
        <ele>1730.99</ele>
        <time>2014-06-02T08:40:31Z</time>
      </trkpt>
      <trkpt lat="46.127817342057824" lon="8.162887394428253">
        <ele>1731.47</ele>
        <time>2014-06-02T08:40:32Z</time>
      </trkpt>
      <trkpt lat="46.127805439755321" lon="8.16288479603827">
        <ele>1730.99</ele>
        <time>2014-06-02T08:40:33Z</time>
      </trkpt>
      <trkpt lat="46.127690356224775" lon="8.162802485749126">
        <ele>1733.3900000000001</ele>
        <time>2014-06-02T08:40:49Z</time>
      </trkpt>
      <trkpt lat="46.127608716487885" lon="8.162766359746456">
        <ele>1735.3199999999999</ele>
        <time>2014-06-02T08:41:04Z</time>
      </trkpt>
      <trkpt lat="46.127558425068855" lon="8.162845065817237">
        <ele>1737.72</ele>
        <time>2014-06-02T08:41:19Z</time>
      </trkpt>
      <trkpt lat="46.127522801980376" lon="8.162893177941442">
        <ele>1739.6400000000001</ele>
        <time>2014-06-02T08:41:33Z</time>
      </trkpt>
      <trkpt lat="46.127430014312267" lon="8.162954449653626">
        <ele>1740.5999999999999</ele>
        <time>2014-06-02T08:41:46Z</time>
      </trkpt>
      <trkpt lat="46.127409227192402" lon="8.163041286170483">
        <ele>1741.0799999999999</ele>
        <time>2014-06-02T08:41:53Z</time>
      </trkpt>
      <trkpt lat="46.127405790612102" lon="8.163057127967477">
        <ele>1741.0799999999999</ele>
        <time>2014-06-02T08:41:54Z</time>
      </trkpt>
      <trkpt lat="46.127363881096244" lon="8.163202302530408">
        <ele>1742.53</ele>
        <time>2014-06-02T08:42:08Z</time>
      </trkpt>
      <trkpt lat="46.127278469502926" lon="8.163330545648933">
        <ele>1743.49</ele>
        <time>2014-06-02T08:42:22Z</time>
      </trkpt>
      <trkpt lat="46.127257850021124" lon="8.163352925330401">
        <ele>1743.97</ele>
        <time>2014-06-02T08:42:24Z</time>
      </trkpt>
      <trkpt lat="46.127175623551011" lon="8.163431044667959">
        <ele>1744.45</ele>
        <time>2014-06-02T08:42:35Z</time>
      </trkpt>
      <trkpt lat="46.127043273299932" lon="8.163459291681647">
        <ele>1746.8499999999999</ele>
        <time>2014-06-02T08:42:51Z</time>
      </trkpt>
      <trkpt lat="46.127013014629483" lon="8.163456274196506">
        <ele>1747.8099999999999</ele>
        <time>2014-06-02T08:42:54Z</time>
      </trkpt>
      <trkpt lat="46.126907737925649" lon="8.1634530890733">
        <ele>1749.74</ele>
        <time>2014-06-02T08:43:06Z</time>
      </trkpt>
      <trkpt lat="46.126842275261879" lon="8.163410509005189">
        <ele>1751.1800000000001</ele>
        <time>2014-06-02T08:43:16Z</time>
      </trkpt>
      <trkpt lat="46.126775136217475" lon="8.163406066596508">
        <ele>1752.6199999999999</ele>
        <time>2014-06-02T08:43:28Z</time>
      </trkpt>
      <trkpt lat="46.126713529229164" lon="8.163447640836239">
        <ele>1755.02</ele>
        <time>2014-06-02T08:43:43Z</time>
      </trkpt>
      <trkpt lat="46.126670781522989" lon="8.163434732705355">
        <ele>1756.47</ele>
        <time>2014-06-02T08:43:54Z</time>
      </trkpt>
      <trkpt lat="46.126636331900954" lon="8.163452502340078">
        <ele>1757.9100000000001</ele>
        <time>2014-06-02T08:44:00Z</time>
      </trkpt>
      <trkpt lat="46.126549830660224" lon="8.16345895640552">
        <ele>1759.3499999999999</ele>
        <time>2014-06-02T08:44:12Z</time>
      </trkpt>
      <trkpt lat="46.126478081569076" lon="8.163431966677308">
        <ele>1761.27</ele>
        <time>2014-06-02T08:44:23Z</time>
      </trkpt>
      <trkpt lat="46.126417731866241" lon="8.16340858116746">
        <ele>1763.2</ele>
        <time>2014-06-02T08:44:39Z</time>
      </trkpt>
      <trkpt lat="46.126367105171084" lon="8.163383770734072">
        <ele>1765.5999999999999</ele>
        <time>2014-06-02T08:44:51Z</time>
      </trkpt>
      <trkpt lat="46.126336259767413" lon="8.163371700793505">
        <ele>1766.5599999999999</ele>
        <time>2014-06-02T08:45:01Z</time>
      </trkpt>
      <trkpt lat="46.126293512061238" lon="8.163312692195177">
        <ele>1769.4400000000001</ele>
        <time>2014-06-02T08:45:14Z</time>
      </trkpt>
      <trkpt lat="46.126293176785111" lon="8.163294503465295">
        <ele>1769.9200000000001</ele>
        <time>2014-06-02T08:45:16Z</time>
      </trkpt>
      <trkpt lat="46.126369871199131" lon="8.163209846243262">
        <ele>1772.3299999999999</ele>
        <time>2014-06-02T08:45:30Z</time>
      </trkpt>
      <trkpt lat="46.126414630562067" lon="8.163188556209207">
        <ele>1774.25</ele>
        <time>2014-06-02T08:45:45Z</time>
      </trkpt>
      <trkpt lat="46.126377498731017" lon="8.163182185962796">
        <ele>1776.1700000000001</ele>
        <time>2014-06-02T08:45:58Z</time>
      </trkpt>
      <trkpt lat="46.126328213140368" lon="8.163149915635586">
        <ele>1779.0599999999999</ele>
        <time>2014-06-02T08:46:11Z</time>
      </trkpt>
      <trkpt lat="46.126285633072257" lon="8.163094175979495">
        <ele>1780.98</ele>
        <time>2014-06-02T08:46:25Z</time>
      </trkpt>
      <trkpt lat="46.126236179843545" lon="8.16299619153142">
        <ele>1783.8599999999999</ele>
        <time>2014-06-02T08:46:41Z</time>
      </trkpt>
      <trkpt lat="46.126196449622512" lon="8.162896363064647">
        <ele>1786.27</ele>
        <time>2014-06-02T08:46:58Z</time>
      </trkpt>
      <trkpt lat="46.126178679987788" lon="8.162772729992867">
        <ele>1788.6700000000001</ele>
        <time>2014-06-02T08:47:13Z</time>
      </trkpt>
      <trkpt lat="46.126147415488958" lon="8.162637948989868">
        <ele>1790.1099999999999</ele>
        <time>2014-06-02T08:47:28Z</time>
      </trkpt>
      <trkpt lat="46.126118414103985" lon="8.162522362545133">
        <ele>1791.55</ele>
        <time>2014-06-02T08:47:42Z</time>
      </trkpt>
      <trkpt lat="46.126062087714672" lon="8.162435106933117">
        <ele>1793.48</ele>
        <time>2014-06-02T08:47:59Z</time>
      </trkpt>
      <trkpt lat="46.126062925904989" lon="8.16234047524631">
        <ele>1794.9200000000001</ele>
        <time>2014-06-02T08:48:17Z</time>
      </trkpt>
      <trkpt lat="46.126039121299982" lon="8.16230233758688">
        <ele>1795.4000000000001</ele>
        <time>2014-06-02T08:48:32Z</time>
      </trkpt>
      <trkpt lat="46.126014646142721" lon="8.162277108058333">
        <ele>1795.4000000000001</ele>
        <time>2014-06-02T08:48:49Z</time>
      </trkpt>
      <trkpt lat="46.125989332795143" lon="8.162204520776868">
        <ele>1796.3599999999999</ele>
        <time>2014-06-02T08:49:02Z</time>
      </trkpt>
      <trkpt lat="46.12595739774406" lon="8.162137297913432">
        <ele>1797.3199999999999</ele>
        <time>2014-06-02T08:49:16Z</time>
      </trkpt>
      <trkpt lat="46.125934682786465" lon="8.162073930725455">
        <ele>1798.28</ele>
        <time>2014-06-02T08:49:21Z</time>
      </trkpt>
      <trkpt lat="46.125887995585799" lon="8.161936299875379">
        <ele>1800.6900000000001</ele>
        <time>2014-06-02T08:49:35Z</time>
      </trkpt>
      <trkpt lat="46.125842146575451" lon="8.161839572712779">
        <ele>1803.0899999999999</ele>
        <time>2014-06-02T08:49:48Z</time>
      </trkpt>
      <trkpt lat="46.125794285908341" lon="8.161756340414286">
        <ele>1805.49</ele>
        <time>2014-06-02T08:50:02Z</time>
      </trkpt>
      <trkpt lat="46.12575463950634" lon="8.161628097295761">
        <ele>1807.4200000000001</ele>
        <time>2014-06-02T08:50:18Z</time>
      </trkpt>
      <trkpt lat="46.125730080530047" lon="8.161530112847686">
        <ele>1810.3</ele>
        <time>2014-06-02T08:50:33Z</time>
      </trkpt>
      <trkpt lat="46.125724799931049" lon="8.161527514457703">
        <ele>1810.3</ele>
        <time>2014-06-02T08:50:34Z</time>
      </trkpt>
      <trkpt lat="46.125678783282638" lon="8.161490969359875">
        <ele>1812.7</ele>
        <time>2014-06-02T08:50:46Z</time>
      </trkpt>
      <trkpt lat="46.125673335045576" lon="8.161404971033335">
        <ele>1814.6300000000001</ele>
        <time>2014-06-02T08:51:00Z</time>
      </trkpt>
      <trkpt lat="46.125644249841571" lon="8.161358954384923">
        <ele>1816.0699999999999</ele>
        <time>2014-06-02T08:51:12Z</time>
      </trkpt>
      <trkpt lat="46.125568645074964" lon="8.161251246929169">
        <ele>1817.99</ele>
        <time>2014-06-02T08:51:26Z</time>
      </trkpt>
      <trkpt lat="46.125543750822544" lon="8.161092074587941">
        <ele>1820.3900000000001</ele>
        <time>2014-06-02T08:51:43Z</time>
      </trkpt>
      <trkpt lat="46.125504272058606" lon="8.161014039069414">
        <ele>1822.8</ele>
        <time>2014-06-02T08:51:57Z</time>
      </trkpt>
      <trkpt lat="46.125470073893666" lon="8.160916222259402">
        <ele>1824.24</ele>
        <time>2014-06-02T08:52:11Z</time>
      </trkpt>
      <trkpt lat="46.125425146892667" lon="8.160800719633699">
        <ele>1826.1600000000001</ele>
        <time>2014-06-02T08:52:26Z</time>
      </trkpt>
      <trkpt lat="46.125389607623219" lon="8.160712206736207">
        <ele>1828.0799999999999</ele>
        <time>2014-06-02T08:52:40Z</time>
      </trkpt>
      <trkpt lat="46.12537401728332" lon="8.160653365775943">
        <ele>1829.05</ele>
        <time>2014-06-02T08:52:55Z</time>
      </trkpt>
      <trkpt lat="46.125304950401187" lon="8.16059410572052">
        <ele>1830.97</ele>
        <time>2014-06-02T08:53:11Z</time>
      </trkpt>
      <trkpt lat="46.125291036441922" lon="8.160605002194643">
        <ele>1831.45</ele>
        <time>2014-06-02T08:53:24Z</time>
      </trkpt>
      <trkpt lat="46.125231357291341" lon="8.160546161234379">
        <ele>1833.3699999999999</ele>
        <time>2014-06-02T08:53:42Z</time>
      </trkpt>
      <trkpt lat="46.125142676755786" lon="8.160498887300491">
        <ele>1836.26</ele>
        <time>2014-06-02T08:53:57Z</time>
      </trkpt>
      <trkpt lat="46.125091798603535" lon="8.160468209534884">
        <ele>1838.6600000000001</ele>
        <time>2014-06-02T08:54:13Z</time>
      </trkpt>
      <trkpt lat="46.12506321631372" lon="8.160384139046073">
        <ele>1841.0599999999999</ele>
        <time>2014-06-02T08:54:27Z</time>
      </trkpt>
      <trkpt lat="46.125062964856625" lon="8.160347677767277">
        <ele>1842.5</ele>
        <time>2014-06-02T08:54:41Z</time>
      </trkpt>
      <trkpt lat="46.125081153586507" lon="8.160288920626044">
        <ele>1843.95</ele>
        <time>2014-06-02T08:54:54Z</time>
      </trkpt>
      <trkpt lat="46.12508375197649" lon="8.160230498760939">
        <ele>1845.3900000000001</ele>
        <time>2014-06-02T08:55:04Z</time>
      </trkpt>
      <trkpt lat="46.125084506347775" lon="8.160205688327551">
        <ele>1845.8699999999999</ele>
        <time>2014-06-02T08:55:21Z</time>
      </trkpt>
      <trkpt lat="46.125092720612884" lon="8.160173334181309">
        <ele>1845.8699999999999</ele>
        <time>2014-06-02T08:55:28Z</time>
      </trkpt>
      <trkpt lat="46.125084757804871" lon="8.160206191241741">
        <ele>1845.8699999999999</ele>
        <time>2014-06-02T08:55:38Z</time>
      </trkpt>
      <trkpt lat="46.125078219920397" lon="8.160229828208685">
        <ele>1845.8699999999999</ele>
        <time>2014-06-02T08:56:03Z</time>
      </trkpt>
      <trkpt lat="46.125033628195524" lon="8.160279281437397">
        <ele>1846.3499999999999</ele>
        <time>2014-06-02T08:56:19Z</time>
      </trkpt>
      <trkpt lat="46.124976966530085" lon="8.160230666399002">
        <ele>1846.8299999999999</ele>
        <time>2014-06-02T08:56:33Z</time>
      </trkpt>
      <trkpt lat="46.124996747821569" lon="8.160264026373625">
        <ele>1847.3099999999999</ele>
        <time>2014-06-02T08:56:57Z</time>
      </trkpt>
      <trkpt lat="46.125009572133422" lon="8.16026478074491">
        <ele>1846.8299999999999</ele>
        <time>2014-06-02T08:57:01Z</time>
      </trkpt>
      <trkpt lat="46.125009069219232" lon="8.160275677219033">
        <ele>1846.3499999999999</ele>
        <time>2014-06-02T08:57:10Z</time>
      </trkpt>
      <trkpt lat="46.125008314847946" lon="8.160288417711854">
        <ele>1846.3499999999999</ele>
        <time>2014-06-02T08:57:50Z</time>
      </trkpt>
      <trkpt lat="46.124995155259967" lon="8.160289004445076">
        <ele>1845.8699999999999</ele>
        <time>2014-06-02T08:58:29Z</time>
      </trkpt>
      <trkpt lat="46.124992053955793" lon="8.160297302529216">
        <ele>1846.3499999999999</ele>
        <time>2014-06-02T08:59:13Z</time>
      </trkpt>
      <trkpt lat="46.1249865218997" lon="8.160272240638733">
        <ele>1846.3499999999999</ele>
        <time>2014-06-02T09:00:04Z</time>
      </trkpt>
      <trkpt lat="46.124994736164808" lon="8.160256817936897">
        <ele>1846.3499999999999</ele>
        <time>2014-06-02T09:00:51Z</time>
      </trkpt>
      <trkpt lat="46.124995490536094" lon="8.160260254517198">
        <ele>1846.3499999999999</ele>
        <time>2014-06-02T09:01:41Z</time>
      </trkpt>
      <trkpt lat="46.124993311241269" lon="8.160264613106847">
        <ele>1846.3499999999999</ele>
        <time>2014-06-02T09:02:25Z</time>
      </trkpt>
      <trkpt lat="46.124976379796863" lon="8.160278778523207">
        <ele>1846.3499999999999</ele>
        <time>2014-06-02T09:03:09Z</time>
      </trkpt>
      <trkpt lat="46.124978056177497" lon="8.160282969474793">
        <ele>1846.3499999999999</ele>
        <time>2014-06-02T09:03:57Z</time>
      </trkpt>
      <trkpt lat="46.12499481998384" lon="8.160252207890153">
        <ele>1846.3499999999999</ele>
        <time>2014-06-02T09:04:50Z</time>
      </trkpt>
      <trkpt lat="46.12500655464828" lon="8.160239802673459">
        <ele>1846.3499999999999</ele>
        <time>2014-06-02T09:05:28Z</time>
      </trkpt>
      <trkpt lat="46.124995825812221" lon="8.16027307882905">
        <ele>1846.8299999999999</ele>
        <time>2014-06-02T09:06:16Z</time>
      </trkpt>
      <trkpt lat="46.124991131946445" lon="8.160248687490821">
        <ele>1846.8299999999999</ele>
        <time>2014-06-02T09:06:50Z</time>
      </trkpt>
      <trkpt lat="46.124994987621903" lon="8.160275090485811">
        <ele>1846.8299999999999</ele>
        <time>2014-06-02T09:07:22Z</time>
      </trkpt>
      <trkpt lat="46.12498258240521" lon="8.160269139334559">
        <ele>1846.8299999999999</ele>
        <time>2014-06-02T09:08:04Z</time>
      </trkpt>
      <trkpt lat="46.124968165531754" lon="8.160251034423709">
        <ele>1846.8299999999999</ele>
        <time>2014-06-02T09:08:43Z</time>
      </trkpt>
      <trkpt lat="46.124978139996529" lon="8.160267798230052">
        <ele>1846.8299999999999</ele>
        <time>2014-06-02T09:09:27Z</time>
      </trkpt>
      <trkpt lat="46.124946121126413" lon="8.160271234810352">
        <ele>1847.3099999999999</ele>
        <time>2014-06-02T09:10:13Z</time>
      </trkpt>
      <trkpt lat="46.124927261844277" lon="8.160256901755929">
        <ele>1847.3099999999999</ele>
        <time>2014-06-02T09:11:00Z</time>
      </trkpt>
      <trkpt lat="46.124922735616565" lon="8.16024768166244">
        <ele>1847.3099999999999</ele>
        <time>2014-06-02T09:11:40Z</time>
      </trkpt>
      <trkpt lat="46.124944444745779" lon="8.160262266173959">
        <ele>1847.3099999999999</ele>
        <time>2014-06-02T09:12:13Z</time>
      </trkpt>
      <trkpt lat="46.124940421432257" lon="8.160259919241071">
        <ele>1847.3099999999999</ele>
        <time>2014-06-02T09:12:54Z</time>
      </trkpt>
      <trkpt lat="46.124952575191855" lon="8.160267295315862">
        <ele>1847.3099999999999</ele>
        <time>2014-06-02T09:13:38Z</time>
      </trkpt>
      <trkpt lat="46.124976128339767" lon="8.160263439640403">
        <ele>1847.79</ele>
        <time>2014-06-02T09:14:10Z</time>
      </trkpt>
      <trkpt lat="46.12500261515379" lon="8.160280119627714">
        <ele>1848.27</ele>
        <time>2014-06-02T09:14:32Z</time>
      </trkpt>
      <trkpt lat="46.125001106411219" lon="8.160261679440737">
        <ele>1848.75</ele>
        <time>2014-06-02T09:14:46Z</time>
      </trkpt>
      <trkpt lat="46.124985851347446" lon="8.16025648266077">
        <ele>1848.75</ele>
        <time>2014-06-02T09:15:11Z</time>
      </trkpt>
      <trkpt lat="46.125013176351786" lon="8.160220021381974">
        <ele>1848.75</ele>
        <time>2014-06-02T09:15:23Z</time>
      </trkpt>
      <trkpt lat="46.125025916844606" lon="8.160220189020038">
        <ele>1848.27</ele>
        <time>2014-06-02T09:15:24Z</time>
      </trkpt>
      <trkpt lat="46.125066904351115" lon="8.160237539559603">
        <ele>1847.79</ele>
        <time>2014-06-02T09:15:39Z</time>
      </trkpt>
      <trkpt lat="46.125051565468311" lon="8.160215830430389">
        <ele>1847.79</ele>
        <time>2014-06-02T09:15:58Z</time>
      </trkpt>
      <trkpt lat="46.125113843008876" lon="8.160141315311194">
        <ele>1847.3099999999999</ele>
        <time>2014-06-02T09:16:12Z</time>
      </trkpt>
      <trkpt lat="46.125186262652278" lon="8.16008884459734">
        <ele>1848.75</ele>
        <time>2014-06-02T09:16:24Z</time>
      </trkpt>
      <trkpt lat="46.125278631225228" lon="8.159996476024389">
        <ele>1848.27</ele>
        <time>2014-06-02T09:16:37Z</time>
      </trkpt>
      <trkpt lat="46.125393882393837" lon="8.159916931763291">
        <ele>1849.71</ele>
        <time>2014-06-02T09:16:53Z</time>
      </trkpt>
      <trkpt lat="46.125476863235235" lon="8.159841746091843">
        <ele>1852.1199999999999</ele>
        <time>2014-06-02T09:17:08Z</time>
      </trkpt>
      <trkpt lat="46.125552970916033" lon="8.159775277599692">
        <ele>1854.52</ele>
        <time>2014-06-02T09:17:23Z</time>
      </trkpt>
      <trkpt lat="46.125625558197498" lon="8.159713670611382">
        <ele>1857.4000000000001</ele>
        <time>2014-06-02T09:17:38Z</time>
      </trkpt>
      <trkpt lat="46.125653637573123" lon="8.159662708640099">
        <ele>1858.3699999999999</ele>
        <time>2014-06-02T09:17:44Z</time>
      </trkpt>
      <trkpt lat="46.125737288966775" lon="8.159509906545281">
        <ele>1859.3299999999999</ele>
        <time>2014-06-02T09:17:59Z</time>
      </trkpt>
      <trkpt lat="46.125824796035886" lon="8.159392727538943">
        <ele>1860.29</ele>
        <time>2014-06-02T09:18:14Z</time>
      </trkpt>
      <trkpt lat="46.125923283398151" lon="8.159272447228432">
        <ele>1860.77</ele>
        <time>2014-06-02T09:18:30Z</time>
      </trkpt>
      <trkpt lat="46.125939125195146" lon="8.159247301518917">
        <ele>1861.25</ele>
        <time>2014-06-02T09:18:33Z</time>
      </trkpt>
      <trkpt lat="46.126014646142721" lon="8.159153927117586">
        <ele>1862.21</ele>
        <time>2014-06-02T09:18:45Z</time>
      </trkpt>
      <trkpt lat="46.12607566639781" lon="8.15901922993362">
        <ele>1861.25</ele>
        <time>2014-06-02T09:18:58Z</time>
      </trkpt>
      <trkpt lat="46.126171052455902" lon="8.15887413918972">
        <ele>1861.73</ele>
        <time>2014-06-02T09:19:13Z</time>
      </trkpt>
      <trkpt lat="46.12626769579947" lon="8.158699963241816">
        <ele>1862.6900000000001</ele>
        <time>2014-06-02T09:19:30Z</time>
      </trkpt>
      <trkpt lat="46.126357382163405" lon="8.158536851406097">
        <ele>1864.6099999999999</ele>
        <time>2014-06-02T09:19:47Z</time>
      </trkpt>
      <trkpt lat="46.126408763229847" lon="8.158406261354685">
        <ele>1866.0599999999999</ele>
        <time>2014-06-02T09:20:01Z</time>
      </trkpt>
      <trkpt lat="46.126443464308977" lon="8.158258739858866">
        <ele>1867.5</ele>
        <time>2014-06-02T09:20:14Z</time>
      </trkpt>
      <trkpt lat="46.126447068527341" lon="8.158245999366045">
        <ele>1867.5</ele>
        <time>2014-06-02T09:20:15Z</time>
      </trkpt>
      <trkpt lat="46.126460479572415" lon="8.15807961858809">
        <ele>1868.9400000000001</ele>
        <time>2014-06-02T09:20:31Z</time>
      </trkpt>
      <trkpt lat="46.126477075740695" lon="8.157944334670901">
        <ele>1871.3399999999999</ele>
        <time>2014-06-02T09:20:47Z</time>
      </trkpt>
      <trkpt lat="46.126485206186771" lon="8.157798824831843">
        <ele>1873.27</ele>
        <time>2014-06-02T09:21:02Z</time>
      </trkpt>
      <trkpt lat="46.126503897830844" lon="8.157668653875589">
        <ele>1874.71</ele>
        <time>2014-06-02T09:21:17Z</time>
      </trkpt>
      <trkpt lat="46.126512531191111" lon="8.157537980005145">
        <ele>1875.6700000000001</ele>
        <time>2014-06-02T09:21:30Z</time>
      </trkpt>
      <trkpt lat="46.126494258642197" lon="8.157373275607824">
        <ele>1877.5899999999999</ele>
        <time>2014-06-02T09:21:46Z</time>
      </trkpt>
      <trkpt lat="46.126461569219828" lon="8.157236902043223">
        <ele>1878.0699999999999</ele>
        <time>2014-06-02T09:21:59Z</time>
      </trkpt>
      <trkpt lat="46.126446565613151" lon="8.157094828784466">
        <ele>1878.0699999999999</ele>
        <time>2014-06-02T09:22:11Z</time>
      </trkpt>
      <trkpt lat="46.126441033557057" lon="8.156940517947078">
        <ele>1879.03</ele>
        <time>2014-06-02T09:22:26Z</time>
      </trkpt>
      <trkpt lat="46.126445727422833" lon="8.156851250678301">
        <ele>1879.51</ele>
        <time>2014-06-02T09:22:34Z</time>
      </trkpt>
      <trkpt lat="46.126444973051548" lon="8.156836582347751">
        <ele>1879.51</ele>
        <time>2014-06-02T09:22:35Z</time>
      </trkpt>
      <trkpt lat="46.126443883404136" lon="8.156673386693001">
        <ele>1880.96</ele>
        <time>2014-06-02T09:22:52Z</time>
      </trkpt>
      <trkpt lat="46.126429298892617" lon="8.156602894887328">
        <ele>1880.48</ele>
        <time>2014-06-02T09:23:00Z</time>
      </trkpt>
      <trkpt lat="46.126414965838194" lon="8.156462162733078">
        <ele>1881.9200000000001</ele>
        <time>2014-06-02T09:23:14Z</time>
      </trkpt>
      <trkpt lat="46.126377414911985" lon="8.156272396445274">
        <ele>1882.8800000000001</ele>
        <time>2014-06-02T09:23:30Z</time>
      </trkpt>
      <trkpt lat="46.12635319121182" lon="8.15605765208602">
        <ele>1882.8800000000001</ele>
        <time>2014-06-02T09:23:48Z</time>
      </trkpt>
      <trkpt lat="46.126317149028182" lon="8.155899234116077">
        <ele>1884.8</ele>
        <time>2014-06-02T09:24:03Z</time>
      </trkpt>
      <trkpt lat="46.126289991661906" lon="8.155763866379857">
        <ele>1884.8</ele>
        <time>2014-06-02T09:24:14Z</time>
      </trkpt>
      <trkpt lat="46.126319747418165" lon="8.155617685988545">
        <ele>1885.76</ele>
        <time>2014-06-02T09:24:29Z</time>
      </trkpt>
      <trkpt lat="46.126304492354393" lon="8.155467649921775">
        <ele>1887.6900000000001</ele>
        <time>2014-06-02T09:24:46Z</time>
      </trkpt>
      <trkpt lat="46.126296278089285" lon="8.155323397368193">
        <ele>1889.6099999999999</ele>
        <time>2014-06-02T09:25:01Z</time>
      </trkpt>
      <trkpt lat="46.126302145421505" lon="8.155216863378882">
        <ele>1892.01</ele>
        <time>2014-06-02T09:25:17Z</time>
      </trkpt>
      <trkpt lat="46.12631605938077" lon="8.155126925557852">
        <ele>1895.3800000000001</ele>
        <time>2014-06-02T09:25:35Z</time>
      </trkpt>
      <trkpt lat="46.126355202868581" lon="8.155021481215954">
        <ele>1897.78</ele>
        <time>2014-06-02T09:25:50Z</time>
      </trkpt>
      <trkpt lat="46.12639476545155" lon="8.154950235038996">
        <ele>1900.6600000000001</ele>
        <time>2014-06-02T09:26:08Z</time>
      </trkpt>
      <trkpt lat="46.126385210081935" lon="8.154844036325812">
        <ele>1904.03</ele>
        <time>2014-06-02T09:26:25Z</time>
      </trkpt>
      <trkpt lat="46.126405159011483" lon="8.154762480407953">
        <ele>1905.95</ele>
        <time>2014-06-02T09:26:43Z</time>
      </trkpt>
      <trkpt lat="46.126415552571416" lon="8.154708752408624">
        <ele>1907.8699999999999</ele>
        <time>2014-06-02T09:26:57Z</time>
      </trkpt>
      <trkpt lat="46.126464754343033" lon="8.15469291061163">
        <ele>1910.28</ele>
        <time>2014-06-02T09:27:14Z</time>
      </trkpt>
      <trkpt lat="46.126488307490945" lon="8.154741274192929">
        <ele>1912.6800000000001</ele>
        <time>2014-06-02T09:27:28Z</time>
      </trkpt>
      <trkpt lat="46.126552848145366" lon="8.154766671359539">
        <ele>1915.0799999999999</ele>
        <time>2014-06-02T09:27:45Z</time>
      </trkpt>
      <trkpt lat="46.126550668850541" lon="8.154694251716137">
        <ele>1917.49</ele>
        <time>2014-06-02T09:27:59Z</time>
      </trkpt>
      <trkpt lat="46.126578664407134" lon="8.154658628627658">
        <ele>1919.8900000000001</ele>
        <time>2014-06-02T09:28:13Z</time>
      </trkpt>
      <trkpt lat="46.126613365486264" lon="8.154668100178242">
        <ele>1922.29</ele>
        <time>2014-06-02T09:28:28Z</time>
      </trkpt>
      <trkpt lat="46.126679079607129" lon="8.15472224727273">
        <ele>1924.22</ele>
        <time>2014-06-02T09:28:42Z</time>
      </trkpt>
      <trkpt lat="46.126686539500952" lon="8.154709758237004">
        <ele>1925.1800000000001</ele>
        <time>2014-06-02T09:28:56Z</time>
      </trkpt>
      <trkpt lat="46.126725850626826" lon="8.154768263921142">
        <ele>1926.6199999999999</ele>
        <time>2014-06-02T09:29:15Z</time>
      </trkpt>
      <trkpt lat="46.126730712130666" lon="8.154747560620308">
        <ele>1928.0599999999999</ele>
        <time>2014-06-02T09:29:31Z</time>
      </trkpt>
      <trkpt lat="46.126750828698277" lon="8.154740268364549">
        <ele>1928.0599999999999</ele>
        <time>2014-06-02T09:29:45Z</time>
      </trkpt>
      <trkpt lat="46.126737166196108" lon="8.154666759073734">
        <ele>1929.5</ele>
        <time>2014-06-02T09:29:58Z</time>
      </trkpt>
      <trkpt lat="46.126762898638844" lon="8.154608588665724">
        <ele>1932.3900000000001</ele>
        <time>2014-06-02T09:30:11Z</time>
      </trkpt>
      <trkpt lat="46.126755271106958" lon="8.154531894251704">
        <ele>1934.3099999999999</ele>
        <time>2014-06-02T09:30:22Z</time>
      </trkpt>
      <trkpt lat="46.126810843124986" lon="8.154511190950871">
        <ele>1937.1900000000001</ele>
        <time>2014-06-02T09:30:33Z</time>
      </trkpt>
      <trkpt lat="46.126864403486252" lon="8.154520746320486">
        <ele>1939.5999999999999</ele>
        <time>2014-06-02T09:30:47Z</time>
      </trkpt>
      <trkpt lat="46.126828696578741" lon="8.154503395780921">
        <ele>1940.0799999999999</ele>
        <time>2014-06-02T09:31:05Z</time>
      </trkpt>
      <trkpt lat="46.126865409314632" lon="8.154465593397617">
        <ele>1940.5599999999999</ele>
        <time>2014-06-02T09:31:22Z</time>
      </trkpt>
      <trkpt lat="46.1268809158355" lon="8.154371296986938">
        <ele>1943.4400000000001</ele>
        <time>2014-06-02T09:31:36Z</time>
      </trkpt>
      <trkpt lat="46.126919221132994" lon="8.154310612007976">
        <ele>1945.8499999999999</ele>
        <time>2014-06-02T09:31:52Z</time>
      </trkpt>
      <trkpt lat="46.126950569450855" lon="8.154254201799631">
        <ele>1947.29</ele>
        <time>2014-06-02T09:32:05Z</time>
      </trkpt>
      <trkpt lat="46.126953922212124" lon="8.154171891510487">
        <ele>1949.21</ele>
        <time>2014-06-02T09:32:17Z</time>
      </trkpt>
      <trkpt lat="46.126965824514627" lon="8.154159318655729">
        <ele>1950.6500000000001</ele>
        <time>2014-06-02T09:32:21Z</time>
      </trkpt>
      <trkpt lat="46.126977726817131" lon="8.154076840728521">
        <ele>1952.0899999999999</ele>
        <time>2014-06-02T09:32:35Z</time>
      </trkpt>
      <trkpt lat="46.12700454890728" lon="8.153950609266758">
        <ele>1954.5</ele>
        <time>2014-06-02T09:32:52Z</time>
      </trkpt>
      <trkpt lat="46.127055762335658" lon="8.153891349211335">
        <ele>1957.3800000000001</ele>
        <time>2014-06-02T09:33:07Z</time>
      </trkpt>
      <trkpt lat="46.127074118703604" lon="8.153758412227035">
        <ele>1958.3399999999999</ele>
        <time>2014-06-02T09:33:22Z</time>
      </trkpt>
      <trkpt lat="46.127107562497258" lon="8.153622709214687">
        <ele>1959.78</ele>
        <time>2014-06-02T09:33:36Z</time>
      </trkpt>
      <trkpt lat="46.127148466184735" lon="8.153451718389988">
        <ele>1962.1900000000001</ele>
        <time>2014-06-02T09:33:53Z</time>
      </trkpt>
      <trkpt lat="46.127139246091247" lon="8.153306040912867">
        <ele>1962.6700000000001</ele>
        <time>2014-06-02T09:34:07Z</time>
      </trkpt>
      <trkpt lat="46.127152740955353" lon="8.15317771397531">
        <ele>1963.6300000000001</ele>
        <time>2014-06-02T09:34:19Z</time>
      </trkpt>
      <trkpt lat="46.127161961048841" lon="8.153052991256118">
        <ele>1964.1099999999999</ele>
        <time>2014-06-02T09:34:32Z</time>
      </trkpt>
      <trkpt lat="46.127172019332647" lon="8.152911420911551">
        <ele>1965.0699999999999</ele>
        <time>2014-06-02T09:34:48Z</time>
      </trkpt>
      <trkpt lat="46.127213090658188" lon="8.152821147814393">
        <ele>1966.51</ele>
        <time>2014-06-02T09:35:03Z</time>
      </trkpt>
      <trkpt lat="46.127231614664197" lon="8.152765491977334">
        <ele>1967.96</ele>
        <time>2014-06-02T09:35:13Z</time>
      </trkpt>
      <trkpt lat="46.127234129235148" lon="8.152710422873497">
        <ele>1969.4000000000001</ele>
        <time>2014-06-02T09:35:24Z</time>
      </trkpt>
      <trkpt lat="46.127210995182395" lon="8.152605062350631">
        <ele>1970.3599999999999</ele>
        <time>2014-06-02T09:35:39Z</time>
      </trkpt>
      <trkpt lat="46.127189788967371" lon="8.152511520311236">
        <ele>1971.3199999999999</ele>
        <time>2014-06-02T09:35:52Z</time>
      </trkpt>
      <trkpt lat="46.127173444256186" lon="8.152414709329605">
        <ele>1972.76</ele>
        <time>2014-06-02T09:36:06Z</time>
      </trkpt>
      <trkpt lat="46.127157434821129" lon="8.152390569448471">
        <ele>1972.76</ele>
        <time>2014-06-02T09:36:16Z</time>
      </trkpt>
      <trkpt lat="46.127152824774384" lon="8.152359807863832">
        <ele>1972.76</ele>
        <time>2014-06-02T09:36:30Z</time>
      </trkpt>
      <trkpt lat="46.127168666571379" lon="8.152283867821097">
        <ele>1973.24</ele>
        <time>2014-06-02T09:36:40Z</time>
      </trkpt>
      <trkpt lat="46.127170342952013" lon="8.152271127328277">
        <ele>1973.24</ele>
        <time>2014-06-02T09:36:41Z</time>
      </trkpt>
      <trkpt lat="46.127178473398089" lon="8.152135172858834">
        <ele>1973.24</ele>
        <time>2014-06-02T09:36:52Z</time>
      </trkpt>
      <trkpt lat="46.127224154770374" lon="8.152043391019106">
        <ele>1974.6900000000001</ele>
        <time>2014-06-02T09:37:06Z</time>
      </trkpt>
      <trkpt lat="46.127265058457851" lon="8.15203232690692">
        <ele>1975.6500000000001</ele>
        <time>2014-06-02T09:37:18Z</time>
      </trkpt>
      <trkpt lat="46.127273021265864" lon="8.151964768767357">
        <ele>1976.6099999999999</ele>
        <time>2014-06-02T09:37:24Z</time>
      </trkpt>
      <trkpt lat="46.127299256622791" lon="8.151899641379714">
        <ele>1976.1300000000001</ele>
        <time>2014-06-02T09:37:36Z</time>
      </trkpt>
      <trkpt lat="46.127290120348334" lon="8.151911040768027">
        <ele>1977.0899999999999</ele>
        <time>2014-06-02T09:38:02Z</time>
      </trkpt>
      <trkpt lat="46.127317361533642" lon="8.151883883401752">
        <ele>1976.6099999999999</ele>
        <time>2014-06-02T09:38:13Z</time>
      </trkpt>
      <trkpt lat="46.127294227480888" lon="8.151882290840149">
        <ele>1977.0899999999999</ele>
        <time>2014-06-02T09:38:40Z</time>
      </trkpt>
      <trkpt lat="46.127264304086566" lon="8.151931827887893">
        <ele>1977.0899999999999</ele>
        <time>2014-06-02T09:38:51Z</time>
      </trkpt>
      <trkpt lat="46.127270422875881" lon="8.151880949735642">
        <ele>1977.5699999999999</ele>
        <time>2014-06-02T09:39:04Z</time>
      </trkpt>
      <trkpt lat="46.127256508916616" lon="8.151799645274878">
        <ele>1977.5699999999999</ele>
        <time>2014-06-02T09:39:16Z</time>
      </trkpt>
      <trkpt lat="46.127250976860523" lon="8.15178656950593">
        <ele>1977.0899999999999</ele>
        <time>2014-06-02T09:39:17Z</time>
      </trkpt>
      <trkpt lat="46.127239745110273" lon="8.151734601706266">
        <ele>1977.0899999999999</ele>
        <time>2014-06-02T09:39:22Z</time>
      </trkpt>
      <trkpt lat="46.127224490046501" lon="8.151619518175721">
        <ele>1979.01</ele>
        <time>2014-06-02T09:39:33Z</time>
      </trkpt>
      <trkpt lat="46.127220885828137" lon="8.151607196778059">
        <ele>1979.01</ele>
        <time>2014-06-02T09:39:34Z</time>
      </trkpt>
      <trkpt lat="46.1272107437253" lon="8.151578698307276">
        <ele>1979.01</ele>
        <time>2014-06-02T09:39:36Z</time>
      </trkpt>
      <trkpt lat="46.127211079001427" lon="8.151457328349352">
        <ele>1980.9300000000001</ele>
        <time>2014-06-02T09:39:49Z</time>
      </trkpt>
      <trkpt lat="46.127201272174716" lon="8.151342831552029">
        <ele>1982.8599999999999</ele>
        <time>2014-06-02T09:40:02Z</time>
      </trkpt>
      <trkpt lat="46.127185681834817" lon="8.151240153238177">
        <ele>1984.3</ele>
        <time>2014-06-02T09:40:14Z</time>
      </trkpt>
      <trkpt lat="46.127163134515285" lon="8.151162033900619">
        <ele>1986.7</ele>
        <time>2014-06-02T09:40:27Z</time>
      </trkpt>
      <trkpt lat="46.127144610509276" lon="8.151105456054211">
        <ele>1987.1800000000001</ele>
        <time>2014-06-02T09:40:43Z</time>
      </trkpt>
      <trkpt lat="46.127154333516955" lon="8.151017865166068">
        <ele>1990.55</ele>
        <time>2014-06-02T09:40:56Z</time>
      </trkpt>
      <trkpt lat="46.127103455364704" lon="8.150934046134353">
        <ele>1992.47</ele>
        <time>2014-06-02T09:41:09Z</time>
      </trkpt>
      <trkpt lat="46.127141593024135" lon="8.150853160768747">
        <ele>1994.3900000000001</ele>
        <time>2014-06-02T09:41:23Z</time>
      </trkpt>
      <trkpt lat="46.127169085666537" lon="8.150816112756729">
        <ele>1996.3199999999999</ele>
        <time>2014-06-02T09:41:36Z</time>
      </trkpt>
      <trkpt lat="46.127151232212782" lon="8.15074922516942">
        <ele>1998.72</ele>
        <time>2014-06-02T09:41:54Z</time>
      </trkpt>
      <trkpt lat="46.12715165130794" lon="8.150634309276938">
        <ele>2000.6400000000001</ele>
        <time>2014-06-02T09:42:08Z</time>
      </trkpt>
      <trkpt lat="46.12719951197505" lon="8.150516962632537">
        <ele>2003.04</ele>
        <time>2014-06-02T09:42:22Z</time>
      </trkpt>
      <trkpt lat="46.127227339893579" lon="8.150451416149736">
        <ele>2005.45</ele>
        <time>2014-06-02T09:42:34Z</time>
      </trkpt>
      <trkpt lat="46.127242092043161" lon="8.150377571582794">
        <ele>2006.4100000000001</ele>
        <time>2014-06-02T09:42:49Z</time>
      </trkpt>
      <trkpt lat="46.127289952710271" lon="8.150324933230877">
        <ele>2007.8499999999999</ele>
        <time>2014-06-02T09:43:06Z</time>
      </trkpt>
      <trkpt lat="46.127331526950002" lon="8.150314707309008">
        <ele>2008.8099999999999</ele>
        <time>2014-06-02T09:43:11Z</time>
      </trkpt>
      <trkpt lat="46.127336723729968" lon="8.15029333345592">
        <ele>2008.3299999999999</ele>
        <time>2014-06-02T09:43:13Z</time>
      </trkpt>
      <trkpt lat="46.127338232472539" lon="8.150278246030211">
        <ele>2008.3299999999999</ele>
        <time>2014-06-02T09:43:14Z</time>
      </trkpt>
      <trkpt lat="46.127408389002085" lon="8.150109350681305">
        <ele>2008.8099999999999</ele>
        <time>2014-06-02T09:43:28Z</time>
      </trkpt>
      <trkpt lat="46.127415429800749" lon="8.150097448378801">
        <ele>2008.8099999999999</ele>
        <time>2014-06-02T09:43:29Z</time>
      </trkpt>
      <trkpt lat="46.127436552196741" lon="8.150088060647249">
        <ele>2008.8099999999999</ele>
        <time>2014-06-02T09:43:31Z</time>
      </trkpt>
      <trkpt lat="46.127449292689562" lon="8.150036679580808">
        <ele>2008.8099999999999</ele>
        <time>2014-06-02T09:43:35Z</time>
      </trkpt>
      <trkpt lat="46.127453483641148" lon="8.150022095069289">
        <ele>2008.8099999999999</ele>
        <time>2014-06-02T09:43:36Z</time>
      </trkpt>
      <trkpt lat="46.127457590773702" lon="8.150009857490659">
        <ele>2008.8099999999999</ele>
        <time>2014-06-02T09:43:37Z</time>
      </trkpt>
      <trkpt lat="46.127461111173034" lon="8.149994853883982">
        <ele>2008.8099999999999</ele>
        <time>2014-06-02T09:43:38Z</time>
      </trkpt>
      <trkpt lat="46.127470247447491" lon="8.149983119219542">
        <ele>2008.8099999999999</ele>
        <time>2014-06-02T09:43:39Z</time>
      </trkpt>
      <trkpt lat="46.127481730654836" lon="8.149975407868624">
        <ele>2008.3299999999999</ele>
        <time>2014-06-02T09:43:40Z</time>
      </trkpt>
      <trkpt lat="46.127506038174033" lon="8.149927631020546">
        <ele>2008.3299999999999</ele>
        <time>2014-06-02T09:43:45Z</time>
      </trkpt>
      <trkpt lat="46.127512995153666" lon="8.149902652949095">
        <ele>2007.8499999999999</ele>
        <time>2014-06-02T09:43:47Z</time>
      </trkpt>
      <trkpt lat="46.127568650990725" lon="8.149841632694006">
        <ele>2008.3299999999999</ele>
        <time>2014-06-02T09:44:00Z</time>
      </trkpt>
      <trkpt lat="46.127613494172692" lon="8.149773823097348">
        <ele>2010.25</ele>
        <time>2014-06-02T09:44:13Z</time>
      </trkpt>
      <trkpt lat="46.127660097554326" lon="8.149766027927399">
        <ele>2012.1800000000001</ele>
        <time>2014-06-02T09:44:24Z</time>
      </trkpt>
      <trkpt lat="46.127679543569684" lon="8.14968204125762">
        <ele>2015.0599999999999</ele>
        <time>2014-06-02T09:44:37Z</time>
      </trkpt>
      <trkpt lat="46.127677615731955" lon="8.14961020834744">
        <ele>2018.4300000000001</ele>
        <time>2014-06-02T09:44:50Z</time>
      </trkpt>
      <trkpt lat="46.127665210515261" lon="8.14953544177115">
        <ele>2020.3499999999999</ele>
        <time>2014-06-02T09:45:01Z</time>
      </trkpt>
      <trkpt lat="46.127687506377697" lon="8.149544829502702">
        <ele>2020.8299999999999</ele>
        <time>2014-06-02T09:45:14Z</time>
      </trkpt>
      <trkpt lat="46.127685662358999" lon="8.14944064244628">
        <ele>2021.79</ele>
        <time>2014-06-02T09:45:27Z</time>
      </trkpt>
      <trkpt lat="46.127691194415092" lon="8.149313824251294">
        <ele>2023.71</ele>
        <time>2014-06-02T09:45:39Z</time>
      </trkpt>
      <trkpt lat="46.12768080085516" lon="8.149291276931763">
        <ele>2024.1900000000001</ele>
        <time>2014-06-02T09:46:00Z</time>
      </trkpt>
      <trkpt lat="46.127718603238463" lon="8.149197231978178">
        <ele>2026.1199999999999</ele>
        <time>2014-06-02T09:46:12Z</time>
      </trkpt>
      <trkpt lat="46.127720531076193" lon="8.149181054905057">
        <ele>2026.1199999999999</ele>
        <time>2014-06-02T09:46:13Z</time>
      </trkpt>
      <trkpt lat="46.127727404236794" lon="8.149167727679014">
        <ele>2025.6400000000001</ele>
        <time>2014-06-02T09:46:14Z</time>
      </trkpt>
      <trkpt lat="46.127752717584372" lon="8.149053566157818">
        <ele>2027.0799999999999</ele>
        <time>2014-06-02T09:46:29Z</time>
      </trkpt>
      <trkpt lat="46.127749616280198" lon="8.149037808179855">
        <ele>2027.0799999999999</ele>
        <time>2014-06-02T09:46:30Z</time>
      </trkpt>
      <trkpt lat="46.127747856080532" lon="8.149022720754147">
        <ele>2027.0799999999999</ele>
        <time>2014-06-02T09:46:31Z</time>
      </trkpt>
      <trkpt lat="46.127745844423771" lon="8.149007298052311">
        <ele>2027.0799999999999</ele>
        <time>2014-06-02T09:46:32Z</time>
      </trkpt>
      <trkpt lat="46.127801584079862" lon="8.148940075188875">
        <ele>2028.04</ele>
        <time>2014-06-02T09:46:46Z</time>
      </trkpt>
      <trkpt lat="46.127795297652483" lon="8.148774281144142">
        <ele>2029.96</ele>
        <time>2014-06-02T09:47:00Z</time>
      </trkpt>
      <trkpt lat="46.127810971811414" lon="8.148676967248321">
        <ele>2030.9200000000001</ele>
        <time>2014-06-02T09:47:07Z</time>
      </trkpt>
      <trkpt lat="46.127832680940628" lon="8.148476639762521">
        <ele>2031.8800000000001</ele>
        <time>2014-06-02T09:47:21Z</time>
      </trkpt>
      <trkpt lat="46.12789680249989" lon="8.148358790203929">
        <ele>2033.3299999999999</ele>
        <time>2014-06-02T09:47:31Z</time>
      </trkpt>
      <trkpt lat="46.127914572134614" lon="8.148319562897086">
        <ele>2033.8099999999999</ele>
        <time>2014-06-02T09:47:35Z</time>
      </trkpt>
      <trkpt lat="46.127954469993711" lon="8.14820347353816">
        <ele>2036.21</ele>
        <time>2014-06-02T09:47:48Z</time>
      </trkpt>
      <trkpt lat="46.128007946535945" lon="8.148063998669386">
        <ele>2038.1300000000001</ele>
        <time>2014-06-02T09:48:02Z</time>
      </trkpt>
      <trkpt lat="46.12804239615798" lon="8.147932989522815">
        <ele>2039.5699999999999</ele>
        <time>2014-06-02T09:48:14Z</time>
      </trkpt>
      <trkpt lat="46.128072571009398" lon="8.147850008681417">
        <ele>2040.54</ele>
        <time>2014-06-02T09:48:26Z</time>
      </trkpt>
      <trkpt lat="46.128077767789364" lon="8.147819666191936">
        <ele>2041.02</ele>
        <time>2014-06-02T09:48:42Z</time>
      </trkpt>
      <trkpt lat="46.128063602373004" lon="8.147759148851037">
        <ele>2041.02</ele>
        <time>2014-06-02T09:48:51Z</time>
      </trkpt>
      <trkpt lat="46.128025883808732" lon="8.147683208808303">
        <ele>2040.54</ele>
        <time>2014-06-02T09:49:05Z</time>
      </trkpt>
      <trkpt lat="46.128014652058482" lon="8.147572316229343">
        <ele>2041.98</ele>
        <time>2014-06-02T09:49:20Z</time>
      </trkpt>
      <trkpt lat="46.128006856888533" lon="8.14750081859529">
        <ele>2042.9400000000001</ele>
        <time>2014-06-02T09:49:32Z</time>
      </trkpt>
      <trkpt lat="46.127997888252139" lon="8.147400990128517">
        <ele>2045.8199999999999</ele>
        <time>2014-06-02T09:49:44Z</time>
      </trkpt>
      <trkpt lat="46.128003504127264" lon="8.14729948528111">
        <ele>2047.26</ele>
        <time>2014-06-02T09:49:55Z</time>
      </trkpt>
      <trkpt lat="46.128023788332939" lon="8.147205440327525">
        <ele>2048.71</ele>
        <time>2014-06-02T09:50:10Z</time>
      </trkpt>
      <trkpt lat="46.128004258498549" lon="8.147159591317177">
        <ele>2049.1900000000001</ele>
        <time>2014-06-02T09:50:28Z</time>
      </trkpt>
      <trkpt lat="46.128031415864825" lon="8.147137379273772">
        <ele>2049.6700000000001</ele>
        <time>2014-06-02T09:50:40Z</time>
      </trkpt>
      <trkpt lat="46.128023620694876" lon="8.147171325981617">
        <ele>2049.1900000000001</ele>
        <time>2014-06-02T09:51:04Z</time>
      </trkpt>
      <trkpt lat="46.127987829968333" lon="8.147186245769262">
        <ele>2049.1900000000001</ele>
        <time>2014-06-02T09:51:10Z</time>
      </trkpt>
      <trkpt lat="46.127984644845128" lon="8.147189011797309">
        <ele>2049.1900000000001</ele>
        <time>2014-06-02T09:51:11Z</time>
      </trkpt>
      <trkpt lat="46.128040468320251" lon="8.14704492688179">
        <ele>2049.6700000000001</ele>
        <time>2014-06-02T09:51:21Z</time>
      </trkpt>
      <trkpt lat="46.128048598766327" lon="8.147018942981958">
        <ele>2049.1900000000001</ele>
        <time>2014-06-02T09:51:35Z</time>
      </trkpt>
      <trkpt lat="46.128018843010068" lon="8.146987594664097">
        <ele>2049.1900000000001</ele>
        <time>2014-06-02T09:51:57Z</time>
      </trkpt>
      <trkpt lat="46.128023872151971" lon="8.146990947425365">
        <ele>2049.1900000000001</ele>
        <time>2014-06-02T09:52:24Z</time>
      </trkpt>
      <trkpt lat="46.128032337874174" lon="8.147020367905498">
        <ele>2048.71</ele>
        <time>2014-06-02T09:52:42Z</time>
      </trkpt>
      <trkpt lat="46.128047509118915" lon="8.147017601877451">
        <ele>2048.71</ele>
        <time>2014-06-02T09:53:17Z</time>
      </trkpt>
      <trkpt lat="46.12803895957768" lon="8.147022966295481">
        <ele>2048.71</ele>
        <time>2014-06-02T09:53:53Z</time>
      </trkpt>
      <trkpt lat="46.128023201599717" lon="8.147034365683794">
        <ele>2048.71</ele>
        <time>2014-06-02T09:54:22Z</time>
      </trkpt>
      <trkpt lat="46.128011047840118" lon="8.147037886083126">
        <ele>2048.71</ele>
        <time>2014-06-02T09:54:57Z</time>
      </trkpt>
      <trkpt lat="46.127999145537615" lon="8.147042999044061">
        <ele>2048.71</ele>
        <time>2014-06-02T09:55:35Z</time>
      </trkpt>
      <trkpt lat="46.127990260720253" lon="8.147055404260755">
        <ele>2048.71</ele>
        <time>2014-06-02T09:56:14Z</time>
      </trkpt>
      <trkpt lat="46.12801699899137" lon="8.147015171125531">
        <ele>2048.71</ele>
        <time>2014-06-02T09:56:56Z</time>
      </trkpt>
      <trkpt lat="46.128020770847797" lon="8.14703319221735">
        <ele>2049.1900000000001</ele>
        <time>2014-06-02T09:57:30Z</time>
      </trkpt>
      <trkpt lat="46.128020267933607" lon="8.147043753415346">
        <ele>2049.1900000000001</ele>
        <time>2014-06-02T09:58:11Z</time>
      </trkpt>
      <trkpt lat="46.12803015857935" lon="8.147052386775613">
        <ele>2049.1900000000001</ele>
        <time>2014-06-02T09:58:52Z</time>
      </trkpt>
      <trkpt lat="46.128038624301553" lon="8.147050458937883">
        <ele>2049.1900000000001</ele>
        <time>2014-06-02T09:59:34Z</time>
      </trkpt>
      <trkpt lat="46.128022028133273" lon="8.147046938538551">
        <ele>2049.1900000000001</ele>
        <time>2014-06-02T10:00:17Z</time>
      </trkpt>
      <trkpt lat="46.128016915172338" lon="8.147029085084796">
        <ele>2049.1900000000001</ele>
        <time>2014-06-02T10:01:01Z</time>
      </trkpt>
      <trkpt lat="46.128025045618415" lon="8.147013913840056">
        <ele>2049.1900000000001</ele>
        <time>2014-06-02T10:01:43Z</time>
      </trkpt>
      <trkpt lat="46.12801062874496" lon="8.147020367905498">
        <ele>2049.1900000000001</ele>
        <time>2014-06-02T10:02:28Z</time>
      </trkpt>
      <trkpt lat="46.12801305949688" lon="8.147023636847735">
        <ele>2049.1900000000001</ele>
        <time>2014-06-02T10:03:10Z</time>
      </trkpt>
      <trkpt lat="46.127997385337949" lon="8.147016847506166">
        <ele>2049.6700000000001</ele>
        <time>2014-06-02T10:03:58Z</time>
      </trkpt>
      <trkpt lat="46.1279998999089" lon="8.147029923275113">
        <ele>2049.6700000000001</ele>
        <time>2014-06-02T10:04:44Z</time>
      </trkpt>
      <trkpt lat="46.128001241013408" lon="8.147032018750906">
        <ele>2049.6700000000001</ele>
        <time>2014-06-02T10:05:25Z</time>
      </trkpt>
      <trkpt lat="46.128004593774676" lon="8.147030342370272">
        <ele>2049.6700000000001</ele>
        <time>2014-06-02T10:06:14Z</time>
      </trkpt>
      <trkpt lat="46.128003001213074" lon="8.147010058164597">
        <ele>2049.6700000000001</ele>
        <time>2014-06-02T10:06:59Z</time>
      </trkpt>
      <trkpt lat="46.128011047840118" lon="8.147002514451742">
        <ele>2049.6700000000001</ele>
        <time>2014-06-02T10:07:35Z</time>
      </trkpt>
      <trkpt lat="46.128011047840118" lon="8.147014668211341">
        <ele>2050.1500000000001</ele>
        <time>2014-06-02T10:08:11Z</time>
      </trkpt>
      <trkpt lat="46.128010377287865" lon="8.146998742595315">
        <ele>2049.6700000000001</ele>
        <time>2014-06-02T10:08:49Z</time>
      </trkpt>
      <trkpt lat="46.128014903515577" lon="8.1470185238868">
        <ele>2049.6700000000001</ele>
        <time>2014-06-02T10:09:23Z</time>
      </trkpt>
      <trkpt lat="46.12801406532526" lon="8.146994551643729">
        <ele>2050.1500000000001</ele>
        <time>2014-06-02T10:10:00Z</time>
      </trkpt>
      <trkpt lat="46.128019513562322" lon="8.147002430632711">
        <ele>2050.1500000000001</ele>
        <time>2014-06-02T10:10:41Z</time>
      </trkpt>
      <trkpt lat="46.128020687028766" lon="8.147015338763595">
        <ele>2050.1500000000001</ele>
        <time>2014-06-02T10:11:12Z</time>
      </trkpt>
      <trkpt lat="46.128019094467163" lon="8.146982733160257">
        <ele>2049.6700000000001</ele>
        <time>2014-06-02T10:11:42Z</time>
      </trkpt>
      <trkpt lat="46.128025548532605" lon="8.146990109235048">
        <ele>2050.1500000000001</ele>
        <time>2014-06-02T10:12:11Z</time>
      </trkpt>
      <trkpt lat="46.127997133880854" lon="8.146966472268105">
        <ele>2050.1500000000001</ele>
        <time>2014-06-02T10:12:42Z</time>
      </trkpt>
      <trkpt lat="46.128036947920918" lon="8.147004693746567">
        <ele>2050.1500000000001</ele>
        <time>2014-06-02T10:13:21Z</time>
      </trkpt>
      <trkpt lat="46.128084976226091" lon="8.147055907174945">
        <ele>2050.1500000000001</ele>
        <time>2014-06-02T10:13:53Z</time>
      </trkpt>
      <trkpt lat="46.128076259046793" lon="8.147054482251406">
        <ele>2050.1500000000001</ele>
        <time>2014-06-02T10:14:26Z</time>
      </trkpt>
      <trkpt lat="46.128154210746288" lon="8.147092619910836">
        <ele>2050.6300000000001</ele>
        <time>2014-06-02T10:15:04Z</time>
      </trkpt>
      <trkpt lat="46.128202322870493" lon="8.147110054269433">
        <ele>2050.6300000000001</ele>
        <time>2014-06-02T10:15:43Z</time>
      </trkpt>
      <trkpt lat="46.128109367564321" lon="8.147017601877451">
        <ele>2050.6300000000001</ele>
        <time>2014-06-02T10:16:13Z</time>
      </trkpt>
      <trkpt lat="46.128136357292533" lon="8.147038975730538">
        <ele>2050.6300000000001</ele>
        <time>2014-06-02T10:16:43Z</time>
      </trkpt>
      <trkpt lat="46.128155887126923" lon="8.147078705951572">
        <ele>2051.1100000000001</ele>
        <time>2014-06-02T10:17:16Z</time>
      </trkpt>
      <trkpt lat="46.128095621243119" lon="8.147088512778282">
        <ele>2050.6300000000001</ele>
        <time>2014-06-02T10:17:53Z</time>
      </trkpt>
      <trkpt lat="46.128111546859145" lon="8.147063199430704">
        <ele>2050.6300000000001</ele>
        <time>2014-06-02T10:18:22Z</time>
      </trkpt>
      <trkpt lat="46.128040803596377" lon="8.147043585777283">
        <ele>2050.6300000000001</ele>
        <time>2014-06-02T10:18:47Z</time>
      </trkpt>
      <trkpt lat="46.128006353974342" lon="8.146963873878121">
        <ele>2050.6300000000001</ele>
        <time>2014-06-02T10:18:57Z</time>
      </trkpt>
      <trkpt lat="46.127605782821774" lon="8.14664963632822">
        <ele>2051.1100000000001</ele>
        <time>2014-06-02T10:19:11Z</time>
      </trkpt>
      <trkpt lat="46.127209570258856" lon="8.146295417100191">
        <ele>2051.1100000000001</ele>
        <time>2014-06-02T10:19:29Z</time>
      </trkpt>
      <trkpt lat="46.126865074038506" lon="8.146010767668486">
        <ele>2050.6300000000001</ele>
        <time>2014-06-02T10:19:58Z</time>
      </trkpt>
      <trkpt lat="46.126920897513628" lon="8.146046055480838">
        <ele>2051.1100000000001</ele>
        <time>2014-06-02T10:20:22Z</time>
      </trkpt>
      <trkpt lat="46.127074956893921" lon="8.146175974979997">
        <ele>2051.1100000000001</ele>
        <time>2014-06-02T10:20:41Z</time>
      </trkpt>
      <trkpt lat="46.127362372353673" lon="8.146429192274809">
        <ele>2051.1100000000001</ele>
        <time>2014-06-02T10:21:06Z</time>
      </trkpt>
      <trkpt lat="46.127478964626789" lon="8.146536815911531">
        <ele>2051.5900000000001</ele>
        <time>2014-06-02T10:21:41Z</time>
      </trkpt>
      <trkpt lat="46.12765833735466" lon="8.146653240546584">
        <ele>2051.5900000000001</ele>
        <time>2014-06-02T10:22:04Z</time>
      </trkpt>
      <trkpt lat="46.128022950142622" lon="8.146979296579957">
        <ele>2052.0700000000002</ele>
        <time>2014-06-02T10:22:38Z</time>
      </trkpt>
      <trkpt lat="46.128046084195375" lon="8.146991450339556">
        <ele>2052.0700000000002</ele>
        <time>2014-06-02T10:23:03Z</time>
      </trkpt>
      <trkpt lat="46.128005934879184" lon="8.146989103406668">
        <ele>2052.5500000000002</ele>
        <time>2014-06-02T10:23:40Z</time>
      </trkpt>
      <trkpt lat="46.127938712015748" lon="8.146902853623033">
        <ele>2052.5500000000002</ele>
        <time>2014-06-02T10:24:12Z</time>
      </trkpt>
      <trkpt lat="46.128020519390702" lon="8.146986672654748">
        <ele>2052.5500000000002</ele>
        <time>2014-06-02T10:24:41Z</time>
      </trkpt>
      <trkpt lat="46.127885486930609" lon="8.146838899701834">
        <ele>2053.0300000000002</ele>
        <time>2014-06-02T10:25:05Z</time>
      </trkpt>
      <trkpt lat="46.127739557996392" lon="8.146741334348917">
        <ele>2054.4699999999998</ele>
        <time>2014-06-02T10:25:22Z</time>
      </trkpt>
      <trkpt lat="46.127731930464506" lon="8.146735969930887">
        <ele>2053.5100000000002</ele>
        <time>2014-06-02T10:25:23Z</time>
      </trkpt>
      <trkpt lat="46.127649452537298" lon="8.146646451205015">
        <ele>2053.0300000000002</ele>
        <time>2014-06-02T10:25:50Z</time>
      </trkpt>
      <trkpt lat="46.127615002915263" lon="8.146636392921209">
        <ele>2052.5500000000002</ele>
        <time>2014-06-02T10:26:22Z</time>
      </trkpt>
      <trkpt lat="46.127628749236465" lon="8.146665059030056">
        <ele>2053.0300000000002</ele>
        <time>2014-06-02T10:26:50Z</time>
      </trkpt>
      <trkpt lat="46.127627491950989" lon="8.146695820614696">
        <ele>2052.5500000000002</ele>
        <time>2014-06-02T10:27:17Z</time>
      </trkpt>
      <trkpt lat="46.12778976559639" lon="8.146783914417028">
        <ele>2052.5500000000002</ele>
        <time>2014-06-02T10:27:46Z</time>
      </trkpt>
      <trkpt lat="46.127782054245472" lon="8.146798750385642">
        <ele>2052.5500000000002</ele>
        <time>2014-06-02T10:28:22Z</time>
      </trkpt>
      <trkpt lat="46.127859754487872" lon="8.146845689043403">
        <ele>2052.5500000000002</ele>
        <time>2014-06-02T10:28:55Z</time>
      </trkpt>
      <trkpt lat="46.127829244360328" lon="8.146842168644071">
        <ele>2053.0300000000002</ele>
        <time>2014-06-02T10:29:27Z</time>
      </trkpt>
      <trkpt lat="46.127963103353977" lon="8.146972926333547">
        <ele>2053.5100000000002</ele>
        <time>2014-06-02T10:29:56Z</time>
      </trkpt>
      <trkpt lat="46.128018256276846" lon="8.14701022580266">
        <ele>2053.5100000000002</ele>
        <time>2014-06-02T10:30:24Z</time>
      </trkpt>
      <trkpt lat="46.127981962636113" lon="8.146981140598655">
        <ele>2053.0300000000002</ele>
        <time>2014-06-02T10:30:41Z</time>
      </trkpt>
      <trkpt lat="46.128006437793374" lon="8.146998658776283">
        <ele>2053.0300000000002</ele>
        <time>2014-06-02T10:31:02Z</time>
      </trkpt>
      <trkpt lat="46.127968551591039" lon="8.147014416754246">
        <ele>2053.5100000000002</ele>
        <time>2014-06-02T10:31:22Z</time>
      </trkpt>
      <trkpt lat="46.1279671266675" lon="8.147009052336216">
        <ele>2044.8599999999999</ele>
        <time>2014-06-02T10:31:32Z</time>
      </trkpt>
      <trkpt lat="46.12796570174396" lon="8.147004190832377">
        <ele>2056.8800000000001</ele>
        <time>2014-06-02T10:31:33Z</time>
      </trkpt>
      <trkpt lat="46.128003923222423" lon="8.146988432854414">
        <ele>2055.4400000000001</ele>
        <time>2014-06-02T10:31:34Z</time>
      </trkpt>
      <trkpt lat="46.128020184114575" lon="8.146991534158588">
        <ele>2053.5100000000002</ele>
        <time>2014-06-02T10:31:36Z</time>
      </trkpt>
      <trkpt lat="46.128007443621755" lon="8.147012908011675">
        <ele>2053.9899999999998</ele>
        <time>2014-06-02T10:31:57Z</time>
      </trkpt>
      <trkpt lat="46.128001743927598" lon="8.147006286308169">
        <ele>2053.9899999999998</ele>
        <time>2014-06-02T10:32:03Z</time>
      </trkpt>
      <trkpt lat="46.128000486642122" lon="8.146974351257086">
        <ele>2054.4699999999998</ele>
        <time>2014-06-02T10:32:14Z</time>
      </trkpt>
      <trkpt lat="46.127986237406731" lon="8.146994803100824">
        <ele>2054.4699999999998</ele>
        <time>2014-06-02T10:32:20Z</time>
      </trkpt>
      <trkpt lat="46.128027224913239" lon="8.147269058972597">
        <ele>2053.5100000000002</ele>
        <time>2014-06-02T10:32:35Z</time>
      </trkpt>
      <trkpt lat="46.128032673150301" lon="8.147402917966247">
        <ele>2051.5900000000001</ele>
        <time>2014-06-02T10:32:48Z</time>
      </trkpt>
      <trkpt lat="46.12798179499805" lon="8.147408198565245">
        <ele>2048.71</ele>
        <time>2014-06-02T10:33:03Z</time>
      </trkpt>
      <trkpt lat="46.127939131110907" lon="8.147472403943539">
        <ele>2046.3</ele>
        <time>2014-06-02T10:33:14Z</time>
      </trkpt>
      <trkpt lat="46.127952206879854" lon="8.147520683705807">
        <ele>2045.3399999999999</ele>
        <time>2014-06-02T10:33:20Z</time>
      </trkpt>
      <trkpt lat="46.128051448613405" lon="8.147648926824331">
        <ele>2044.8599999999999</ele>
        <time>2014-06-02T10:33:34Z</time>
      </trkpt>
      <trkpt lat="46.1280707269907" lon="8.147674575448036">
        <ele>2045.3399999999999</ele>
        <time>2014-06-02T10:33:38Z</time>
      </trkpt>
      <trkpt lat="46.128074750304222" lon="8.147759987041354">
        <ele>2045.8199999999999</ele>
        <time>2014-06-02T10:33:44Z</time>
      </trkpt>
      <trkpt lat="46.128105176612735" lon="8.147835843265057">
        <ele>2046.3</ele>
        <time>2014-06-02T10:33:50Z</time>
      </trkpt>
      <trkpt lat="46.12811079248786" lon="8.147881692275405">
        <ele>2045.8199999999999</ele>
        <time>2014-06-02T10:33:53Z</time>
      </trkpt>
      <trkpt lat="46.128091933205724" lon="8.1479821074754">
        <ele>2044.8599999999999</ele>
        <time>2014-06-02T10:34:01Z</time>
      </trkpt>
      <trkpt lat="46.128090089187026" lon="8.147996105253696">
        <ele>2044.8599999999999</ele>
        <time>2014-06-02T10:34:02Z</time>
      </trkpt>
      <trkpt lat="46.128007527440786" lon="8.148208335042">
        <ele>2041.98</ele>
        <time>2014-06-02T10:34:17Z</time>
      </trkpt>
      <trkpt lat="46.127976598218083" lon="8.148319479078054">
        <ele>2040.05</ele>
        <time>2014-06-02T10:34:29Z</time>
      </trkpt>
      <trkpt lat="46.12787333317101" lon="8.148476975038648">
        <ele>2037.6500000000001</ele>
        <time>2014-06-02T10:34:43Z</time>
      </trkpt>
      <trkpt lat="46.12786109559238" lon="8.148507904261351">
        <ele>2037.6500000000001</ele>
        <time>2014-06-02T10:34:45Z</time>
      </trkpt>
      <trkpt lat="46.12783377058804" lon="8.148692641407251">
        <ele>2036.21</ele>
        <time>2014-06-02T10:35:01Z</time>
      </trkpt>
      <trkpt lat="46.127827484160662" lon="8.148694317787886">
        <ele>2035.73</ele>
        <time>2014-06-02T10:35:20Z</time>
      </trkpt>
      <trkpt lat="46.127829914912581" lon="8.14868819899857">
        <ele>2035.73</ele>
        <time>2014-06-02T10:35:36Z</time>
      </trkpt>
      <trkpt lat="46.127833519130945" lon="8.148769168183208">
        <ele>2035.25</ele>
        <time>2014-06-02T10:35:57Z</time>
      </trkpt>
      <trkpt lat="46.127822455018759" lon="8.148840414360166">
        <ele>2034.29</ele>
        <time>2014-06-02T10:36:10Z</time>
      </trkpt>
      <trkpt lat="46.127821197733283" lon="8.148920964449644">
        <ele>2033.8099999999999</ele>
        <time>2014-06-02T10:36:25Z</time>
      </trkpt>
      <trkpt lat="46.127781802788377" lon="8.149051889777184">
        <ele>2031.4000000000001</ele>
        <time>2014-06-02T10:36:40Z</time>
      </trkpt>
      <trkpt lat="46.127782389521599" lon="8.149091200903058">
        <ele>2031.8800000000001</ele>
        <time>2014-06-02T10:36:50Z</time>
      </trkpt>
      <trkpt lat="46.127788256853819" lon="8.149106707423925">
        <ele>2031.8800000000001</ele>
        <time>2014-06-02T10:36:54Z</time>
      </trkpt>
      <trkpt lat="46.127750035375357" lon="8.149198656901717">
        <ele>2030.4400000000001</ele>
        <time>2014-06-02T10:37:04Z</time>
      </trkpt>
      <trkpt lat="46.127696810290217" lon="8.149353973567486">
        <ele>2028.52</ele>
        <time>2014-06-02T10:37:18Z</time>
      </trkpt>
      <trkpt lat="46.127689434215426" lon="8.149516666308045">
        <ele>2026.1199999999999</ele>
        <time>2014-06-02T10:37:32Z</time>
      </trkpt>
      <trkpt lat="46.127702677622437" lon="8.149555893614888">
        <ele>2025.1500000000001</ele>
        <time>2014-06-02T10:37:43Z</time>
      </trkpt>
      <trkpt lat="46.127715585753322" lon="8.149589924141765">
        <ele>2024.1900000000001</ele>
        <time>2014-06-02T10:37:55Z</time>
      </trkpt>
      <trkpt lat="46.127698486670852" lon="8.149632168933749">
        <ele>2023.71</ele>
        <time>2014-06-02T10:38:09Z</time>
      </trkpt>
      <trkpt lat="46.127725224941969" lon="8.149644238874316">
        <ele>2023.23</ele>
        <time>2014-06-02T10:38:35Z</time>
      </trkpt>
      <trkpt lat="46.127723380923271" lon="8.149682795628905">
        <ele>2022.75</ele>
        <time>2014-06-02T10:38:51Z</time>
      </trkpt>
      <trkpt lat="46.127730505540967" lon="8.149701906368136">
        <ele>2021.79</ele>
        <time>2014-06-02T10:39:06Z</time>
      </trkpt>
      <trkpt lat="46.127723883837461" lon="8.149745324626565">
        <ele>2020.3499999999999</ele>
        <time>2014-06-02T10:39:27Z</time>
      </trkpt>
      <trkpt lat="46.127676023170352" lon="8.14982620999217">
        <ele>2017.46</ele>
        <time>2014-06-02T10:39:39Z</time>
      </trkpt>
      <trkpt lat="46.127625815570354" lon="8.149820007383823">
        <ele>2015.54</ele>
        <time>2014-06-02T10:39:49Z</time>
      </trkpt>
      <trkpt lat="46.127621373161674" lon="8.149887900799513">
        <ele>2013.6199999999999</ele>
        <time>2014-06-02T10:40:00Z</time>
      </trkpt>
      <trkpt lat="46.12754300236702" lon="8.149968786165118">
        <ele>2012.6600000000001</ele>
        <time>2014-06-02T10:40:12Z</time>
      </trkpt>
      <trkpt lat="46.127477288246155" lon="8.150080181658268">
        <ele>2013.6199999999999</ele>
        <time>2014-06-02T10:40:24Z</time>
      </trkpt>
      <trkpt lat="46.127451555803418" lon="8.150105243548751">
        <ele>2013.1400000000001</ele>
        <time>2014-06-02T10:40:36Z</time>
      </trkpt>
      <trkpt lat="46.127468403428793" lon="8.150094347074628">
        <ele>2013.1400000000001</ele>
        <time>2014-06-02T10:40:54Z</time>
      </trkpt>
      <trkpt lat="46.127417692914605" lon="8.15006417222321">
        <ele>2013.1400000000001</ele>
        <time>2014-06-02T10:41:21Z</time>
      </trkpt>
      <trkpt lat="46.127407215535641" lon="8.150157546624541">
        <ele>2013.1400000000001</ele>
        <time>2014-06-02T10:41:26Z</time>
      </trkpt>
      <trkpt lat="46.127387937158346" lon="8.150184536352754">
        <ele>2014.5799999999999</ele>
        <time>2014-06-02T10:41:29Z</time>
      </trkpt>
      <trkpt lat="46.127305962145329" lon="8.150362484157085">
        <ele>2012.1800000000001</ele>
        <time>2014-06-02T10:41:44Z</time>
      </trkpt>
      <trkpt lat="46.127282995730639" lon="8.150395844131708">
        <ele>2011.7</ele>
        <time>2014-06-02T10:41:47Z</time>
      </trkpt>
      <trkpt lat="46.127215437591076" lon="8.150540180504322">
        <ele>2008.3299999999999</ele>
        <time>2014-06-02T10:42:00Z</time>
      </trkpt>
      <trkpt lat="46.127200517803431" lon="8.150608073920012">
        <ele>2006.4100000000001</ele>
        <time>2014-06-02T10:42:06Z</time>
      </trkpt>
      <trkpt lat="46.127183670178056" lon="8.150655180215836">
        <ele>2005.9300000000001</ele>
        <time>2014-06-02T10:42:09Z</time>
      </trkpt>
      <trkpt lat="46.127183586359024" lon="8.150689378380776">
        <ele>2004.97</ele>
        <time>2014-06-02T10:42:12Z</time>
      </trkpt>
      <trkpt lat="46.127185262739658" lon="8.150827344506979">
        <ele>2002.0799999999999</ele>
        <time>2014-06-02T10:42:23Z</time>
      </trkpt>
      <trkpt lat="46.127202361822128" lon="8.150897920131683">
        <ele>2000.6400000000001</ele>
        <time>2014-06-02T10:42:29Z</time>
      </trkpt>
      <trkpt lat="46.127166906371713" lon="8.150976710021496">
        <ele>1996.8</ele>
        <time>2014-06-02T10:42:41Z</time>
      </trkpt>
      <trkpt lat="46.1271917168051" lon="8.15109271556139">
        <ele>1993.9100000000001</ele>
        <time>2014-06-02T10:42:53Z</time>
      </trkpt>
      <trkpt lat="46.12720487639308" lon="8.151197824627161">
        <ele>1991.03</ele>
        <time>2014-06-02T10:43:04Z</time>
      </trkpt>
      <trkpt lat="46.127240667119622" lon="8.151344927027822">
        <ele>1988.1400000000001</ele>
        <time>2014-06-02T10:43:18Z</time>
      </trkpt>
      <trkpt lat="46.127230189740658" lon="8.151478199288249">
        <ele>1986.22</ele>
        <time>2014-06-02T10:43:31Z</time>
      </trkpt>
      <trkpt lat="46.127223819494247" lon="8.151480378583074">
        <ele>1986.22</ele>
        <time>2014-06-02T10:43:32Z</time>
      </trkpt>
      <trkpt lat="46.127240415662527" lon="8.151603508740664">
        <ele>1983.8199999999999</ele>
        <time>2014-06-02T10:43:43Z</time>
      </trkpt>
      <trkpt lat="46.127258352935314" lon="8.151664026081562">
        <ele>1982.8599999999999</ele>
        <time>2014-06-02T10:43:50Z</time>
      </trkpt>
      <trkpt lat="46.127261873334646" lon="8.151745749637485">
        <ele>1981.9000000000001</ele>
        <time>2014-06-02T10:43:56Z</time>
      </trkpt>
      <trkpt lat="46.127272350713611" lon="8.151877094060183">
        <ele>1981.9000000000001</ele>
        <time>2014-06-02T10:44:07Z</time>
      </trkpt>
      <trkpt lat="46.127252401784062" lon="8.15195077098906">
        <ele>1981.4100000000001</ele>
        <time>2014-06-02T10:44:14Z</time>
      </trkpt>
      <trkpt lat="46.127246953547001" lon="8.151979269459844">
        <ele>1980.9300000000001</ele>
        <time>2014-06-02T10:44:16Z</time>
      </trkpt>
      <trkpt lat="46.127217700704932" lon="8.152149086818099">
        <ele>1978.53</ele>
        <time>2014-06-02T10:44:29Z</time>
      </trkpt>
      <trkpt lat="46.12719314172864" lon="8.152349665760994">
        <ele>1978.53</ele>
        <time>2014-06-02T10:44:44Z</time>
      </trkpt>
      <trkpt lat="46.127190375700593" lon="8.152471957728267">
        <ele>1977.0899999999999</ele>
        <time>2014-06-02T10:44:57Z</time>
      </trkpt>
      <trkpt lat="46.127224992960691" lon="8.152564913034439">
        <ele>1976.1300000000001</ele>
        <time>2014-06-02T10:45:09Z</time>
      </trkpt>
      <trkpt lat="46.127256760373712" lon="8.152694581076503">
        <ele>1975.1700000000001</ele>
        <time>2014-06-02T10:45:23Z</time>
      </trkpt>
      <trkpt lat="46.127249971032143" lon="8.152813520282507">
        <ele>1973.72</ele>
        <time>2014-06-02T10:45:36Z</time>
      </trkpt>
      <trkpt lat="46.127235218882561" lon="8.15285081975162">
        <ele>1972.76</ele>
        <time>2014-06-02T10:45:42Z</time>
      </trkpt>
      <trkpt lat="46.127202780917287" lon="8.152914941310883">
        <ele>1970.8399999999999</ele>
        <time>2014-06-02T10:45:54Z</time>
      </trkpt>
      <trkpt lat="46.127181323245168" lon="8.153032455593348">
        <ele>1969.8800000000001</ele>
        <time>2014-06-02T10:46:04Z</time>
      </trkpt>
      <trkpt lat="46.127173192799091" lon="8.153188861906529">
        <ele>1969.4000000000001</ele>
        <time>2014-06-02T10:46:16Z</time>
      </trkpt>
      <trkpt lat="46.127154752612114" lon="8.153473176062107">
        <ele>1967.96</ele>
        <time>2014-06-02T10:46:34Z</time>
      </trkpt>
      <trkpt lat="46.127155087888241" lon="8.153485665097833">
        <ele>1967.48</ele>
        <time>2014-06-02T10:46:35Z</time>
      </trkpt>
      <trkpt lat="46.127133127301931" lon="8.153558671474457">
        <ele>1966.51</ele>
        <time>2014-06-02T10:46:40Z</time>
      </trkpt>
      <trkpt lat="46.127131953835487" lon="8.153591360896826">
        <ele>1966.51</ele>
        <time>2014-06-02T10:46:42Z</time>
      </trkpt>
      <trkpt lat="46.127118458971381" lon="8.153644585981965">
        <ele>1965.55</ele>
        <time>2014-06-02T10:46:46Z</time>
      </trkpt>
      <trkpt lat="46.127069508656859" lon="8.153877519071102">
        <ele>1964.1099999999999</ele>
        <time>2014-06-02T10:47:01Z</time>
      </trkpt>
      <trkpt lat="46.12703044898808" lon="8.153988746926189">
        <ele>1961.71</ele>
        <time>2014-06-02T10:47:16Z</time>
      </trkpt>
      <trkpt lat="46.126990467309952" lon="8.154094275087118">
        <ele>1958.3399999999999</ele>
        <time>2014-06-02T10:47:28Z</time>
      </trkpt>
      <trkpt lat="46.126955347135663" lon="8.154190750792623">
        <ele>1955.9400000000001</ele>
        <time>2014-06-02T10:47:42Z</time>
      </trkpt>
      <trkpt lat="46.126937074586749" lon="8.154282700270414">
        <ele>1954.02</ele>
        <time>2014-06-02T10:47:54Z</time>
      </trkpt>
      <trkpt lat="46.126905977725983" lon="8.154370961710811">
        <ele>1950.6500000000001</ele>
        <time>2014-06-02T10:48:08Z</time>
      </trkpt>
      <trkpt lat="46.126883765682578" lon="8.154459642246366">
        <ele>1948.73</ele>
        <time>2014-06-02T10:48:20Z</time>
      </trkpt>
      <trkpt lat="46.126875467598438" lon="8.154529295861721">
        <ele>1946.8099999999999</ele>
        <time>2014-06-02T10:48:32Z</time>
      </trkpt>
      <trkpt lat="46.126815201714635" lon="8.154530553147197">
        <ele>1943.4400000000001</ele>
        <time>2014-06-02T10:48:43Z</time>
      </trkpt>
      <trkpt lat="46.12676658667624" lon="8.154500713571906">
        <ele>1941.52</ele>
        <time>2014-06-02T10:48:55Z</time>
      </trkpt>
      <trkpt lat="46.126784523949027" lon="8.154619485139847">
        <ele>1939.1199999999999</ele>
        <time>2014-06-02T10:49:09Z</time>
      </trkpt>
      <trkpt lat="46.126768430694938" lon="8.154640104621649">
        <ele>1936.71</ele>
        <time>2014-06-02T10:49:21Z</time>
      </trkpt>
      <trkpt lat="46.126746637746692" lon="8.15476038493216">
        <ele>1934.3099999999999</ele>
        <time>2014-06-02T10:49:34Z</time>
      </trkpt>
      <trkpt lat="46.126688802614808" lon="8.154749572277069">
        <ele>1931.4300000000001</ele>
        <time>2014-06-02T10:49:47Z</time>
      </trkpt>
      <trkpt lat="46.126629542559385" lon="8.154664998874068">
        <ele>1929.02</ele>
        <time>2014-06-02T10:49:58Z</time>
      </trkpt>
      <trkpt lat="46.126582939177752" lon="8.154642032459378">
        <ele>1927.0999999999999</ele>
        <time>2014-06-02T10:50:11Z</time>
      </trkpt>
      <trkpt lat="46.126560727134347" lon="8.154656030237675">
        <ele>1924.7</ele>
        <time>2014-06-02T10:50:17Z</time>
      </trkpt>
      <trkpt lat="46.126546310260892" lon="8.154721409082413">
        <ele>1923.25</ele>
        <time>2014-06-02T10:50:30Z</time>
      </trkpt>
      <trkpt lat="46.12653792835772" lon="8.154773125424981">
        <ele>1921.3299999999999</ele>
        <time>2014-06-02T10:50:43Z</time>
      </trkpt>
      <trkpt lat="46.126487301662564" lon="8.154750661924481">
        <ele>1918.9300000000001</ele>
        <time>2014-06-02T10:50:55Z</time>
      </trkpt>
      <trkpt lat="46.126435752958059" lon="8.154670698568225">
        <ele>1916.04</ele>
        <time>2014-06-02T10:51:09Z</time>
      </trkpt>
      <trkpt lat="46.126399375498295" lon="8.154677655547857">
        <ele>1914.5999999999999</ele>
        <time>2014-06-02T10:51:20Z</time>
      </trkpt>
      <trkpt lat="46.126422677189112" lon="8.154771029949188">
        <ele>1912.6800000000001</ele>
        <time>2014-06-02T10:51:35Z</time>
      </trkpt>
      <trkpt lat="46.126394346356392" lon="8.154862895607948">
        <ele>1909.8</ele>
        <time>2014-06-02T10:51:49Z</time>
      </trkpt>
      <trkpt lat="46.126385042443871" lon="8.154971189796925">
        <ele>1906.9100000000001</ele>
        <time>2014-06-02T10:52:04Z</time>
      </trkpt>
      <trkpt lat="46.12636199221015" lon="8.155028941109777">
        <ele>1904.51</ele>
        <time>2014-06-02T10:52:17Z</time>
      </trkpt>
      <trkpt lat="46.126337349414825" lon="8.155099432915449">
        <ele>1902.1099999999999</ele>
        <time>2014-06-02T10:52:29Z</time>
      </trkpt>
      <trkpt lat="46.12631119787693" lon="8.155200351029635">
        <ele>1898.74</ele>
        <time>2014-06-02T10:52:43Z</time>
      </trkpt>
      <trkpt lat="46.126309353858232" lon="8.155236393213272">
        <ele>1898.26</ele>
        <time>2014-06-02T10:52:58Z</time>
      </trkpt>
      <trkpt lat="46.126311784610152" lon="8.155333204194903">
        <ele>1895.3800000000001</ele>
        <time>2014-06-02T10:53:11Z</time>
      </trkpt>
      <trkpt lat="46.1263214237988" lon="8.1553696654737">
        <ele>1893.9300000000001</ele>
        <time>2014-06-02T10:53:24Z</time>
      </trkpt>
      <trkpt lat="46.126292590051889" lon="8.155374610796571">
        <ele>1892.97</ele>
        <time>2014-06-02T10:53:38Z</time>
      </trkpt>
      <trkpt lat="46.126283034682274" lon="8.155363127589226">
        <ele>1893.45</ele>
        <time>2014-06-02T10:54:09Z</time>
      </trkpt>
      <trkpt lat="46.126274317502975" lon="8.155363127589226">
        <ele>1893.45</ele>
        <time>2014-06-02T10:54:45Z</time>
      </trkpt>
      <trkpt lat="46.126275323331356" lon="8.155363714322448">
        <ele>1894.4200000000001</ele>
        <time>2014-06-02T10:54:54Z</time>
      </trkpt>
      <trkpt lat="46.126249339431524" lon="8.155375113710761">
        <ele>1893.45</ele>
        <time>2014-06-02T10:55:05Z</time>
      </trkpt>
      <trkpt lat="46.126243555918336" lon="8.155382657423616">
        <ele>1892.49</ele>
        <time>2014-06-02T10:55:06Z</time>
      </trkpt>
      <trkpt lat="46.126234419643879" lon="8.155431104823947">
        <ele>1891.05</ele>
        <time>2014-06-02T10:55:11Z</time>
      </trkpt>
      <trkpt lat="46.126197790727019" lon="8.155509643256664">
        <ele>1888.1700000000001</ele>
        <time>2014-06-02T10:55:17Z</time>
      </trkpt>
      <trkpt lat="46.126162251457572" lon="8.155557587742806">
        <ele>1884.8</ele>
        <time>2014-06-02T10:55:24Z</time>
      </trkpt>
      <trkpt lat="46.126129226759076" lon="8.155537387356162">
        <ele>1882.8800000000001</ele>
        <time>2014-06-02T10:55:28Z</time>
      </trkpt>
      <trkpt lat="46.126106176525354" lon="8.155502434819937">
        <ele>1881.9200000000001</ele>
        <time>2014-06-02T10:55:31Z</time>
      </trkpt>
      <trkpt lat="46.126025374978781" lon="8.155494807288051">
        <ele>1879.03</ele>
        <time>2014-06-02T10:55:41Z</time>
      </trkpt>
      <trkpt lat="46.125958990305662" lon="8.155491622164846">
        <ele>1875.6700000000001</ele>
        <time>2014-06-02T10:55:51Z</time>
      </trkpt>
      <trkpt lat="46.125912554562092" lon="8.155440576374531">
        <ele>1872.79</ele>
        <time>2014-06-02T10:56:03Z</time>
      </trkpt>
      <trkpt lat="46.125872153788805" lon="8.155393972992897">
        <ele>1869.9000000000001</ele>
        <time>2014-06-02T10:56:10Z</time>
      </trkpt>
      <trkpt lat="46.125869052484632" lon="8.155386680737138">
        <ele>1873.27</ele>
        <time>2014-06-02T10:56:11Z</time>
      </trkpt>
      <trkpt lat="46.125862179324031" lon="8.155377963557839">
        <ele>1869.9000000000001</ele>
        <time>2014-06-02T10:56:13Z</time>
      </trkpt>
      <trkpt lat="46.125832507386804" lon="8.15523580648005">
        <ele>1867.98</ele>
        <time>2014-06-02T10:56:26Z</time>
      </trkpt>
      <trkpt lat="46.125760087743402" lon="8.155219713225961">
        <ele>1864.6099999999999</ele>
        <time>2014-06-02T10:56:36Z</time>
      </trkpt>
      <trkpt lat="46.125751873478293" lon="8.155211247503758">
        <ele>1864.1300000000001</ele>
        <time>2014-06-02T10:56:37Z</time>
      </trkpt>
      <trkpt lat="46.125724632292986" lon="8.155253827571869">
        <ele>1862.21</ele>
        <time>2014-06-02T10:56:49Z</time>
      </trkpt>
      <trkpt lat="46.125651458278298" lon="8.155243517830968">
        <ele>1858.8499999999999</ele>
        <time>2014-06-02T10:56:59Z</time>
      </trkpt>
      <trkpt lat="46.125635867938399" lon="8.155289450660348">
        <ele>1858.3699999999999</ele>
        <time>2014-06-02T10:57:04Z</time>
      </trkpt>
      <trkpt lat="46.125567303970456" lon="8.155338317155838">
        <ele>1855.48</ele>
        <time>2014-06-02T10:57:14Z</time>
      </trkpt>
      <trkpt lat="46.125562777742743" lon="8.15533647313714">
        <ele>1855</ele>
        <time>2014-06-02T10:57:15Z</time>
      </trkpt>
      <trkpt lat="46.125531848520041" lon="8.155271178111434">
        <ele>1854.04</ele>
        <time>2014-06-02T10:57:26Z</time>
      </trkpt>
      <trkpt lat="46.125529585406184" lon="8.155283834785223">
        <ele>1853.5599999999999</ele>
        <time>2014-06-02T10:57:28Z</time>
      </trkpt>
      <trkpt lat="46.125466218218207" lon="8.155472427606583">
        <ele>1852.1199999999999</ele>
        <time>2014-06-02T10:57:43Z</time>
      </trkpt>
      <trkpt lat="46.125450879335403" lon="8.155487012118101">
        <ele>1851.6400000000001</ele>
        <time>2014-06-02T10:57:45Z</time>
      </trkpt>
      <trkpt lat="46.125402515754104" lon="8.155540572479367">
        <ele>1849.71</ele>
        <time>2014-06-02T10:57:52Z</time>
      </trkpt>
      <trkpt lat="46.125331772491336" lon="8.155498746782541">
        <ele>1846.3499999999999</ele>
        <time>2014-06-02T10:58:02Z</time>
      </trkpt>
      <trkpt lat="46.125276200473309" lon="8.155465554445982">
        <ele>1842.98</ele>
        <time>2014-06-02T10:58:10Z</time>
      </trkpt>
      <trkpt lat="46.125213839113712" lon="8.155571334064007">
        <ele>1840.0999999999999</ele>
        <time>2014-06-02T10:58:20Z</time>
      </trkpt>
      <trkpt lat="46.125195398926735" lon="8.155574938282371">
        <ele>1839.6199999999999</ele>
        <time>2014-06-02T10:58:22Z</time>
      </trkpt>
      <trkpt lat="46.125184502452612" lon="8.155529592186213">
        <ele>1839.6199999999999</ele>
        <time>2014-06-02T10:58:25Z</time>
      </trkpt>
      <trkpt lat="46.125201350077987" lon="8.155486509203911">
        <ele>1839.1400000000001</ele>
        <time>2014-06-02T10:58:28Z</time>
      </trkpt>
      <trkpt lat="46.125186681747437" lon="8.155357511714101">
        <ele>1837.7</ele>
        <time>2014-06-02T10:58:41Z</time>
      </trkpt>
      <trkpt lat="46.12511208280921" lon="8.155278051272035">
        <ele>1840.0999999999999</ele>
        <time>2014-06-02T10:58:56Z</time>
      </trkpt>
      <trkpt lat="46.125062881037593" lon="8.155302610248327">
        <ele>1841.0599999999999</ele>
        <time>2014-06-02T10:59:07Z</time>
      </trkpt>
      <trkpt lat="46.124998172745109" lon="8.155314512550831">
        <ele>1842.5</ele>
        <time>2014-06-02T10:59:22Z</time>
      </trkpt>
      <trkpt lat="46.124906474724412" lon="8.155261119827628">
        <ele>1845.8699999999999</ele>
        <time>2014-06-02T10:59:36Z</time>
      </trkpt>
      <trkpt lat="46.124798515811563" lon="8.155207224190235">
        <ele>1843.47</ele>
        <time>2014-06-02T10:59:49Z</time>
      </trkpt>
      <trkpt lat="46.124727772548795" lon="8.155194399878383">
        <ele>1842.98</ele>
        <time>2014-06-02T10:59:57Z</time>
      </trkpt>
      <trkpt lat="46.124600954353809" lon="8.155230693519115">
        <ele>1840.5799999999999</ele>
        <time>2014-06-02T11:00:08Z</time>
      </trkpt>
      <trkpt lat="46.124506490305066" lon="8.155344938859344">
        <ele>1839.1400000000001</ele>
        <time>2014-06-02T11:00:20Z</time>
      </trkpt>
      <trkpt lat="46.124419150874019" lon="8.155314261093736">
        <ele>1839.1400000000001</ele>
        <time>2014-06-02T11:00:29Z</time>
      </trkpt>
      <trkpt lat="46.124373050406575" lon="8.155273608863354">
        <ele>1840.5799999999999</ele>
        <time>2014-06-02T11:00:35Z</time>
      </trkpt>
      <trkpt lat="46.124341618269682" lon="8.155261455103755">
        <ele>1841.54</ele>
        <time>2014-06-02T11:00:40Z</time>
      </trkpt>
      <trkpt lat="46.124325944110751" lon="8.155303196981549">
        <ele>1842.02</ele>
        <time>2014-06-02T11:00:44Z</time>
      </trkpt>
      <trkpt lat="46.124190157279372" lon="8.155407970771194">
        <ele>1842.02</ele>
        <time>2014-06-02T11:00:58Z</time>
      </trkpt>
      <trkpt lat="46.124173225834966" lon="8.155426159501076">
        <ele>1842.02</ele>
        <time>2014-06-02T11:01:00Z</time>
      </trkpt>
      <trkpt lat="46.124104997143149" lon="8.155593713745475">
        <ele>1841.0599999999999</ele>
        <time>2014-06-02T11:01:12Z</time>
      </trkpt>
      <trkpt lat="46.1240713018924" lon="8.155712150037289">
        <ele>1840.0999999999999</ele>
        <time>2014-06-02T11:01:20Z</time>
      </trkpt>
      <trkpt lat="46.124063674360514" lon="8.155824467539787">
        <ele>1839.1400000000001</ele>
        <time>2014-06-02T11:01:27Z</time>
      </trkpt>
      <trkpt lat="46.124105164781213" lon="8.155894372612238">
        <ele>1838.6600000000001</ele>
        <time>2014-06-02T11:01:33Z</time>
      </trkpt>
      <trkpt lat="46.124109691008925" lon="8.155919769778848">
        <ele>1838.6600000000001</ele>
        <time>2014-06-02T11:01:35Z</time>
      </trkpt>
      <trkpt lat="46.124038277193904" lon="8.155986238270998">
        <ele>1838.1800000000001</ele>
        <time>2014-06-02T11:01:42Z</time>
      </trkpt>
      <trkpt lat="46.123952446505427" lon="8.156140968203545">
        <ele>1837.7</ele>
        <time>2014-06-02T11:01:55Z</time>
      </trkpt>
      <trkpt lat="46.123927971348166" lon="8.156168293207884">
        <ele>1837.7</ele>
        <time>2014-06-02T11:02:01Z</time>
      </trkpt>
      <trkpt lat="46.12394766882062" lon="8.156264182180166">
        <ele>1836.26</ele>
        <time>2014-06-02T11:02:10Z</time>
      </trkpt>
      <trkpt lat="46.123972563073039" lon="8.156317658722401">
        <ele>1835.77</ele>
        <time>2014-06-02T11:02:15Z</time>
      </trkpt>
      <trkpt lat="46.123930737376213" lon="8.156420672312379">
        <ele>1833.8499999999999</ele>
        <time>2014-06-02T11:02:22Z</time>
      </trkpt>
      <trkpt lat="46.12386804074049" lon="8.156504910439253">
        <ele>1833.3699999999999</ele>
        <time>2014-06-02T11:02:36Z</time>
      </trkpt>
      <trkpt lat="46.123853037133813" lon="8.15651505254209">
        <ele>1833.3699999999999</ele>
        <time>2014-06-02T11:02:51Z</time>
      </trkpt>
      <trkpt lat="46.123868292197585" lon="8.156555285677314">
        <ele>1833.3699999999999</ele>
        <time>2014-06-02T11:03:30Z</time>
      </trkpt>
      <trkpt lat="46.123862843960524" lon="8.156542209908366">
        <ele>1833.3699999999999</ele>
        <time>2014-06-02T11:03:57Z</time>
      </trkpt>
      <trkpt lat="46.123874159529805" lon="8.156547993421555">
        <ele>1833.3699999999999</ele>
        <time>2014-06-02T11:04:27Z</time>
      </trkpt>
      <trkpt lat="46.123857395723462" lon="8.156515974551439">
        <ele>1833.3699999999999</ele>
        <time>2014-06-02T11:04:57Z</time>
      </trkpt>
      <trkpt lat="46.123863346874714" lon="8.156516058370471">
        <ele>1833.3699999999999</ele>
        <time>2014-06-02T11:05:20Z</time>
      </trkpt>
      <trkpt lat="46.123850271105766" lon="8.156484374776483">
        <ele>1833.3699999999999</ele>
        <time>2014-06-02T11:05:40Z</time>
      </trkpt>
      <trkpt lat="46.123861083760858" lon="8.156521255150437">
        <ele>1833.8499999999999</ele>
        <time>2014-06-02T11:06:06Z</time>
      </trkpt>
      <trkpt lat="46.123866196721792" lon="8.156524272635579">
        <ele>1833.8499999999999</ele>
        <time>2014-06-02T11:06:21Z</time>
      </trkpt>
      <trkpt lat="46.123847002163529" lon="8.156515723094344">
        <ele>1833.8499999999999</ele>
        <time>2014-06-02T11:06:48Z</time>
      </trkpt>
      <trkpt lat="46.123856054618955" lon="8.156519830226898">
        <ele>1833.8499999999999</ele>
        <time>2014-06-02T11:07:14Z</time>
      </trkpt>
      <trkpt lat="46.123861335217953" lon="8.156527038663626">
        <ele>1833.8499999999999</ele>
        <time>2014-06-02T11:07:48Z</time>
      </trkpt>
      <trkpt lat="46.123865023255348" lon="8.156532486900687">
        <ele>1833.8499999999999</ele>
        <time>2014-06-02T11:08:23Z</time>
      </trkpt>
      <trkpt lat="46.123868459835649" lon="8.156521171331406">
        <ele>1834.3299999999999</ele>
        <time>2014-06-02T11:08:53Z</time>
      </trkpt>
      <trkpt lat="46.123862760141492" lon="8.156507341191173">
        <ele>1833.8499999999999</ele>
        <time>2014-06-02T11:09:27Z</time>
      </trkpt>
      <trkpt lat="46.123861586675048" lon="8.156513879075646">
        <ele>1833.8499999999999</ele>
        <time>2014-06-02T11:10:07Z</time>
      </trkpt>
      <trkpt lat="46.123864771798253" lon="8.156488230451942">
        <ele>1834.3299999999999</ele>
        <time>2014-06-02T11:10:34Z</time>
      </trkpt>
      <trkpt lat="46.123868795111775" lon="8.156501222401857">
        <ele>1833.8499999999999</ele>
        <time>2014-06-02T11:11:12Z</time>
      </trkpt>
      <trkpt lat="46.123869214206934" lon="8.156498037278652">
        <ele>1834.3299999999999</ele>
        <time>2014-06-02T11:11:41Z</time>
      </trkpt>
      <trkpt lat="46.123874243348837" lon="8.156513292342424">
        <ele>1834.3299999999999</ele>
        <time>2014-06-02T11:12:16Z</time>
      </trkpt>
      <trkpt lat="46.123872064054012" lon="8.156499546021223">
        <ele>1834.3299999999999</ele>
        <time>2014-06-02T11:12:44Z</time>
      </trkpt>
      <trkpt lat="46.123870136216283" lon="8.156501641497016">
        <ele>1834.3299999999999</ele>
        <time>2014-06-02T11:13:20Z</time>
      </trkpt>
      <trkpt lat="46.123867202550173" lon="8.156494433060288">
        <ele>1834.3299999999999</ele>
        <time>2014-06-02T11:13:54Z</time>
      </trkpt>
      <trkpt lat="46.123870890587568" lon="8.156508347019553">
        <ele>1834.3299999999999</ele>
        <time>2014-06-02T11:14:31Z</time>
      </trkpt>
      <trkpt lat="46.123873656615615" lon="8.156509855762124">
        <ele>1834.3299999999999</ele>
        <time>2014-06-02T11:14:58Z</time>
      </trkpt>
      <trkpt lat="46.12386217340827" lon="8.156514968723059">
        <ele>1834.3299999999999</ele>
        <time>2014-06-02T11:15:28Z</time>
      </trkpt>
      <trkpt lat="46.123864268884063" lon="8.156517148017883">
        <ele>1834.3299999999999</ele>
        <time>2014-06-02T11:15:54Z</time>
      </trkpt>
      <trkpt lat="46.12385144457221" lon="8.156511196866632">
        <ele>1834.8099999999999</ele>
        <time>2014-06-02T11:16:19Z</time>
      </trkpt>
      <trkpt lat="46.123850019648671" lon="8.156511867418885">
        <ele>1834.8099999999999</ele>
        <time>2014-06-02T11:16:27Z</time>
      </trkpt>
      <trkpt lat="46.123875835910439" lon="8.156525613740087">
        <ele>1835.29</ele>
        <time>2014-06-02T11:16:39Z</time>
      </trkpt>
      <trkpt lat="46.123892683535814" lon="8.156463084742427">
        <ele>1836.26</ele>
        <time>2014-06-02T11:16:45Z</time>
      </trkpt>
      <trkpt lat="46.124053029343486" lon="8.156356466934085">
        <ele>1834.3299999999999</ele>
        <time>2014-06-02T11:17:02Z</time>
      </trkpt>
      <trkpt lat="46.12415973097086" lon="8.156250435858965">
        <ele>1832.8900000000001</ele>
        <time>2014-06-02T11:17:16Z</time>
      </trkpt>
      <trkpt lat="46.124231396242976" lon="8.156115487217903">
        <ele>1833.8499999999999</ele>
        <time>2014-06-02T11:17:29Z</time>
      </trkpt>
      <trkpt lat="46.124298870563507" lon="8.156010797247291">
        <ele>1833.8499999999999</ele>
        <time>2014-06-02T11:17:39Z</time>
      </trkpt>
      <trkpt lat="46.124306162819266" lon="8.155981376767159">
        <ele>1833.8499999999999</ele>
        <time>2014-06-02T11:17:41Z</time>
      </trkpt>
      <trkpt lat="46.124365171417594" lon="8.155817342922092">
        <ele>1835.77</ele>
        <time>2014-06-02T11:17:56Z</time>
      </trkpt>
      <trkpt lat="46.124425856396556" lon="8.155679795891047">
        <ele>1835.77</ele>
        <time>2014-06-02T11:18:09Z</time>
      </trkpt>
      <trkpt lat="46.124498024582863" lon="8.155614081770182">
        <ele>1835.29</ele>
        <time>2014-06-02T11:18:18Z</time>
      </trkpt>
      <trkpt lat="46.124582178890705" lon="8.155522216111422">
        <ele>1836.74</ele>
        <time>2014-06-02T11:18:33Z</time>
      </trkpt>
      <trkpt lat="46.124667255207896" lon="8.155438397079706">
        <ele>1839.6199999999999</ele>
        <time>2014-06-02T11:18:47Z</time>
      </trkpt>
      <trkpt lat="46.12474906258285" lon="8.155364720150828">
        <ele>1841.0599999999999</ele>
        <time>2014-06-02T11:19:00Z</time>
      </trkpt>
      <trkpt lat="46.124823242425919" lon="8.155272016301751">
        <ele>1843.47</ele>
        <time>2014-06-02T11:19:15Z</time>
      </trkpt>
      <trkpt lat="46.124894488602877" lon="8.155316105112433">
        <ele>1843.95</ele>
        <time>2014-06-02T11:19:29Z</time>
      </trkpt>
      <trkpt lat="46.124908905476332" lon="8.155312165617943">
        <ele>1843.95</ele>
        <time>2014-06-02T11:19:31Z</time>
      </trkpt>
      <trkpt lat="46.125031365081668" lon="8.15529783256352">
        <ele>1843.47</ele>
        <time>2014-06-02T11:19:46Z</time>
      </trkpt>
      <trkpt lat="46.125069335103035" lon="8.155305795371532">
        <ele>1841.54</ele>
        <time>2014-06-02T11:19:56Z</time>
      </trkpt>
      <trkpt lat="46.125076124444604" lon="8.155306382104754">
        <ele>1841.0599999999999</ele>
        <time>2014-06-02T11:19:58Z</time>
      </trkpt>
      <trkpt lat="46.125091882422566" lon="8.155316272750497">
        <ele>1840.5799999999999</ele>
        <time>2014-06-02T11:20:00Z</time>
      </trkpt>
      <trkpt lat="46.125159524381161" lon="8.1553765386343">
        <ele>1839.1400000000001</ele>
        <time>2014-06-02T11:20:09Z</time>
      </trkpt>
      <trkpt lat="46.125211492180824" lon="8.155452646315098">
        <ele>1838.1800000000001</ele>
        <time>2014-06-02T11:20:19Z</time>
      </trkpt>
      <trkpt lat="46.125187184661627" lon="8.15557099878788">
        <ele>1839.6199999999999</ele>
        <time>2014-06-02T11:20:32Z</time>
      </trkpt>
      <trkpt lat="46.125190705060959" lon="8.155669737607241">
        <ele>1838.6600000000001</ele>
        <time>2014-06-02T11:20:43Z</time>
      </trkpt>
      <trkpt lat="46.125201350077987" lon="8.155687926337123">
        <ele>1838.1800000000001</ele>
        <time>2014-06-02T11:20:45Z</time>
      </trkpt>
      <trkpt lat="46.125207720324397" lon="8.155708964914084">
        <ele>1838.1800000000001</ele>
        <time>2014-06-02T11:20:47Z</time>
      </trkpt>
      <trkpt lat="46.125217946246266" lon="8.155746515840292">
        <ele>1837.7</ele>
        <time>2014-06-02T11:20:50Z</time>
      </trkpt>
      <trkpt lat="46.125197242945433" lon="8.155989926308394">
        <ele>1838.1800000000001</ele>
        <time>2014-06-02T11:21:08Z</time>
      </trkpt>
      <trkpt lat="46.125195985659957" lon="8.156004929915071">
        <ele>1838.1800000000001</ele>
        <time>2014-06-02T11:21:09Z</time>
      </trkpt>
      <trkpt lat="46.125162458047271" lon="8.156177597120404">
        <ele>1839.1400000000001</ele>
        <time>2014-06-02T11:21:24Z</time>
      </trkpt>
      <trkpt lat="46.125190453603864" lon="8.156279856339097">
        <ele>1841.0599999999999</ele>
        <time>2014-06-02T11:21:35Z</time>
      </trkpt>
      <trkpt lat="46.125201685354114" lon="8.156353030353785">
        <ele>1840.5799999999999</ele>
        <time>2014-06-02T11:21:41Z</time>
      </trkpt>
      <trkpt lat="46.125205373391509" lon="8.156497785821557">
        <ele>1840.0999999999999</ele>
        <time>2014-06-02T11:21:54Z</time>
      </trkpt>
      <trkpt lat="46.125292796641588" lon="8.156654527410865">
        <ele>1839.1400000000001</ele>
        <time>2014-06-02T11:22:11Z</time>
      </trkpt>
      <trkpt lat="46.125313667580485" lon="8.156925430521369">
        <ele>1837.7</ele>
        <time>2014-06-02T11:22:30Z</time>
      </trkpt>
      <trkpt lat="46.125309141352773" lon="8.156949989497662">
        <ele>1838.1800000000001</ele>
        <time>2014-06-02T11:22:32Z</time>
      </trkpt>
      <trkpt lat="46.125276871025562" lon="8.157093739137054">
        <ele>1837.7</ele>
        <time>2014-06-02T11:22:43Z</time>
      </trkpt>
      <trkpt lat="46.125242589041591" lon="8.157300017774105">
        <ele>1835.29</ele>
        <time>2014-06-02T11:22:59Z</time>
      </trkpt>
      <trkpt lat="46.125202188268304" lon="8.157465141266584">
        <ele>1833.8499999999999</ele>
        <time>2014-06-02T11:23:14Z</time>
      </trkpt>
      <trkpt lat="46.12515902146697" lon="8.157534878700972">
        <ele>1833.3699999999999</ele>
        <time>2014-06-02T11:23:25Z</time>
      </trkpt>
      <trkpt lat="46.125154243782163" lon="8.157513923943043">
        <ele>1833.3699999999999</ele>
        <time>2014-06-02T11:23:45Z</time>
      </trkpt>
      <trkpt lat="46.125142341479659" lon="8.157534878700972">
        <ele>1833.3699999999999</ele>
        <time>2014-06-02T11:24:04Z</time>
      </trkpt>
      <trkpt lat="46.125149047002196" lon="8.15751719288528">
        <ele>1833.3699999999999</ele>
        <time>2014-06-02T11:24:34Z</time>
      </trkpt>
      <trkpt lat="46.125146867707372" lon="8.157518785446882">
        <ele>1833.3699999999999</ele>
        <time>2014-06-02T11:24:55Z</time>
      </trkpt>
      <trkpt lat="46.125165391713381" lon="8.157499171793461">
        <ele>1833.3699999999999</ele>
        <time>2014-06-02T11:25:12Z</time>
      </trkpt>
      <trkpt lat="46.125192800536752" lon="8.157503278926015">
        <ele>1832.8900000000001</ele>
        <time>2014-06-02T11:25:39Z</time>
      </trkpt>
      <trkpt lat="46.125222556293011" lon="8.157483162358403">
        <ele>1832.8900000000001</ele>
        <time>2014-06-02T11:25:45Z</time>
      </trkpt>
      <trkpt lat="46.125367730855942" lon="8.157427087426186">
        <ele>1833.3699999999999</ele>
        <time>2014-06-02T11:26:02Z</time>
      </trkpt>
      <trkpt lat="46.125493375584483" lon="8.157491628080607">
        <ele>1833.3699999999999</ele>
        <time>2014-06-02T11:26:16Z</time>
      </trkpt>
      <trkpt lat="46.125542912632227" lon="8.157635042443872">
        <ele>1833.3699999999999</ele>
        <time>2014-06-02T11:26:31Z</time>
      </trkpt>
      <trkpt lat="46.125552216544747" lon="8.15764669328928">
        <ele>1833.3699999999999</ele>
        <time>2014-06-02T11:26:36Z</time>
      </trkpt>
      <trkpt lat="46.125594796612859" lon="8.157800668850541">
        <ele>1834.3299999999999</ele>
        <time>2014-06-02T11:26:48Z</time>
      </trkpt>
      <trkpt lat="46.125576188787818" lon="8.158024130389094">
        <ele>1834.3299999999999</ele>
        <time>2014-06-02T11:27:05Z</time>
      </trkpt>
      <trkpt lat="46.125578200444579" lon="8.158258488401771">
        <ele>1835.77</ele>
        <time>2014-06-02T11:27:23Z</time>
      </trkpt>
      <trkpt lat="46.125557916238904" lon="8.15844121389091">
        <ele>1836.74</ele>
        <time>2014-06-02T11:27:38Z</time>
      </trkpt>
      <trkpt lat="46.125511396676302" lon="8.15865864045918">
        <ele>1837.22</ele>
        <time>2014-06-02T11:27:55Z</time>
      </trkpt>
      <trkpt lat="46.125468313694" lon="8.158829798921943">
        <ele>1838.1800000000001</ele>
        <time>2014-06-02T11:28:09Z</time>
      </trkpt>
      <trkpt lat="46.125455992296338" lon="8.159002047032118">
        <ele>1839.6199999999999</ele>
        <time>2014-06-02T11:28:24Z</time>
      </trkpt>
      <trkpt lat="46.125466553494334" lon="8.159140767529607">
        <ele>1840.0999999999999</ele>
        <time>2014-06-02T11:28:34Z</time>
      </trkpt>
      <trkpt lat="46.125425146892667" lon="8.159349896013737">
        <ele>1841.54</ele>
        <time>2014-06-02T11:28:50Z</time>
      </trkpt>
      <trkpt lat="46.12535247579217" lon="8.159505296498537">
        <ele>1842.98</ele>
        <time>2014-06-02T11:29:05Z</time>
      </trkpt>
      <trkpt lat="46.125321127474308" lon="8.159634713083506">
        <ele>1844.9100000000001</ele>
        <time>2014-06-02T11:29:18Z</time>
      </trkpt>
      <trkpt lat="46.125294975936413" lon="8.15981375053525">
        <ele>1845.8699999999999</ele>
        <time>2014-06-02T11:29:33Z</time>
      </trkpt>
      <trkpt lat="46.125234374776483" lon="8.159935874864459">
        <ele>1847.79</ele>
        <time>2014-06-02T11:29:48Z</time>
      </trkpt>
      <trkpt lat="46.12514678388834" lon="8.160062106326222">
        <ele>1850.1900000000001</ele>
        <time>2014-06-02T11:30:04Z</time>
      </trkpt>
      <trkpt lat="46.125119291245937" lon="8.16012404859066">
        <ele>1851.1600000000001</ele>
        <time>2014-06-02T11:30:17Z</time>
      </trkpt>
      <trkpt lat="46.125105293467641" lon="8.160252207890153">
        <ele>1851.1600000000001</ele>
        <time>2014-06-02T11:30:32Z</time>
      </trkpt>
      <trkpt lat="46.125091211870313" lon="8.160319766029716">
        <ele>1849.23</ele>
        <time>2014-06-02T11:30:43Z</time>
      </trkpt>
      <trkpt lat="46.125086769461632" lon="8.160384641960263">
        <ele>1847.3099999999999</ele>
        <time>2014-06-02T11:30:54Z</time>
      </trkpt>
      <trkpt lat="46.125081740319729" lon="8.160422863438726">
        <ele>1845.8699999999999</ele>
        <time>2014-06-02T11:31:02Z</time>
      </trkpt>
      <trkpt lat="46.125128595158458" lon="8.160451613366604">
        <ele>1844.4300000000001</ele>
        <time>2014-06-02T11:31:16Z</time>
      </trkpt>
      <trkpt lat="46.125207971781492" lon="8.160486817359924">
        <ele>1841.0599999999999</ele>
        <time>2014-06-02T11:31:29Z</time>
      </trkpt>
      <trkpt lat="46.125283911824226" lon="8.160538282245398">
        <ele>1838.1800000000001</ele>
        <time>2014-06-02T11:31:42Z</time>
      </trkpt>
      <trkpt lat="46.125388517975807" lon="8.160624364390969">
        <ele>1834.8099999999999</ele>
        <time>2014-06-02T11:31:57Z</time>
      </trkpt>
      <trkpt lat="46.125429002568126" lon="8.160727126523852">
        <ele>1832.8900000000001</ele>
        <time>2014-06-02T11:32:06Z</time>
      </trkpt>
      <trkpt lat="46.125463955104351" lon="8.160818573087454">
        <ele>1831.45</ele>
        <time>2014-06-02T11:32:14Z</time>
      </trkpt>
      <trkpt lat="46.125471079722047" lon="8.160887388512492">
        <ele>1830.49</ele>
        <time>2014-06-02T11:32:20Z</time>
      </trkpt>
      <trkpt lat="46.125537799671292" lon="8.16104706376791">
        <ele>1827.5999999999999</ele>
        <time>2014-06-02T11:32:35Z</time>
      </trkpt>
      <trkpt lat="46.12557434476912" lon="8.161170110106468">
        <ele>1824.72</ele>
        <time>2014-06-02T11:32:48Z</time>
      </trkpt>
      <trkpt lat="46.125615248456597" lon="8.161269435659051">
        <ele>1822.8</ele>
        <time>2014-06-02T11:32:59Z</time>
      </trkpt>
      <trkpt lat="46.125694289803505" lon="8.161397930234671">
        <ele>1820.3900000000001</ele>
        <time>2014-06-02T11:33:13Z</time>
      </trkpt>
      <trkpt lat="46.125730248168111" lon="8.16151125356555">
        <ele>1817.51</ele>
        <time>2014-06-02T11:33:25Z</time>
      </trkpt>
      <trkpt lat="46.125757405534387" lon="8.161652404814959">
        <ele>1814.6300000000001</ele>
        <time>2014-06-02T11:33:39Z</time>
      </trkpt>
      <trkpt lat="46.125797219574451" lon="8.161766566336155">
        <ele>1811.26</ele>
        <time>2014-06-02T11:33:51Z</time>
      </trkpt>
      <trkpt lat="46.125823371112347" lon="8.161838734522462">
        <ele>1809.8199999999999</ele>
        <time>2014-06-02T11:33:58Z</time>
      </trkpt>
      <trkpt lat="46.125881457701325" lon="8.161983070895076">
        <ele>1806.9400000000001</ele>
        <time>2014-06-02T11:34:12Z</time>
      </trkpt>
      <trkpt lat="46.125886151567101" lon="8.162040989845991">
        <ele>1805.97</ele>
        <time>2014-06-02T11:34:16Z</time>
      </trkpt>
      <trkpt lat="46.125940550118685" lon="8.162188092246652">
        <ele>1803.0899999999999</ele>
        <time>2014-06-02T11:34:30Z</time>
      </trkpt>
      <trkpt lat="46.126010539010167" lon="8.162321448326111">
        <ele>1800.6900000000001</ele>
        <time>2014-06-02T11:34:45Z</time>
      </trkpt>
      <trkpt lat="46.126084215939045" lon="8.16242647357285">
        <ele>1799.73</ele>
        <time>2014-06-02T11:35:00Z</time>
      </trkpt>
      <trkpt lat="46.126150852069259" lon="8.162593357264996">
        <ele>1797.3199999999999</ele>
        <time>2014-06-02T11:35:13Z</time>
      </trkpt>
      <trkpt lat="46.126174908131361" lon="8.162646414712071">
        <ele>1795.8800000000001</ele>
        <time>2014-06-02T11:35:26Z</time>
      </trkpt>
      <trkpt lat="46.126188570633531" lon="8.162696789950132">
        <ele>1795.4000000000001</ele>
        <time>2014-06-02T11:35:37Z</time>
      </trkpt>
      <trkpt lat="46.126157054677606" lon="8.162794858217239">
        <ele>1794.4400000000001</ele>
        <time>2014-06-02T11:35:52Z</time>
      </trkpt>
      <trkpt lat="46.126185804605484" lon="8.162861242890358">
        <ele>1793</ele>
        <time>2014-06-02T11:36:06Z</time>
      </trkpt>
      <trkpt lat="46.126214638352394" lon="8.162999376654625">
        <ele>1791.0699999999999</ele>
        <time>2014-06-02T11:36:19Z</time>
      </trkpt>
      <trkpt lat="46.126273144036531" lon="8.163080681115389">
        <ele>1787.71</ele>
        <time>2014-06-02T11:36:33Z</time>
      </trkpt>
      <trkpt lat="46.126335840672255" lon="8.16316039301455">
        <ele>1784.8199999999999</ele>
        <time>2014-06-02T11:36:48Z</time>
      </trkpt>
      <trkpt lat="46.126356543973088" lon="8.163205655291677">
        <ele>1783.8599999999999</ele>
        <time>2014-06-02T11:36:59Z</time>
      </trkpt>
      <trkpt lat="46.126426113769412" lon="8.163218814879656">
        <ele>1781.9400000000001</ele>
        <time>2014-06-02T11:37:11Z</time>
      </trkpt>
      <trkpt lat="46.126358052715659" lon="8.163266927003861">
        <ele>1778.5799999999999</ele>
        <time>2014-06-02T11:37:24Z</time>
      </trkpt>
      <trkpt lat="46.126265851780772" lon="8.163327947258949">
        <ele>1775.21</ele>
        <time>2014-06-02T11:37:37Z</time>
      </trkpt>
      <trkpt lat="46.126337265595794" lon="8.163396762683988">
        <ele>1772.3299999999999</ele>
        <time>2014-06-02T11:37:50Z</time>
      </trkpt>
      <trkpt lat="46.126430304720998" lon="8.163437331095338">
        <ele>1768.48</ele>
        <time>2014-06-02T11:38:04Z</time>
      </trkpt>
      <trkpt lat="46.126491576433182" lon="8.16347161307931">
        <ele>1766.0799999999999</ele>
        <time>2014-06-02T11:38:15Z</time>
      </trkpt>
      <trkpt lat="46.126523092389107" lon="8.16349902190268">
        <ele>1764.6400000000001</ele>
        <time>2014-06-02T11:38:20Z</time>
      </trkpt>
      <trkpt lat="46.12658972851932" lon="8.163476474583149">
        <ele>1763.2</ele>
        <time>2014-06-02T11:38:26Z</time>
      </trkpt>
      <trkpt lat="46.126649156212807" lon="8.16348385065794">
        <ele>1761.75</ele>
        <time>2014-06-02T11:38:42Z</time>
      </trkpt>
      <trkpt lat="46.126703303307295" lon="8.16350975073874">
        <ele>1759.8299999999999</ele>
        <time>2014-06-02T11:38:59Z</time>
      </trkpt>
      <trkpt lat="46.126754768192768" lon="8.16351855173707">
        <ele>1758.8699999999999</ele>
        <time>2014-06-02T11:39:15Z</time>
      </trkpt>
      <trkpt lat="46.126795588061213" lon="8.163542188704014">
        <ele>1757.9100000000001</ele>
        <time>2014-06-02T11:39:25Z</time>
      </trkpt>
      <trkpt lat="46.126888794824481" lon="8.163619302213192">
        <ele>1755.5</ele>
        <time>2014-06-02T11:39:41Z</time>
      </trkpt>
      <trkpt lat="46.126876389607787" lon="8.163635646924377">
        <ele>1755.02</ele>
        <time>2014-06-02T11:39:54Z</time>
      </trkpt>
      <trkpt lat="46.126862391829491" lon="8.163656182587147">
        <ele>1755.02</ele>
        <time>2014-06-02T11:40:16Z</time>
      </trkpt>
      <trkpt lat="46.126857697963715" lon="8.16356155090034">
        <ele>1755.5</ele>
        <time>2014-06-02T11:40:48Z</time>
      </trkpt>
      <trkpt lat="46.126893572509289" lon="8.163614524528384">
        <ele>1756.47</ele>
        <time>2014-06-02T11:41:15Z</time>
      </trkpt>
      <trkpt lat="46.126885693520308" lon="8.163588540628552">
        <ele>1756.47</ele>
        <time>2014-06-02T11:41:29Z</time>
      </trkpt>
      <trkpt lat="46.126881251111627" lon="8.163557024672627">
        <ele>1757.4300000000001</ele>
        <time>2014-06-02T11:41:40Z</time>
      </trkpt>
      <trkpt lat="46.126941349357367" lon="8.163493573665619">
        <ele>1756.47</ele>
        <time>2014-06-02T11:41:58Z</time>
      </trkpt>
      <trkpt lat="46.127057103440166" lon="8.163507906720042">
        <ele>1753.5799999999999</ele>
        <time>2014-06-02T11:42:11Z</time>
      </trkpt>
      <trkpt lat="46.127072693780065" lon="8.163507236167789">
        <ele>1753.0999999999999</ele>
        <time>2014-06-02T11:42:13Z</time>
      </trkpt>
      <trkpt lat="46.127198338508606" lon="8.163359463214874">
        <ele>1751.6600000000001</ele>
        <time>2014-06-02T11:42:28Z</time>
      </trkpt>
      <trkpt lat="46.127298753708601" lon="8.163162907585502">
        <ele>1750.7</ele>
        <time>2014-06-02T11:42:43Z</time>
      </trkpt>
      <trkpt lat="46.127364551648498" lon="8.16296006552875">
        <ele>1749.26</ele>
        <time>2014-06-02T11:42:57Z</time>
      </trkpt>
      <trkpt lat="46.127438815310597" lon="8.162922933697701">
        <ele>1747.8099999999999</ele>
        <time>2014-06-02T11:43:08Z</time>
      </trkpt>
      <trkpt lat="46.127533782273531" lon="8.162832325324416">
        <ele>1744.9300000000001</ele>
        <time>2014-06-02T11:43:20Z</time>
      </trkpt>
      <trkpt lat="46.127610811963677" lon="8.162826457992196">
        <ele>1743.01</ele>
        <time>2014-06-02T11:43:34Z</time>
      </trkpt>
      <trkpt lat="46.127643752843142" lon="8.162867948412895">
        <ele>1742.05</ele>
        <time>2014-06-02T11:43:40Z</time>
      </trkpt>
      <trkpt lat="46.127718770876527" lon="8.16294439136982">
        <ele>1740.1199999999999</ele>
        <time>2014-06-02T11:43:50Z</time>
      </trkpt>
      <trkpt lat="46.127862855792046" lon="8.162933243438602">
        <ele>1739.6400000000001</ele>
        <time>2014-06-02T11:44:03Z</time>
      </trkpt>
      <trkpt lat="46.127970311790705" lon="8.162869457155466">
        <ele>1739.1600000000001</ele>
        <time>2014-06-02T11:44:13Z</time>
      </trkpt>
      <trkpt lat="46.128118168562651" lon="8.162834169343114">
        <ele>1737.24</ele>
        <time>2014-06-02T11:44:27Z</time>
      </trkpt>
      <trkpt lat="46.128170387819409" lon="8.162779854610562">
        <ele>1738.2</ele>
        <time>2014-06-02T11:44:34Z</time>
      </trkpt>
      <trkpt lat="46.128258565440774" lon="8.162771137431264">
        <ele>1737.24</ele>
        <time>2014-06-02T11:44:41Z</time>
      </trkpt>
      <trkpt lat="46.128451600670815" lon="8.162717577069998">
        <ele>1736.28</ele>
        <time>2014-06-02T11:44:58Z</time>
      </trkpt>
      <trkpt lat="46.128607336431742" lon="8.162671560421586">
        <ele>1734.8399999999999</ele>
        <time>2014-06-02T11:45:11Z</time>
      </trkpt>
      <trkpt lat="46.128714373335242" lon="8.162616910412908">
        <ele>1733.8800000000001</ele>
        <time>2014-06-02T11:45:23Z</time>
      </trkpt>
      <trkpt lat="46.128760641440749" lon="8.162673572078347">
        <ele>1731.95</ele>
        <time>2014-06-02T11:45:29Z</time>
      </trkpt>
      <trkpt lat="46.128803892061114" lon="8.162685977295041">
        <ele>1730.99</ele>
        <time>2014-06-02T11:45:33Z</time>
      </trkpt>
      <trkpt lat="46.129008829593658" lon="8.162667285650969">
        <ele>1728.1099999999999</ele>
        <time>2014-06-02T11:45:49Z</time>
      </trkpt>
      <trkpt lat="46.129087200388312" lon="8.162639122456312">
        <ele>1728.1099999999999</ele>
        <time>2014-06-02T11:45:56Z</time>
      </trkpt>
      <trkpt lat="46.129274033010006" lon="8.162655048072338">
        <ele>1725.7</ele>
        <time>2014-06-02T11:46:11Z</time>
      </trkpt>
      <trkpt lat="46.129368329420686" lon="8.162647504359484">
        <ele>1724.74</ele>
        <time>2014-06-02T11:46:23Z</time>
      </trkpt>
      <trkpt lat="46.129397582262754" lon="8.162642559036613">
        <ele>1724.74</ele>
        <time>2014-06-02T11:46:25Z</time>
      </trkpt>
      <trkpt lat="46.129534626379609" lon="8.162608444690704">
        <ele>1722.8199999999999</ele>
        <time>2014-06-02T11:46:37Z</time>
      </trkpt>
      <trkpt lat="46.129659432917833" lon="8.16249243915081">
        <ele>1719.46</ele>
        <time>2014-06-02T11:46:51Z</time>
      </trkpt>
      <trkpt lat="46.129767140373588" lon="8.162431670352817">
        <ele>1716.5699999999999</ele>
        <time>2014-06-02T11:47:04Z</time>
      </trkpt>
      <trkpt lat="46.129814414307475" lon="8.162366123870015">
        <ele>1717.05</ele>
        <time>2014-06-02T11:47:29Z</time>
      </trkpt>
      <trkpt lat="46.129828914999962" lon="8.162340559065342">
        <ele>1716.0899999999999</ele>
        <time>2014-06-02T11:47:51Z</time>
      </trkpt>
      <trkpt lat="46.129932180047035" lon="8.162292782217264">
        <ele>1713.6900000000001</ele>
        <time>2014-06-02T11:48:05Z</time>
      </trkpt>
      <trkpt lat="46.130032176151872" lon="8.162186834961176">
        <ele>1710.3199999999999</ele>
        <time>2014-06-02T11:48:19Z</time>
      </trkpt>
      <trkpt lat="46.130106020718813" lon="8.162067057564855">
        <ele>1708.4000000000001</ele>
        <time>2014-06-02T11:48:36Z</time>
      </trkpt>
      <trkpt lat="46.130164358764887" lon="8.162132436409593">
        <ele>1707.4400000000001</ele>
        <time>2014-06-02T11:48:48Z</time>
      </trkpt>
      <trkpt lat="46.130191516131163" lon="8.162187756970525">
        <ele>1706</ele>
        <time>2014-06-02T11:49:05Z</time>
      </trkpt>
      <trkpt lat="46.130218170583248" lon="8.162208124995232">
        <ele>1705.04</ele>
        <time>2014-06-02T11:49:11Z</time>
      </trkpt>
      <trkpt lat="46.130314813926816" lon="8.162262691184878">
        <ele>1704.0699999999999</ele>
        <time>2014-06-02T11:49:27Z</time>
      </trkpt>
      <trkpt lat="46.13031649030745" lon="8.162267133593559">
        <ele>1704.0699999999999</ele>
        <time>2014-06-02T11:49:28Z</time>
      </trkpt>
      <trkpt lat="46.130286231637001" lon="8.162302756682038">
        <ele>1703.1099999999999</ele>
        <time>2014-06-02T11:49:40Z</time>
      </trkpt>
      <trkpt lat="46.130265612155199" lon="8.162291524931788">
        <ele>1702.6300000000001</ele>
        <time>2014-06-02T11:49:59Z</time>
      </trkpt>
      <trkpt lat="46.130274999886751" lon="8.162290854379535">
        <ele>1702.1500000000001</ele>
        <time>2014-06-02T11:50:17Z</time>
      </trkpt>
      <trkpt lat="46.130278185009956" lon="8.16236293874681">
        <ele>1702.6300000000001</ele>
        <time>2014-06-02T11:50:31Z</time>
      </trkpt>
      <trkpt lat="46.130280951038003" lon="8.16238297149539">
        <ele>1702.1500000000001</ele>
        <time>2014-06-02T11:50:34Z</time>
      </trkpt>
      <trkpt lat="46.130336103960872" lon="8.162557315081358">
        <ele>1700.71</ele>
        <time>2014-06-02T11:50:49Z</time>
      </trkpt>
      <trkpt lat="46.130354041233659" lon="8.162598302587867">
        <ele>1699.75</ele>
        <time>2014-06-02T11:50:53Z</time>
      </trkpt>
      <trkpt lat="46.130440877750516" lon="8.162747668102384">
        <ele>1699.75</ele>
        <time>2014-06-02T11:51:08Z</time>
      </trkpt>
      <trkpt lat="46.130454791709781" lon="8.162781279534102">
        <ele>1699.27</ele>
        <time>2014-06-02T11:51:13Z</time>
      </trkpt>
      <trkpt lat="46.130463760346174" lon="8.162876917049289">
        <ele>1697.3399999999999</ele>
        <time>2014-06-02T11:51:25Z</time>
      </trkpt>
      <trkpt lat="46.13050315529108" lon="8.16290725953877">
        <ele>1696.8599999999999</ele>
        <time>2014-06-02T11:51:33Z</time>
      </trkpt>
      <trkpt lat="46.130572557449341" lon="8.162939278408885">
        <ele>1696.3800000000001</ele>
        <time>2014-06-02T11:51:40Z</time>
      </trkpt>
      <trkpt lat="46.13061698153615" lon="8.16299862228334">
        <ele>1695.9000000000001</ele>
        <time>2014-06-02T11:51:47Z</time>
      </trkpt>
      <trkpt lat="46.130667692050338" lon="8.163064252585173">
        <ele>1695.4200000000001</ele>
        <time>2014-06-02T11:51:58Z</time>
      </trkpt>
      <trkpt lat="46.130795180797577" lon="8.162998287007213">
        <ele>1694.46</ele>
        <time>2014-06-02T11:52:08Z</time>
      </trkpt>
      <trkpt lat="46.130846310406923" lon="8.163050254806876">
        <ele>1692.54</ele>
        <time>2014-06-02T11:52:20Z</time>
      </trkpt>
      <trkpt lat="46.13088570535183" lon="8.163096522912383">
        <ele>1690.1400000000001</ele>
        <time>2014-06-02T11:52:29Z</time>
      </trkpt>
      <trkpt lat="46.130927614867687" lon="8.163238260895014">
        <ele>1686.77</ele>
        <time>2014-06-02T11:52:43Z</time>
      </trkpt>
      <trkpt lat="46.130957286804914" lon="8.163275225088">
        <ele>1686.29</ele>
        <time>2014-06-02T11:52:48Z</time>
      </trkpt>
      <trkpt lat="46.13104160875082" lon="8.163456190377474">
        <ele>1686.77</ele>
        <time>2014-06-02T11:53:04Z</time>
      </trkpt>
      <trkpt lat="46.131071615964174" lon="8.163482425734401">
        <ele>1687.25</ele>
        <time>2014-06-02T11:53:19Z</time>
      </trkpt>
      <trkpt lat="46.131077567115426" lon="8.16350044682622">
        <ele>1688.21</ele>
        <time>2014-06-02T11:53:30Z</time>
      </trkpt>
      <trkpt lat="46.131064658984542" lon="8.163439845666289">
        <ele>1688.21</ele>
        <time>2014-06-02T11:53:49Z</time>
      </trkpt>
      <trkpt lat="46.13103867508471" lon="8.16346918232739">
        <ele>1687.73</ele>
        <time>2014-06-02T11:54:16Z</time>
      </trkpt>
      <trkpt lat="46.131153674796224" lon="8.163525257259607">
        <ele>1688.21</ele>
        <time>2014-06-02T11:54:43Z</time>
      </trkpt>
      <trkpt lat="46.131175886839628" lon="8.163536572828889">
        <ele>1688.6900000000001</ele>
        <time>2014-06-02T11:54:46Z</time>
      </trkpt>
      <trkpt lat="46.131223579868674" lon="8.163645202293992">
        <ele>1689.1700000000001</ele>
        <time>2014-06-02T11:54:55Z</time>
      </trkpt>
      <trkpt lat="46.131219556555152" lon="8.16369641572237">
        <ele>1689.1700000000001</ele>
        <time>2014-06-02T11:54:58Z</time>
      </trkpt>
      <trkpt lat="46.131213856860995" lon="8.163734637200832">
        <ele>1689.1700000000001</ele>
        <time>2014-06-02T11:55:00Z</time>
      </trkpt>
      <trkpt lat="46.131241852417588" lon="8.16393630579114">
        <ele>1690.6199999999999</ele>
        <time>2014-06-02T11:55:15Z</time>
      </trkpt>
      <trkpt lat="46.131270350888371" lon="8.164119869470596">
        <ele>1691.5799999999999</ele>
        <time>2014-06-02T11:55:29Z</time>
      </trkpt>
      <trkpt lat="46.13132257014513" lon="8.1641352083534">
        <ele>1692.0599999999999</ele>
        <time>2014-06-02T11:55:36Z</time>
      </trkpt>
      <trkpt lat="46.131410580128431" lon="8.1642612721771">
        <ele>1689.6500000000001</ele>
        <time>2014-06-02T11:55:50Z</time>
      </trkpt>
      <trkpt lat="46.131445029750466" lon="8.164303014054894">
        <ele>1688.6900000000001</ele>
        <time>2014-06-02T11:55:55Z</time>
      </trkpt>
      <trkpt lat="46.131436061114073" lon="8.16434039734304">
        <ele>1688.21</ele>
        <time>2014-06-02T11:55:57Z</time>
      </trkpt>
      <trkpt lat="46.131444359198213" lon="8.164362357929349">
        <ele>1688.21</ele>
        <time>2014-06-02T11:55:59Z</time>
      </trkpt>
      <trkpt lat="46.131468918174505" lon="8.164392448961735">
        <ele>1688.21</ele>
        <time>2014-06-02T11:56:02Z</time>
      </trkpt>
      <trkpt lat="46.131527675315738" lon="8.164443662390113">
        <ele>1689.1700000000001</ele>
        <time>2014-06-02T11:56:08Z</time>
      </trkpt>
      <trkpt lat="46.131580732762814" lon="8.164508119225502">
        <ele>1687.73</ele>
        <time>2014-06-02T11:56:14Z</time>
      </trkpt>
      <trkpt lat="46.131640831008554" lon="8.164512477815151">
        <ele>1688.6900000000001</ele>
        <time>2014-06-02T11:56:20Z</time>
      </trkpt>
      <trkpt lat="46.131687434390187" lon="8.164527146145701">
        <ele>1689.1700000000001</ele>
        <time>2014-06-02T11:56:27Z</time>
      </trkpt>
      <trkpt lat="46.131750047206879" lon="8.164544245228171">
        <ele>1688.6900000000001</ele>
        <time>2014-06-02T11:56:34Z</time>
      </trkpt>
      <trkpt lat="46.131895389407873" lon="8.164497977122665">
        <ele>1687.25</ele>
        <time>2014-06-02T11:56:49Z</time>
      </trkpt>
      <trkpt lat="46.131966132670641" lon="8.16461113281548">
        <ele>1687.25</ele>
        <time>2014-06-02T11:57:03Z</time>
      </trkpt>
      <trkpt lat="46.132049448788166" lon="8.164780447259545">
        <ele>1686.29</ele>
        <time>2014-06-02T11:57:17Z</time>
      </trkpt>
      <trkpt lat="46.132113067433238" lon="8.16490625962615">
        <ele>1686.29</ele>
        <time>2014-06-02T11:57:32Z</time>
      </trkpt>
      <trkpt lat="46.132141314446926" lon="8.164976583793759">
        <ele>1685.3299999999999</ele>
        <time>2014-06-02T11:57:48Z</time>
      </trkpt>
      <trkpt lat="46.132247680798173" lon="8.165082614868879">
        <ele>1685.3299999999999</ele>
        <time>2014-06-02T11:58:02Z</time>
      </trkpt>
      <trkpt lat="46.13226511515677" lon="8.165099127218127">
        <ele>1684.8499999999999</ele>
        <time>2014-06-02T11:58:04Z</time>
      </trkpt>
      <trkpt lat="46.132308784872293" lon="8.165154447779059">
        <ele>1685.3299999999999</ele>
        <time>2014-06-02T11:58:09Z</time>
      </trkpt>
      <trkpt lat="46.13244297914207" lon="8.165306746959686">
        <ele>1681.48</ele>
        <time>2014-06-02T11:58:25Z</time>
      </trkpt>
      <trkpt lat="46.132453540340066" lon="8.165327366441488">
        <ele>1681</ele>
        <time>2014-06-02T11:58:27Z</time>
      </trkpt>
      <trkpt lat="46.132463263347745" lon="8.165333485230804">
        <ele>1681</ele>
        <time>2014-06-02T11:58:28Z</time>
      </trkpt>
      <trkpt lat="46.13254414871335" lon="8.165446976199746">
        <ele>1678.5999999999999</ele>
        <time>2014-06-02T11:58:41Z</time>
      </trkpt>
      <trkpt lat="46.132678175345063" lon="8.165532555431128">
        <ele>1675.72</ele>
        <time>2014-06-02T11:58:58Z</time>
      </trkpt>
      <trkpt lat="46.132735507562757" lon="8.165571447461844">
        <ele>1672.8299999999999</ele>
        <time>2014-06-02T11:59:10Z</time>
      </trkpt>
      <trkpt lat="46.13281630910933" lon="8.165615284815431">
        <ele>1669.95</ele>
        <time>2014-06-02T11:59:23Z</time>
      </trkpt>
      <trkpt lat="46.132910186424851" lon="8.165627773851156">
        <ele>1667.54</ele>
        <time>2014-06-02T11:59:35Z</time>
      </trkpt>
      <trkpt lat="46.132945474237204" lon="8.165694158524275">
        <ele>1665.6199999999999</ele>
        <time>2014-06-02T11:59:46Z</time>
      </trkpt>
      <trkpt lat="46.132998196408153" lon="8.165674796327949">
        <ele>1662.74</ele>
        <time>2014-06-02T11:59:59Z</time>
      </trkpt>
      <trkpt lat="46.133054187521338" lon="8.165689548477531">
        <ele>1659.8499999999999</ele>
        <time>2014-06-02T12:00:09Z</time>
      </trkpt>
      <trkpt lat="46.133098779246211" lon="8.165726764127612">
        <ele>1657.9300000000001</ele>
        <time>2014-06-02T12:00:15Z</time>
      </trkpt>
      <trkpt lat="46.133174803107977" lon="8.165857354179025">
        <ele>1656.97</ele>
        <time>2014-06-02T12:00:28Z</time>
      </trkpt>
      <trkpt lat="46.133227106183767" lon="8.165985681116581">
        <ele>1655.05</ele>
        <time>2014-06-02T12:00:41Z</time>
      </trkpt>
      <trkpt lat="46.133249653503299" lon="8.166063716635108">
        <ele>1652.1600000000001</ele>
        <time>2014-06-02T12:00:54Z</time>
      </trkpt>
      <trkpt lat="46.13327412866056" lon="8.16612389869988">
        <ele>1649.76</ele>
        <time>2014-06-02T12:01:04Z</time>
      </trkpt>
      <trkpt lat="46.133277397602797" lon="8.166250800713897">
        <ele>1646.4000000000001</ele>
        <time>2014-06-02T12:01:15Z</time>
      </trkpt>
      <trkpt lat="46.133256945759058" lon="8.166285082697868">
        <ele>1646.4000000000001</ele>
        <time>2014-06-02T12:01:17Z</time>
      </trkpt>
      <trkpt lat="46.133199278265238" lon="8.166253650560975">
        <ele>1644.47</ele>
        <time>2014-06-02T12:01:26Z</time>
      </trkpt>
      <trkpt lat="46.133219646289945" lon="8.166436376050115">
        <ele>1641.5899999999999</ele>
        <time>2014-06-02T12:01:40Z</time>
      </trkpt>
      <trkpt lat="46.133227609097958" lon="8.166467975825071">
        <ele>1640.6300000000001</ele>
        <time>2014-06-02T12:01:43Z</time>
      </trkpt>
      <trkpt lat="46.13329709507525" lon="8.166492450982332">
        <ele>1639.6700000000001</ele>
        <time>2014-06-02T12:01:55Z</time>
      </trkpt>
      <trkpt lat="46.133341602981091" lon="8.166488846763969">
        <ele>1637.26</ele>
        <time>2014-06-02T12:02:08Z</time>
      </trkpt>
      <trkpt lat="46.133377393707633" lon="8.166459677740932">
        <ele>1635.8199999999999</ele>
        <time>2014-06-02T12:02:14Z</time>
      </trkpt>
      <trkpt lat="46.133442018181086" lon="8.166496306657791">
        <ele>1634.3800000000001</ele>
        <time>2014-06-02T12:02:30Z</time>
      </trkpt>
      <trkpt lat="46.133478228002787" lon="8.166676936671138">
        <ele>1634.3800000000001</ele>
        <time>2014-06-02T12:02:48Z</time>
      </trkpt>
      <trkpt lat="46.133485184982419" lon="8.166652545332909">
        <ele>1633.9000000000001</ele>
        <time>2014-06-02T12:03:04Z</time>
      </trkpt>
      <trkpt lat="46.13347839564085" lon="8.166688336059451">
        <ele>1633.9000000000001</ele>
        <time>2014-06-02T12:03:19Z</time>
      </trkpt>
      <trkpt lat="46.133470684289932" lon="8.166723623871803">
        <ele>1633.9000000000001</ele>
        <time>2014-06-02T12:03:31Z</time>
      </trkpt>
      <trkpt lat="46.133488705381751" lon="8.16668339073658">
        <ele>1633.4200000000001</ele>
        <time>2014-06-02T12:03:44Z</time>
      </trkpt>
      <trkpt lat="46.133476970717311" lon="8.166699148714542">
        <ele>1633.4200000000001</ele>
        <time>2014-06-02T12:03:56Z</time>
      </trkpt>
      <trkpt lat="46.1334861908108" lon="8.166673751547933">
        <ele>1633.9000000000001</ele>
        <time>2014-06-02T12:04:14Z</time>
      </trkpt>
      <trkpt lat="46.13348719663918" lon="8.166606612503529">
        <ele>1633.4200000000001</ele>
        <time>2014-06-02T12:04:29Z</time>
      </trkpt>
      <trkpt lat="46.13350773230195" lon="8.166607366874814">
        <ele>1633.4200000000001</ele>
        <time>2014-06-02T12:04:53Z</time>
      </trkpt>
      <trkpt lat="46.133490717038512" lon="8.166718343272805">
        <ele>1632.46</ele>
        <time>2014-06-02T12:05:05Z</time>
      </trkpt>
      <trkpt lat="46.13348719663918" lon="8.166735023260117">
        <ele>1631.98</ele>
        <time>2014-06-02T12:05:07Z</time>
      </trkpt>
      <trkpt lat="46.133497087284923" lon="8.166751116514206">
        <ele>1631.49</ele>
        <time>2014-06-02T12:05:19Z</time>
      </trkpt>
      <trkpt lat="46.133468337357044" lon="8.166747596114874">
        <ele>1631.98</ele>
        <time>2014-06-02T12:05:38Z</time>
      </trkpt>
      <trkpt lat="46.133484179154038" lon="8.166816746816039">
        <ele>1631.98</ele>
        <time>2014-06-02T12:05:54Z</time>
      </trkpt>
      <trkpt lat="46.133468085899949" lon="8.16680165939033">
        <ele>1631.49</ele>
        <time>2014-06-02T12:06:12Z</time>
      </trkpt>
      <trkpt lat="46.133461883291602" lon="8.166794367134571">
        <ele>1631.98</ele>
        <time>2014-06-02T12:06:33Z</time>
      </trkpt>
      <trkpt lat="46.133485687896609" lon="8.166816243901849">
        <ele>1631.49</ele>
        <time>2014-06-02T12:06:52Z</time>
      </trkpt>
      <trkpt lat="46.133481077849865" lon="8.166826721280813">
        <ele>1631.49</ele>
        <time>2014-06-02T12:07:12Z</time>
      </trkpt>
      <trkpt lat="46.133462134748697" lon="8.166845496743918">
        <ele>1631.01</ele>
        <time>2014-06-02T12:07:38Z</time>
      </trkpt>
      <trkpt lat="46.133453417569399" lon="8.166957311332226">
        <ele>1631.01</ele>
        <time>2014-06-02T12:07:46Z</time>
      </trkpt>
      <trkpt lat="46.133440844714642" lon="8.167000394314528">
        <ele>1630.53</ele>
        <time>2014-06-02T12:07:50Z</time>
      </trkpt>
      <trkpt lat="46.133405808359385" lon="8.167051859200001">
        <ele>1630.05</ele>
        <time>2014-06-02T12:07:54Z</time>
      </trkpt>
      <trkpt lat="46.133367838338017" lon="8.167162165045738">
        <ele>1631.49</ele>
        <time>2014-06-02T12:08:02Z</time>
      </trkpt>
      <trkpt lat="46.133268512785435" lon="8.16726190969348">
        <ele>1631.98</ele>
        <time>2014-06-02T12:08:14Z</time>
      </trkpt>
      <trkpt lat="46.133204391226172" lon="8.167364252731204">
        <ele>1630.05</ele>
        <time>2014-06-02T12:08:24Z</time>
      </trkpt>
      <trkpt lat="46.133164158090949" lon="8.167424183338881">
        <ele>1629.0899999999999</ele>
        <time>2014-06-02T12:08:35Z</time>
      </trkpt>
      <trkpt lat="46.133129457011819" lon="8.167525436729193">
        <ele>1629.0899999999999</ele>
        <time>2014-06-02T12:08:47Z</time>
      </trkpt>
      <trkpt lat="46.133117973804474" lon="8.167539099231362">
        <ele>1628.6099999999999</ele>
        <time>2014-06-02T12:08:49Z</time>
      </trkpt>
      <trkpt lat="46.133097019046545" lon="8.167557790875435">
        <ele>1628.1300000000001</ele>
        <time>2014-06-02T12:08:51Z</time>
      </trkpt>
      <trkpt lat="46.133023845031857" lon="8.167720818892121">
        <ele>1625.73</ele>
        <time>2014-06-02T12:09:06Z</time>
      </trkpt>
      <trkpt lat="46.133010098710656" lon="8.167780414223671">
        <ele>1625.73</ele>
        <time>2014-06-02T12:09:11Z</time>
      </trkpt>
      <trkpt lat="46.133003812283278" lon="8.16802030429244">
        <ele>1622.8399999999999</ele>
        <time>2014-06-02T12:09:27Z</time>
      </trkpt>
      <trkpt lat="46.132978666573763" lon="8.168129352852702">
        <ele>1621.4000000000001</ele>
        <time>2014-06-02T12:09:40Z</time>
      </trkpt>
      <trkpt lat="46.132950251922011" lon="8.168197078630328">
        <ele>1619</ele>
        <time>2014-06-02T12:09:47Z</time>
      </trkpt>
      <trkpt lat="46.132956705987453" lon="8.168345857411623">
        <ele>1616.5899999999999</ele>
        <time>2014-06-02T12:10:02Z</time>
      </trkpt>
      <trkpt lat="46.132948407903314" lon="8.168363124132156">
        <ele>1616.1099999999999</ele>
        <time>2014-06-02T12:10:04Z</time>
      </trkpt>
      <trkpt lat="46.132896691560745" lon="8.168477537110448">
        <ele>1612.75</ele>
        <time>2014-06-02T12:10:15Z</time>
      </trkpt>
      <trkpt lat="46.132879927754402" lon="8.168514836579561">
        <ele>1611.79</ele>
        <time>2014-06-02T12:10:19Z</time>
      </trkpt>
      <trkpt lat="46.132885711267591" lon="8.168545598164201">
        <ele>1611.3099999999999</ele>
        <time>2014-06-02T12:10:21Z</time>
      </trkpt>
      <trkpt lat="46.132854698225856" lon="8.168706530705094">
        <ele>1607.9400000000001</ele>
        <time>2014-06-02T12:10:35Z</time>
      </trkpt>
      <trkpt lat="46.132827959954739" lon="8.168778363615274">
        <ele>1606.98</ele>
        <time>2014-06-02T12:10:39Z</time>
      </trkpt>
      <trkpt lat="46.132740033790469" lon="8.16891398280859">
        <ele>1606.02</ele>
        <time>2014-06-02T12:10:49Z</time>
      </trkpt>
      <trkpt lat="46.132602319121361" lon="8.169000735506415">
        <ele>1603.6199999999999</ele>
        <time>2014-06-02T12:11:05Z</time>
      </trkpt>
      <trkpt lat="46.132559739053249" lon="8.169028563424945">
        <ele>1600.73</ele>
        <time>2014-06-02T12:11:16Z</time>
      </trkpt>
      <trkpt lat="46.132531240582466" lon="8.169050440192223">
        <ele>1600.25</ele>
        <time>2014-06-02T12:11:21Z</time>
      </trkpt>
      <trkpt lat="46.132434429600835" lon="8.16918371245265">
        <ele>1598.8099999999999</ele>
        <time>2014-06-02T12:11:34Z</time>
      </trkpt>
      <trkpt lat="46.132307276129723" lon="8.169361492618918">
        <ele>1598.3299999999999</ele>
        <time>2014-06-02T12:11:51Z</time>
      </trkpt>
      <trkpt lat="46.13234918564558" lon="8.169532231986523">
        <ele>1599.29</ele>
        <time>2014-06-02T12:12:03Z</time>
      </trkpt>
      <trkpt lat="46.13235455006361" lon="8.169553689658642">
        <ele>1601.21</ele>
        <time>2014-06-02T12:12:10Z</time>
      </trkpt>
      <trkpt lat="46.132351532578468" lon="8.169582271948457">
        <ele>1600.73</ele>
        <time>2014-06-02T12:12:13Z</time>
      </trkpt>
      <trkpt lat="46.132330577820539" lon="8.169646393507719">
        <ele>1603.1400000000001</ele>
        <time>2014-06-02T12:12:17Z</time>
      </trkpt>
      <trkpt lat="46.132241394370794" lon="8.169780252501369">
        <ele>1602.1700000000001</ele>
        <time>2014-06-02T12:12:33Z</time>
      </trkpt>
      <trkpt lat="46.132258074358106" lon="8.169992482289672">
        <ele>1602.1700000000001</ele>
        <time>2014-06-02T12:12:48Z</time>
      </trkpt>
      <trkpt lat="46.132285231724381" lon="8.170103961601853">
        <ele>1602.1700000000001</ele>
        <time>2014-06-02T12:12:57Z</time>
      </trkpt>
      <trkpt lat="46.132297720760107" lon="8.170238072052598">
        <ele>1601.6900000000001</ele>
        <time>2014-06-02T12:13:05Z</time>
      </trkpt>
      <trkpt lat="46.132294870913029" lon="8.170380480587483">
        <ele>1599.29</ele>
        <time>2014-06-02T12:13:18Z</time>
      </trkpt>
      <trkpt lat="46.132303755730391" lon="8.170444183051586">
        <ele>1598.3299999999999</ele>
        <time>2014-06-02T12:13:21Z</time>
      </trkpt>
      <trkpt lat="46.132307611405849" lon="8.170489277690649">
        <ele>1598.3299999999999</ele>
        <time>2014-06-02T12:13:23Z</time>
      </trkpt>
      <trkpt lat="46.132381875067949" lon="8.170781135559082">
        <ele>1599.77</ele>
        <time>2014-06-02T12:13:39Z</time>
      </trkpt>
      <trkpt lat="46.132422359660268" lon="8.170851962640882">
        <ele>1601.21</ele>
        <time>2014-06-02T12:13:44Z</time>
      </trkpt>
      <trkpt lat="46.132455049082637" lon="8.170938799157739">
        <ele>1602.1700000000001</ele>
        <time>2014-06-02T12:13:50Z</time>
      </trkpt>
      <trkpt lat="46.13247130997479" lon="8.171118423342705">
        <ele>1603.6199999999999</ele>
        <time>2014-06-02T12:14:05Z</time>
      </trkpt>
      <trkpt lat="46.132480781525373" lon="8.171114064753056">
        <ele>1605.0599999999999</ele>
        <time>2014-06-02T12:14:19Z</time>
      </trkpt>
      <trkpt lat="46.132475165650249" lon="8.171120015904307">
        <ele>1603.6199999999999</ele>
        <time>2014-06-02T12:14:36Z</time>
      </trkpt>
      <trkpt lat="46.132464436814189" lon="8.171118088066578">
        <ele>1604.0999999999999</ele>
        <time>2014-06-02T12:14:52Z</time>
      </trkpt>
      <trkpt lat="46.132458988577127" lon="8.171102413907647">
        <ele>1603.6199999999999</ele>
        <time>2014-06-02T12:15:10Z</time>
      </trkpt>
      <trkpt lat="46.132497880607843" lon="8.171184053644538">
        <ele>1604.0999999999999</ele>
        <time>2014-06-02T12:15:34Z</time>
      </trkpt>
      <trkpt lat="46.132498886436224" lon="8.171161590144038">
        <ele>1604.5799999999999</ele>
        <time>2014-06-02T12:15:42Z</time>
      </trkpt>
      <trkpt lat="46.132466616109014" lon="8.171176593750715">
        <ele>1604.0999999999999</ele>
        <time>2014-06-02T12:16:08Z</time>
      </trkpt>
      <trkpt lat="46.132474159821868" lon="8.171156728640199">
        <ele>1604.0999999999999</ele>
        <time>2014-06-02T12:16:26Z</time>
      </trkpt>
      <trkpt lat="46.132470052689314" lon="8.17117533646524">
        <ele>1604.0999999999999</ele>
        <time>2014-06-02T12:16:40Z</time>
      </trkpt>
      <trkpt lat="46.132436105981469" lon="8.171202326193452">
        <ele>1605.0599999999999</ele>
        <time>2014-06-02T12:16:54Z</time>
      </trkpt>
      <trkpt lat="46.132373157888651" lon="8.171323193237186">
        <ele>1604.5799999999999</ele>
        <time>2014-06-02T12:17:05Z</time>
      </trkpt>
      <trkpt lat="46.13234331831336" lon="8.171449927613139">
        <ele>1604.5799999999999</ele>
        <time>2014-06-02T12:17:18Z</time>
      </trkpt>
      <trkpt lat="46.132265198975801" lon="8.171645393595099">
        <ele>1603.1400000000001</ele>
        <time>2014-06-02T12:17:33Z</time>
      </trkpt>
      <trkpt lat="46.132229408249259" lon="8.171943873167038">
        <ele>1601.6900000000001</ele>
        <time>2014-06-02T12:17:48Z</time>
      </trkpt>
      <trkpt lat="46.132208118215203" lon="8.172178566455841">
        <ele>1600.25</ele>
        <time>2014-06-02T12:18:02Z</time>
      </trkpt>
      <trkpt lat="46.132211219519377" lon="8.172240424901247">
        <ele>1599.77</ele>
        <time>2014-06-02T12:18:05Z</time>
      </trkpt>
      <trkpt lat="46.132203256711364" lon="8.172423988580704">
        <ele>1596.8900000000001</ele>
        <time>2014-06-02T12:18:19Z</time>
      </trkpt>
      <trkpt lat="46.132205938920379" lon="8.172496827319264">
        <ele>1595.45</ele>
        <time>2014-06-02T12:18:24Z</time>
      </trkpt>
      <trkpt lat="46.132217925041914" lon="8.172674020752311">
        <ele>1592.5599999999999</ele>
        <time>2014-06-02T12:18:38Z</time>
      </trkpt>
      <trkpt lat="46.132214991375804" lon="8.172689359635115">
        <ele>1592.5599999999999</ele>
        <time>2014-06-02T12:18:39Z</time>
      </trkpt>
      <trkpt lat="46.132158497348428" lon="8.172760019078851">
        <ele>1591.1199999999999</ele>
        <time>2014-06-02T12:18:44Z</time>
      </trkpt>
      <trkpt lat="46.132044922560453" lon="8.172769155353308">
        <ele>1590.6400000000001</ele>
        <time>2014-06-02T12:18:54Z</time>
      </trkpt>
      <trkpt lat="46.131892539560795" lon="8.172873174771667">
        <ele>1591.5999999999999</ele>
        <time>2014-06-02T12:19:10Z</time>
      </trkpt>
      <trkpt lat="46.131742838770151" lon="8.172918017953634">
        <ele>1591.1199999999999</ele>
        <time>2014-06-02T12:19:23Z</time>
      </trkpt>
      <trkpt lat="46.131573272868991" lon="8.173036286607385">
        <ele>1590.1600000000001</ele>
        <time>2014-06-02T12:19:40Z</time>
      </trkpt>
      <trkpt lat="46.131547959521413" lon="8.173161093145609">
        <ele>1589.6800000000001</ele>
        <time>2014-06-02T12:19:49Z</time>
      </trkpt>
      <trkpt lat="46.131530441343784" lon="8.173359911888838">
        <ele>1589.2</ele>
        <time>2014-06-02T12:20:04Z</time>
      </trkpt>
      <trkpt lat="46.131486687809229" lon="8.173495028167963">
        <ele>1586.3099999999999</ele>
        <time>2014-06-02T12:20:17Z</time>
      </trkpt>
      <trkpt lat="46.131412424147129" lon="8.173630814999342">
        <ele>1582.95</ele>
        <time>2014-06-02T12:20:31Z</time>
      </trkpt>
      <trkpt lat="46.131357690319419" lon="8.173718824982643">
        <ele>1580.0599999999999</ele>
        <time>2014-06-02T12:20:44Z</time>
      </trkpt>
      <trkpt lat="46.131352577358484" lon="8.173713125288487">
        <ele>1580.0599999999999</ele>
        <time>2014-06-02T12:20:45Z</time>
      </trkpt>
      <trkpt lat="46.131324414163828" lon="8.173465775325894">
        <ele>1577.1800000000001</ele>
        <time>2014-06-02T12:20:59Z</time>
      </trkpt>
      <trkpt lat="46.131317708641291" lon="8.17342353053391">
        <ele>1576.7</ele>
        <time>2014-06-02T12:21:01Z</time>
      </trkpt>
      <trkpt lat="46.131314020603895" lon="8.173284474760294">
        <ele>1576.22</ele>
        <time>2014-06-02T12:21:08Z</time>
      </trkpt>
      <trkpt lat="46.131283091381192" lon="8.173026647418737">
        <ele>1573.8199999999999</ele>
        <time>2014-06-02T12:21:25Z</time>
      </trkpt>
      <trkpt lat="46.131291640922427" lon="8.173049027100205">
        <ele>1571.4100000000001</ele>
        <time>2014-06-02T12:21:37Z</time>
      </trkpt>
      <trkpt lat="46.131293820217252" lon="8.173240385949612">
        <ele>1569.01</ele>
        <time>2014-06-02T12:21:52Z</time>
      </trkpt>
      <trkpt lat="46.131228860467672" lon="8.173438785597682">
        <ele>1565.6400000000001</ele>
        <time>2014-06-02T12:22:06Z</time>
      </trkpt>
      <trkpt lat="46.13121410831809" lon="8.173481617122889">
        <ele>1564.6800000000001</ele>
        <time>2014-06-02T12:22:10Z</time>
      </trkpt>
      <trkpt lat="46.13119843415916" lon="8.173515312373638">
        <ele>1563.72</ele>
        <time>2014-06-02T12:22:13Z</time>
      </trkpt>
      <trkpt lat="46.131127690896392" lon="8.173629222437739">
        <ele>1561.8</ele>
        <time>2014-06-02T12:22:24Z</time>
      </trkpt>
      <trkpt lat="46.131020486354828" lon="8.173756459727883">
        <ele>1558.9200000000001</ele>
        <time>2014-06-02T12:22:38Z</time>
      </trkpt>
      <trkpt lat="46.131017552688718" lon="8.173886127769947">
        <ele>1556.03</ele>
        <time>2014-06-02T12:22:50Z</time>
      </trkpt>
      <trkpt lat="46.131082093343139" lon="8.173993583768606">
        <ele>1555.0699999999999</ele>
        <time>2014-06-02T12:22:58Z</time>
      </trkpt>
      <trkpt lat="46.131151998415589" lon="8.174115791916847">
        <ele>1553.6300000000001</ele>
        <time>2014-06-02T12:23:11Z</time>
      </trkpt>
      <trkpt lat="46.131162978708744" lon="8.174145380035043">
        <ele>1552.6700000000001</ele>
        <time>2014-06-02T12:23:13Z</time>
      </trkpt>
      <trkpt lat="46.1311324685812" lon="8.174280328676105">
        <ele>1550.26</ele>
        <time>2014-06-02T12:23:23Z</time>
      </trkpt>
      <trkpt lat="46.131028449162841" lon="8.174282256513834">
        <ele>1548.8199999999999</ele>
        <time>2014-06-02T12:23:32Z</time>
      </trkpt>
      <trkpt lat="46.130956700071692" lon="8.174329865723848">
        <ele>1548.3399999999999</ele>
        <time>2014-06-02T12:23:40Z</time>
      </trkpt>
      <trkpt lat="46.130875311791897" lon="8.174362722784281">
        <ele>1546.4200000000001</ele>
        <time>2014-06-02T12:23:50Z</time>
      </trkpt>
      <trkpt lat="46.13081730902195" lon="8.174459869042039">
        <ele>1544.98</ele>
        <time>2014-06-02T12:23:59Z</time>
      </trkpt>
      <trkpt lat="46.130776656791568" lon="8.174535138532519">
        <ele>1544.01</ele>
        <time>2014-06-02T12:24:04Z</time>
      </trkpt>
      <trkpt lat="46.130627626553178" lon="8.174594985321164">
        <ele>1542.5699999999999</ele>
        <time>2014-06-02T12:24:17Z</time>
      </trkpt>
      <trkpt lat="46.130610108375549" lon="8.174617448821664">
        <ele>1542.0899999999999</ele>
        <time>2014-06-02T12:24:20Z</time>
      </trkpt>
      <trkpt lat="46.130547327920794" lon="8.174717025831342">
        <ele>1540.1700000000001</ele>
        <time>2014-06-02T12:24:32Z</time>
      </trkpt>
      <trkpt lat="46.130451606586576" lon="8.174901595339179">
        <ele>1538.25</ele>
        <time>2014-06-02T12:24:45Z</time>
      </trkpt>
      <trkpt lat="46.130306348204613" lon="8.175080213695765">
        <ele>1537.29</ele>
        <time>2014-06-02T12:25:00Z</time>
      </trkpt>
      <trkpt lat="46.130228228867054" lon="8.175211055204272">
        <ele>1536.3199999999999</ele>
        <time>2014-06-02T12:25:10Z</time>
      </trkpt>
      <trkpt lat="46.130127478390932" lon="8.175364611670375">
        <ele>1534.8800000000001</ele>
        <time>2014-06-02T12:25:24Z</time>
      </trkpt>
      <trkpt lat="46.130121443420649" lon="8.175376681610942">
        <ele>1534.4000000000001</ele>
        <time>2014-06-02T12:25:25Z</time>
      </trkpt>
      <trkpt lat="46.130059417337179" lon="8.175563011318445">
        <ele>1534.8800000000001</ele>
        <time>2014-06-02T12:25:41Z</time>
      </trkpt>
      <trkpt lat="46.130074840039015" lon="8.17558228969574">
        <ele>1534.8800000000001</ele>
        <time>2014-06-02T12:25:47Z</time>
      </trkpt>
      <trkpt lat="46.13005455583334" lon="8.17578018642962">
        <ele>1535.3599999999999</ele>
        <time>2014-06-02T12:26:01Z</time>
      </trkpt>
      <trkpt lat="46.130072912201285" lon="8.175996104255319">
        <ele>1532.96</ele>
        <time>2014-06-02T12:26:14Z</time>
      </trkpt>
      <trkpt lat="46.130042150616646" lon="8.176209172233939">
        <ele>1532</ele>
        <time>2014-06-02T12:26:27Z</time>
      </trkpt>
      <trkpt lat="46.130034020170569" lon="8.176367422565818">
        <ele>1532.48</ele>
        <time>2014-06-02T12:26:41Z</time>
      </trkpt>
      <trkpt lat="46.129986494779587" lon="8.176605384796858">
        <ele>1534.8800000000001</ele>
        <time>2014-06-02T12:26:56Z</time>
      </trkpt>
      <trkpt lat="46.130009042099118" lon="8.176772352308035">
        <ele>1537.29</ele>
        <time>2014-06-02T12:27:09Z</time>
      </trkpt>
      <trkpt lat="46.130031840875745" lon="8.176735807210207">
        <ele>1537.77</ele>
        <time>2014-06-02T12:27:26Z</time>
      </trkpt>
      <trkpt lat="46.130006108433008" lon="8.176931021735072">
        <ele>1538.25</ele>
        <time>2014-06-02T12:27:42Z</time>
      </trkpt>
      <trkpt lat="46.129968725144863" lon="8.1770383939147">
        <ele>1538.73</ele>
        <time>2014-06-02T12:27:55Z</time>
      </trkpt>
      <trkpt lat="46.130026308819652" lon="8.177326479926705">
        <ele>1539.6900000000001</ele>
        <time>2014-06-02T12:28:11Z</time>
      </trkpt>
      <trkpt lat="46.130048604682088" lon="8.177409209311009">
        <ele>1539.6900000000001</ele>
        <time>2014-06-02T12:28:18Z</time>
      </trkpt>
      <trkpt lat="46.130102081224322" lon="8.177515910938382">
        <ele>1538.73</ele>
        <time>2014-06-02T12:28:30Z</time>
      </trkpt>
      <trkpt lat="46.130184307694435" lon="8.177692769095302">
        <ele>1535.8399999999999</ele>
        <time>2014-06-02T12:28:45Z</time>
      </trkpt>
      <trkpt lat="46.130273742601275" lon="8.17784171551466">
        <ele>1536.3199999999999</ele>
        <time>2014-06-02T12:28:57Z</time>
      </trkpt>
      <trkpt lat="46.130342893302441" lon="8.177961744368076">
        <ele>1535.8399999999999</ele>
        <time>2014-06-02T12:29:13Z</time>
      </trkpt>
      <trkpt lat="46.130415312945843" lon="8.178149247542024">
        <ele>1534.4000000000001</ele>
        <time>2014-06-02T12:29:26Z</time>
      </trkpt>
      <trkpt lat="46.130558978766203" lon="8.178311185911298">
        <ele>1532.96</ele>
        <time>2014-06-02T12:29:43Z</time>
      </trkpt>
      <trkpt lat="46.130561996251345" lon="8.178353682160378">
        <ele>1532.96</ele>
        <time>2014-06-02T12:29:45Z</time>
      </trkpt>
      <trkpt lat="46.130574736744165" lon="8.178604301065207">
        <ele>1532.96</ele>
        <time>2014-06-02T12:29:59Z</time>
      </trkpt>
      <trkpt lat="46.130611784756184" lon="8.178729526698589">
        <ele>1529.5899999999999</ele>
        <time>2014-06-02T12:30:12Z</time>
      </trkpt>
      <trkpt lat="46.13067951053381" lon="8.178933374583721">
        <ele>1527.1900000000001</ele>
        <time>2014-06-02T12:30:29Z</time>
      </trkpt>
      <trkpt lat="46.130681270733476" lon="8.179018786177039">
        <ele>1525.27</ele>
        <time>2014-06-02T12:30:37Z</time>
      </trkpt>
      <trkpt lat="46.130639612674713" lon="8.179292371496558">
        <ele>1523.8299999999999</ele>
        <time>2014-06-02T12:30:51Z</time>
      </trkpt>
      <trkpt lat="46.130569037050009" lon="8.179430337622762">
        <ele>1525.27</ele>
        <time>2014-06-02T12:31:05Z</time>
      </trkpt>
      <trkpt lat="46.130508100613952" lon="8.179585989564657">
        <ele>1527.1900000000001</ele>
        <time>2014-06-02T12:31:20Z</time>
      </trkpt>
      <trkpt lat="46.130379773676395" lon="8.17984608002007">
        <ele>1528.1500000000001</ele>
        <time>2014-06-02T12:31:36Z</time>
      </trkpt>
      <trkpt lat="46.130343396216631" lon="8.180067529901862">
        <ele>1527.1900000000001</ele>
        <time>2014-06-02T12:31:51Z</time>
      </trkpt>
      <trkpt lat="46.130230156704783" lon="8.18029803223908">
        <ele>1526.23</ele>
        <time>2014-06-02T12:32:07Z</time>
      </trkpt>
      <trkpt lat="46.13016352057457" lon="8.180457958951592">
        <ele>1525.27</ele>
        <time>2014-06-02T12:32:20Z</time>
      </trkpt>
      <trkpt lat="46.130118006840348" lon="8.180591147392988">
        <ele>1523.8299999999999</ele>
        <time>2014-06-02T12:32:32Z</time>
      </trkpt>
      <trkpt lat="46.130068050697446" lon="8.180807819589973">
        <ele>1520.9400000000001</ele>
        <time>2014-06-02T12:32:47Z</time>
      </trkpt>
      <trkpt lat="46.1300237942487" lon="8.181085092946887">
        <ele>1518.0599999999999</ele>
        <time>2014-06-02T12:33:01Z</time>
      </trkpt>
      <trkpt lat="46.129991188645363" lon="8.181265471503139">
        <ele>1514.6900000000001</ele>
        <time>2014-06-02T12:33:14Z</time>
      </trkpt>
      <trkpt lat="46.129959840327501" lon="8.181494884192944">
        <ele>1513.25</ele>
        <time>2014-06-02T12:33:30Z</time>
      </trkpt>
      <trkpt lat="46.129921199753881" lon="8.181653637439013">
        <ele>1512.29</ele>
        <time>2014-06-02T12:33:40Z</time>
      </trkpt>
      <trkpt lat="46.129906866699457" lon="8.181702923029661">
        <ele>1511.3299999999999</ele>
        <time>2014-06-02T12:33:43Z</time>
      </trkpt>
      <trkpt lat="46.129847522825003" lon="8.181813145056367">
        <ele>1508.45</ele>
        <time>2014-06-02T12:33:53Z</time>
      </trkpt>
      <trkpt lat="46.129757165908813" lon="8.181882463395596">
        <ele>1505.0799999999999</ele>
        <time>2014-06-02T12:34:06Z</time>
      </trkpt>
      <trkpt lat="46.129753058776259" lon="8.181886989623308">
        <ele>1504.5999999999999</ele>
        <time>2014-06-02T12:34:07Z</time>
      </trkpt>
      <trkpt lat="46.129715340211987" lon="8.181929737329483">
        <ele>1502.6800000000001</ele>
        <time>2014-06-02T12:34:15Z</time>
      </trkpt>
      <trkpt lat="46.129679717123508" lon="8.182080192491412">
        <ele>1500.76</ele>
        <time>2014-06-02T12:34:26Z</time>
      </trkpt>
      <trkpt lat="46.129616685211658" lon="8.182189743965864">
        <ele>1498.8299999999999</ele>
        <time>2014-06-02T12:34:41Z</time>
      </trkpt>
      <trkpt lat="46.129663288593292" lon="8.182209860533476">
        <ele>1496.4300000000001</ele>
        <time>2014-06-02T12:34:54Z</time>
      </trkpt>
      <trkpt lat="46.129731852561235" lon="8.182201059535146">
        <ele>1493.55</ele>
        <time>2014-06-02T12:35:05Z</time>
      </trkpt>
      <trkpt lat="46.129816425964236" lon="8.18220323882997">
        <ele>1490.1800000000001</ele>
        <time>2014-06-02T12:35:15Z</time>
      </trkpt>
      <trkpt lat="46.129996720701456" lon="8.182190833613277">
        <ele>1486.8199999999999</ele>
        <time>2014-06-02T12:35:28Z</time>
      </trkpt>
      <trkpt lat="46.130015244707465" lon="8.182242214679718">
        <ele>1483.9300000000001</ele>
        <time>2014-06-02T12:35:42Z</time>
      </trkpt>
      <trkpt lat="46.130004012957215" lon="8.182268952950835">
        <ele>1483.45</ele>
        <time>2014-06-02T12:35:44Z</time>
      </trkpt>
      <trkpt lat="46.129912566393614" lon="8.182405158877373">
        <ele>1480.0899999999999</ele>
        <time>2014-06-02T12:35:58Z</time>
      </trkpt>
      <trkpt lat="46.129849618300796" lon="8.182473806664348">
        <ele>1476.72</ele>
        <time>2014-06-02T12:36:13Z</time>
      </trkpt>
      <trkpt lat="46.129984483122826" lon="8.182427035644651">
        <ele>1473.8399999999999</ele>
        <time>2014-06-02T12:36:28Z</time>
      </trkpt>
      <trkpt lat="46.130057238042355" lon="8.18244413472712">
        <ele>1472.4000000000001</ele>
        <time>2014-06-02T12:36:35Z</time>
      </trkpt>
      <trkpt lat="46.130086658522487" lon="8.182450085878372">
        <ele>1470.47</ele>
        <time>2014-06-02T12:36:40Z</time>
      </trkpt>
      <trkpt lat="46.130160419270396" lon="8.182524600997567">
        <ele>1467.5899999999999</ele>
        <time>2014-06-02T12:36:53Z</time>
      </trkpt>
      <trkpt lat="46.130171651020646" lon="8.18254723213613">
        <ele>1467.1099999999999</ele>
        <time>2014-06-02T12:36:55Z</time>
      </trkpt>
      <trkpt lat="46.130297295749187" lon="8.182674804702401">
        <ele>1463.74</ele>
        <time>2014-06-02T12:37:10Z</time>
      </trkpt>
      <trkpt lat="46.130362339317799" lon="8.182820649817586">
        <ele>1461.8199999999999</ele>
        <time>2014-06-02T12:37:25Z</time>
      </trkpt>
      <trkpt lat="46.130424700677395" lon="8.182912431657314">
        <ele>1458.46</ele>
        <time>2014-06-02T12:37:38Z</time>
      </trkpt>
      <trkpt lat="46.130493013188243" lon="8.18293422460556">
        <ele>1456.53</ele>
        <time>2014-06-02T12:37:53Z</time>
      </trkpt>
      <trkpt lat="46.130486223846674" lon="8.182990970090032">
        <ele>1453.1700000000001</ele>
        <time>2014-06-02T12:38:02Z</time>
      </trkpt>
      <trkpt lat="46.130403997376561" lon="8.183079147711396">
        <ele>1449.8099999999999</ele>
        <time>2014-06-02T12:38:14Z</time>
      </trkpt>
      <trkpt lat="46.130401566624641" lon="8.183083590120077">
        <ele>1449.8099999999999</ele>
        <time>2014-06-02T12:38:15Z</time>
      </trkpt>
      <trkpt lat="46.130313975736499" lon="8.183102617040277">
        <ele>1446.4400000000001</ele>
        <time>2014-06-02T12:38:28Z</time>
      </trkpt>
      <trkpt lat="46.130284890532494" lon="8.18306322209537">
        <ele>1444.04</ele>
        <time>2014-06-02T12:38:42Z</time>
      </trkpt>
      <trkpt lat="46.130357058718801" lon="8.18312918767333">
        <ele>1440.6700000000001</ele>
        <time>2014-06-02T12:38:54Z</time>
      </trkpt>
      <trkpt lat="46.130433836951852" lon="8.183183083310723">
        <ele>1437.79</ele>
        <time>2014-06-02T12:39:06Z</time>
      </trkpt>
      <trkpt lat="46.130395364016294" lon="8.183272015303373">
        <ele>1434.9100000000001</ele>
        <time>2014-06-02T12:39:17Z</time>
      </trkpt>
      <trkpt lat="46.130332164466381" lon="8.183298585936427">
        <ele>1432.5</ele>
        <time>2014-06-02T12:39:31Z</time>
      </trkpt>
      <trkpt lat="46.130268210545182" lon="8.183254916220903">
        <ele>1429.1400000000001</ele>
        <time>2014-06-02T12:39:44Z</time>
      </trkpt>
      <trkpt lat="46.130236024037004" lon="8.183302860707045">
        <ele>1426.73</ele>
        <time>2014-06-02T12:39:57Z</time>
      </trkpt>
      <trkpt lat="46.130283465608954" lon="8.183423895388842">
        <ele>1423.3699999999999</ele>
        <time>2014-06-02T12:40:07Z</time>
      </trkpt>
      <trkpt lat="46.130322525277734" lon="8.183536715805531">
        <ele>1420.49</ele>
        <time>2014-06-02T12:40:19Z</time>
      </trkpt>
      <trkpt lat="46.130360160022974" lon="8.183585498481989">
        <ele>1418.5599999999999</ele>
        <time>2014-06-02T12:40:34Z</time>
      </trkpt>
      <trkpt lat="46.130343312397599" lon="8.183600921183825">
        <ele>1416.6400000000001</ele>
        <time>2014-06-02T12:40:37Z</time>
      </trkpt>
      <trkpt lat="46.130276592448354" lon="8.183694547042251">
        <ele>1413.28</ele>
        <time>2014-06-02T12:40:51Z</time>
      </trkpt>
      <trkpt lat="46.130334092304111" lon="8.183698989450932">
        <ele>1410.8699999999999</ele>
        <time>2014-06-02T12:41:02Z</time>
      </trkpt>
      <trkpt lat="46.13034825772047" lon="8.183737294748426">
        <ele>1407.99</ele>
        <time>2014-06-02T12:41:19Z</time>
      </trkpt>
      <trkpt lat="46.130304588004947" lon="8.183815497905016">
        <ele>1404.6199999999999</ele>
        <time>2014-06-02T12:41:29Z</time>
      </trkpt>
      <trkpt lat="46.130250608548522" lon="8.183838129043579">
        <ele>1402.7</ele>
        <time>2014-06-02T12:41:43Z</time>
      </trkpt>
      <trkpt lat="46.130302073433995" lon="8.183892527595162">
        <ele>1399.8199999999999</ele>
        <time>2014-06-02T12:41:55Z</time>
      </trkpt>
      <trkpt lat="46.130399890244007" lon="8.183907028287649">
        <ele>1396.45</ele>
        <time>2014-06-02T12:42:13Z</time>
      </trkpt>
      <trkpt lat="46.130323028191924" lon="8.18394860252738">
        <ele>1394.53</ele>
        <time>2014-06-02T12:42:26Z</time>
      </trkpt>
      <trkpt lat="46.130347335711122" lon="8.183977687731385">
        <ele>1391.1700000000001</ele>
        <time>2014-06-02T12:42:38Z</time>
      </trkpt>
      <trkpt lat="46.130353873595595" lon="8.184030326083303">
        <ele>1388.28</ele>
        <time>2014-06-02T12:42:47Z</time>
      </trkpt>
      <trkpt lat="46.130330907180905" lon="8.184071648865938">
        <ele>1386.8399999999999</ele>
        <time>2014-06-02T12:42:51Z</time>
      </trkpt>
      <trkpt lat="46.130252117291093" lon="8.184138284996152">
        <ele>1382.99</ele>
        <time>2014-06-02T12:43:00Z</time>
      </trkpt>
      <trkpt lat="46.130246752873063" lon="8.184144655242562">
        <ele>1382.51</ele>
        <time>2014-06-02T12:43:02Z</time>
      </trkpt>
      <trkpt lat="46.130316155031323" lon="8.184137279167771">
        <ele>1379.1500000000001</ele>
        <time>2014-06-02T12:43:16Z</time>
      </trkpt>
      <trkpt lat="46.130340127274394" lon="8.184207603335381">
        <ele>1376.26</ele>
        <time>2014-06-02T12:43:27Z</time>
      </trkpt>
      <trkpt lat="46.130243148654699" lon="8.184325871989131">
        <ele>1372.9000000000001</ele>
        <time>2014-06-02T12:43:38Z</time>
      </trkpt>
      <trkpt lat="46.130285980179906" lon="8.184333918616176">
        <ele>1370.5</ele>
        <time>2014-06-02T12:43:48Z</time>
      </trkpt>
      <trkpt lat="46.130418833345175" lon="8.184325536713004">
        <ele>1367.1300000000001</ele>
        <time>2014-06-02T12:44:00Z</time>
      </trkpt>
      <trkpt lat="46.13051338121295" lon="8.184339115396142">
        <ele>1366.6500000000001</ele>
        <time>2014-06-02T12:44:06Z</time>
      </trkpt>
      <trkpt lat="46.130580855533481" lon="8.184363339096308">
        <ele>1366.1700000000001</ele>
        <time>2014-06-02T12:44:11Z</time>
      </trkpt>
      <trkpt lat="46.130736926570535" lon="8.184471968561411">
        <ele>1363.29</ele>
        <time>2014-06-02T12:44:24Z</time>
      </trkpt>
      <trkpt lat="46.13083834759891" lon="8.184493090957403">
        <ele>1360.4000000000001</ele>
        <time>2014-06-02T12:44:37Z</time>
      </trkpt>
      <trkpt lat="46.130836671218276" lon="8.184598870575428">
        <ele>1357.52</ele>
        <time>2014-06-02T12:44:51Z</time>
      </trkpt>
      <trkpt lat="46.130845053121448" lon="8.184690568596125">
        <ele>1354.6300000000001</ele>
        <time>2014-06-02T12:45:04Z</time>
      </trkpt>
      <trkpt lat="46.130894925445318" lon="8.184803472831845">
        <ele>1351.75</ele>
        <time>2014-06-02T12:45:18Z</time>
      </trkpt>
      <trkpt lat="46.130924932658672" lon="8.184799617156386">
        <ele>1350.79</ele>
        <time>2014-06-02T12:45:30Z</time>
      </trkpt>
      <trkpt lat="46.130873803049326" lon="8.184820069000125">
        <ele>1350.79</ele>
        <time>2014-06-02T12:45:54Z</time>
      </trkpt>
      <trkpt lat="46.130861649289727" lon="8.18479148671031">
        <ele>1351.27</ele>
        <time>2014-06-02T12:46:13Z</time>
      </trkpt>
      <trkpt lat="46.13089450635016" lon="8.184784026816487">
        <ele>1351.75</ele>
        <time>2014-06-02T12:46:25Z</time>
      </trkpt>
      <trkpt lat="46.130874808877707" lon="8.184769442304969">
        <ele>1351.75</ele>
        <time>2014-06-02T12:46:45Z</time>
      </trkpt>
      <trkpt lat="46.130896685644984" lon="8.184792241081595">
        <ele>1351.75</ele>
        <time>2014-06-02T12:47:00Z</time>
      </trkpt>
      <trkpt lat="46.130867013707757" lon="8.184822835028172">
        <ele>1352.23</ele>
        <time>2014-06-02T12:47:27Z</time>
      </trkpt>
      <trkpt lat="46.130865002050996" lon="8.184793163090944">
        <ele>1350.79</ele>
        <time>2014-06-02T12:47:33Z</time>
      </trkpt>
      <trkpt lat="46.130886794999242" lon="8.184765335172415">
        <ele>1352.23</ele>
        <time>2014-06-02T12:47:54Z</time>
      </trkpt>
      <trkpt lat="46.130925687029958" lon="8.184787463396788">
        <ele>1351.75</ele>
        <time>2014-06-02T12:48:14Z</time>
      </trkpt>
      <trkpt lat="46.130964579060674" lon="8.184819063171744">
        <ele>1352.23</ele>
        <time>2014-06-02T12:48:33Z</time>
      </trkpt>
      <trkpt lat="46.130882352590561" lon="8.184792073443532">
        <ele>1352.23</ele>
        <time>2014-06-02T12:48:56Z</time>
      </trkpt>
      <trkpt lat="46.130837593227625" lon="8.184777488932014">
        <ele>1352.71</ele>
        <time>2014-06-02T12:49:22Z</time>
      </trkpt>
      <trkpt lat="46.130815632641315" lon="8.184835072606802">
        <ele>1352.23</ele>
        <time>2014-06-02T12:49:39Z</time>
      </trkpt>
      <trkpt lat="46.130750840529799" lon="8.184946132823825">
        <ele>1353.1900000000001</ele>
        <time>2014-06-02T12:49:53Z</time>
      </trkpt>
      <trkpt lat="46.130738435313106" lon="8.18493221886456">
        <ele>1353.6700000000001</ele>
        <time>2014-06-02T12:50:12Z</time>
      </trkpt>
      <trkpt lat="46.130706500262022" lon="8.184886872768402">
        <ele>1353.6700000000001</ele>
        <time>2014-06-02T12:50:33Z</time>
      </trkpt>
      <trkpt lat="46.130709098652005" lon="8.184894500300288">
        <ele>1355.5999999999999</ele>
        <time>2014-06-02T12:50:40Z</time>
      </trkpt>
      <trkpt lat="46.130701806396246" lon="8.184890141710639">
        <ele>1354.1500000000001</ele>
        <time>2014-06-02T12:51:03Z</time>
      </trkpt>
      <trkpt lat="46.130681270733476" lon="8.184870611876249">
        <ele>1354.6300000000001</ele>
        <time>2014-06-02T12:51:33Z</time>
      </trkpt>
      <trkpt lat="46.130636762827635" lon="8.184796515852213">
        <ele>1355.1199999999999</ele>
        <time>2014-06-02T12:52:07Z</time>
      </trkpt>
      <trkpt lat="46.130572641268373" lon="8.184846052899957">
        <ele>1355.1199999999999</ele>
        <time>2014-06-02T12:52:23Z</time>
      </trkpt>
      <trkpt lat="46.130504328757524" lon="8.184845801442862">
        <ele>1354.6300000000001</ele>
        <time>2014-06-02T12:52:38Z</time>
      </trkpt>
      <trkpt lat="46.130469627678394" lon="8.184884190559387">
        <ele>1354.1500000000001</ele>
        <time>2014-06-02T12:52:48Z</time>
      </trkpt>
      <trkpt lat="46.130442805588245" lon="8.184956358745694">
        <ele>1354.1500000000001</ele>
        <time>2014-06-02T12:52:53Z</time>
      </trkpt>
      <trkpt lat="46.13037658855319" lon="8.185068257153034">
        <ele>1352.71</ele>
        <time>2014-06-02T12:53:08Z</time>
      </trkpt>
      <trkpt lat="46.130296206101775" lon="8.185237152501941">
        <ele>1350.79</ele>
        <time>2014-06-02T12:53:23Z</time>
      </trkpt>
      <trkpt lat="46.13026368431747" lon="8.185354918241501">
        <ele>1348.3900000000001</ele>
        <time>2014-06-02T12:53:34Z</time>
      </trkpt>
      <trkpt lat="46.130185816437006" lon="8.185580223798752">
        <ele>1345.5</ele>
        <time>2014-06-02T12:53:51Z</time>
      </trkpt>
      <trkpt lat="46.130099901929498" lon="8.185704108327627">
        <ele>1345.02</ele>
        <time>2014-06-02T12:54:03Z</time>
      </trkpt>
      <trkpt lat="46.130008120089769" lon="8.185801925137639">
        <ele>1342.1400000000001</ele>
        <time>2014-06-02T12:54:18Z</time>
      </trkpt>
      <trkpt lat="46.129950284957886" lon="8.185934610664845">
        <ele>1339.25</ele>
        <time>2014-06-02T12:54:31Z</time>
      </trkpt>
      <trkpt lat="46.129941986873746" lon="8.185976771637797">
        <ele>1338.77</ele>
        <time>2014-06-02T12:54:34Z</time>
      </trkpt>
      <trkpt lat="46.12988063134253" lon="8.186083640903235">
        <ele>1337.3299999999999</ele>
        <time>2014-06-02T12:54:44Z</time>
      </trkpt>
      <trkpt lat="46.129806451499462" lon="8.186195539310575">
        <ele>1335.4100000000001</ele>
        <time>2014-06-02T12:54:56Z</time>
      </trkpt>
      <trkpt lat="46.129740905016661" lon="8.186355968937278">
        <ele>1333.97</ele>
        <time>2014-06-02T12:55:09Z</time>
      </trkpt>
      <trkpt lat="46.129724979400635" lon="8.186400393024087">
        <ele>1333.01</ele>
        <time>2014-06-02T12:55:13Z</time>
      </trkpt>
      <trkpt lat="46.129730427637696" lon="8.186447583138943">
        <ele>1332.52</ele>
        <time>2014-06-02T12:55:17Z</time>
      </trkpt>
      <trkpt lat="46.129801003262401" lon="8.186614969745278">
        <ele>1331.0799999999999</ele>
        <time>2014-06-02T12:55:32Z</time>
      </trkpt>
      <trkpt lat="46.129874680191278" lon="8.186782356351614">
        <ele>1330.1199999999999</ele>
        <time>2014-06-02T12:55:44Z</time>
      </trkpt>
      <trkpt lat="46.129834447056055" lon="8.186900541186333">
        <ele>1327.24</ele>
        <time>2014-06-02T12:55:59Z</time>
      </trkpt>
      <trkpt lat="46.129800332710147" lon="8.187065832316876">
        <ele>1324.8299999999999</ele>
        <time>2014-06-02T12:56:15Z</time>
      </trkpt>
      <trkpt lat="46.129685584455729" lon="8.187189046293497">
        <ele>1321.47</ele>
        <time>2014-06-02T12:56:33Z</time>
      </trkpt>
      <trkpt lat="46.129611823707819" lon="8.187322486191988">
        <ele>1319.55</ele>
        <time>2014-06-02T12:56:45Z</time>
      </trkpt>
      <trkpt lat="46.129605621099472" lon="8.187543014064431">
        <ele>1319.0699999999999</ele>
        <time>2014-06-02T12:56:57Z</time>
      </trkpt>
      <trkpt lat="46.129595562815666" lon="8.187631359323859">
        <ele>1317.6199999999999</ele>
        <time>2014-06-02T12:57:02Z</time>
      </trkpt>
      <trkpt lat="46.129547785967588" lon="8.187800254672766">
        <ele>1318.0999999999999</ele>
        <time>2014-06-02T12:57:18Z</time>
      </trkpt>
      <trkpt lat="46.129531189799309" lon="8.18784786388278">
        <ele>1316.1800000000001</ele>
        <time>2014-06-02T12:57:22Z</time>
      </trkpt>
      <trkpt lat="46.129426751285791" lon="8.187978873029351">
        <ele>1313.78</ele>
        <time>2014-06-02T12:57:39Z</time>
      </trkpt>
      <trkpt lat="46.129394229501486" lon="8.18804475478828">
        <ele>1312.8199999999999</ele>
        <time>2014-06-02T12:57:43Z</time>
      </trkpt>
      <trkpt lat="46.129337064921856" lon="8.18812538869679">
        <ele>1312.3399999999999</ele>
        <time>2014-06-02T12:57:51Z</time>
      </trkpt>
      <trkpt lat="46.129291551187634" lon="8.188228905200958">
        <ele>1311.8599999999999</ele>
        <time>2014-06-02T12:58:00Z</time>
      </trkpt>
      <trkpt lat="46.129274535924196" lon="8.188268886879087">
        <ele>1311.8599999999999</ele>
        <time>2014-06-02T12:58:03Z</time>
      </trkpt>
      <trkpt lat="46.129130786284804" lon="8.188393609598279">
        <ele>1310.9000000000001</ele>
        <time>2014-06-02T12:58:16Z</time>
      </trkpt>
      <trkpt lat="46.129000531509519" lon="8.188441721722484">
        <ele>1311.3800000000001</ele>
        <time>2014-06-02T12:58:31Z</time>
      </trkpt>
      <trkpt lat="46.129188034683466" lon="8.188680019229651">
        <ele>1309.9300000000001</ele>
        <time>2014-06-02T12:58:44Z</time>
      </trkpt>
      <trkpt lat="46.129611572250724" lon="8.189083021134138">
        <ele>1306.5699999999999</ele>
        <time>2014-06-02T12:58:56Z</time>
      </trkpt>
      <trkpt lat="46.129602855071425" lon="8.189193410798907">
        <ele>1303.6900000000001</ele>
        <time>2014-06-02T12:59:10Z</time>
      </trkpt>
      <trkpt lat="46.129654739052057" lon="8.189365155994892">
        <ele>1300.8</ele>
        <time>2014-06-02T12:59:25Z</time>
      </trkpt>
      <trkpt lat="46.129643004387617" lon="8.189587192609906">
        <ele>1299.3599999999999</ele>
        <time>2014-06-02T12:59:40Z</time>
      </trkpt>
      <trkpt lat="46.129650380462408" lon="8.189859269186854">
        <ele>1299.3599999999999</ele>
        <time>2014-06-02T12:59:57Z</time>
      </trkpt>
      <trkpt lat="46.129635125398636" lon="8.190113408491015">
        <ele>1298.8800000000001</ele>
        <time>2014-06-02T13:00:14Z</time>
      </trkpt>
      <trkpt lat="46.129663204774261" lon="8.190237460657954">
        <ele>1299.3599999999999</ele>
        <time>2014-06-02T13:00:29Z</time>
      </trkpt>
      <trkpt lat="46.1296905297786" lon="8.190323291346431">
        <ele>1298.8800000000001</ele>
        <time>2014-06-02T13:00:38Z</time>
      </trkpt>
      <trkpt lat="46.129764709621668" lon="8.19048841483891">
        <ele>1296.48</ele>
        <time>2014-06-02T13:00:52Z</time>
      </trkpt>
      <trkpt lat="46.129838805645704" lon="8.190608862787485">
        <ele>1295.03</ele>
        <time>2014-06-02T13:01:01Z</time>
      </trkpt>
      <trkpt lat="46.129936119541526" lon="8.19073123857379">
        <ele>1294.0699999999999</ele>
        <time>2014-06-02T13:01:15Z</time>
      </trkpt>
      <trkpt lat="46.130059082061052" lon="8.1908602360636">
        <ele>1293.1099999999999</ele>
        <time>2014-06-02T13:01:30Z</time>
      </trkpt>
      <trkpt lat="46.130111468955874" lon="8.191004740074277">
        <ele>1293.1099999999999</ele>
        <time>2014-06-02T13:01:38Z</time>
      </trkpt>
      <trkpt lat="46.130202999338508" lon="8.191172378137708">
        <ele>1292.1500000000001</ele>
        <time>2014-06-02T13:01:53Z</time>
      </trkpt>
      <trkpt lat="46.130356471985579" lon="8.191291149705648">
        <ele>1289.75</ele>
        <time>2014-06-02T13:02:08Z</time>
      </trkpt>
      <trkpt lat="46.130421347916126" lon="8.191347308456898">
        <ele>1288.3</ele>
        <time>2014-06-02T13:02:19Z</time>
      </trkpt>
      <trkpt lat="46.13051631487906" lon="8.191529866307974">
        <ele>1288.3</ele>
        <time>2014-06-02T13:02:32Z</time>
      </trkpt>
      <trkpt lat="46.130588315427303" lon="8.191693229600787">
        <ele>1289.27</ele>
        <time>2014-06-02T13:02:47Z</time>
      </trkpt>
      <trkpt lat="46.13063701428473" lon="8.191739581525326">
        <ele>1287.3399999999999</ele>
        <time>2014-06-02T13:03:02Z</time>
      </trkpt>
      <trkpt lat="46.130738686770201" lon="8.191862963140011">
        <ele>1285.4200000000001</ele>
        <time>2014-06-02T13:03:15Z</time>
      </trkpt>
      <trkpt lat="46.130819572135806" lon="8.191991709172726">
        <ele>1283.5</ele>
        <time>2014-06-02T13:03:31Z</time>
      </trkpt>
      <trkpt lat="46.130952844396234" lon="8.192111738026142">
        <ele>1281.5699999999999</ele>
        <time>2014-06-02T13:03:45Z</time>
      </trkpt>
      <trkpt lat="46.13102400675416" lon="8.192262947559357">
        <ele>1278.6900000000001</ele>
        <time>2014-06-02T13:03:59Z</time>
      </trkpt>
      <trkpt lat="46.131040267646313" lon="8.19239798001945">
        <ele>1276.29</ele>
        <time>2014-06-02T13:04:14Z</time>
      </trkpt>
      <trkpt lat="46.131069520488381" lon="8.19243460893631">
        <ele>1274.8499999999999</ele>
        <time>2014-06-02T13:04:18Z</time>
      </trkpt>
      <trkpt lat="46.131093744188547" lon="8.192465286701918">
        <ele>1274.3599999999999</ele>
        <time>2014-06-02T13:04:20Z</time>
      </trkpt>
      <trkpt lat="46.131148645654321" lon="8.192524127662182">
        <ele>1275.3299999999999</ele>
        <time>2014-06-02T13:04:31Z</time>
      </trkpt>
      <trkpt lat="46.131242942065001" lon="8.192584812641144">
        <ele>1276.77</ele>
        <time>2014-06-02T13:04:47Z</time>
      </trkpt>
      <trkpt lat="46.131304884329438" lon="8.192645413801074">
        <ele>1275.8099999999999</ele>
        <time>2014-06-02T13:05:00Z</time>
      </trkpt>
      <trkpt lat="46.131141185760498" lon="8.19260124117136">
        <ele>1275.8099999999999</ele>
        <time>2014-06-02T13:05:36Z</time>
      </trkpt>
      <trkpt lat="46.131307817995548" lon="8.192668212577701">
        <ele>1275.8099999999999</ele>
        <time>2014-06-02T13:06:12Z</time>
      </trkpt>
      <trkpt lat="46.131347045302391" lon="8.192644827067852">
        <ele>1275.3299999999999</ele>
        <time>2014-06-02T13:06:54Z</time>
      </trkpt>
      <trkpt lat="46.131329778581858" lon="8.192666368559003">
        <ele>1275.8099999999999</ele>
        <time>2014-06-02T13:07:37Z</time>
      </trkpt>
      <trkpt lat="46.131315445527434" lon="8.192680282518268">
        <ele>1276.77</ele>
        <time>2014-06-02T13:07:42Z</time>
      </trkpt>
      <trkpt lat="46.131335645914078" lon="8.19275370799005">
        <ele>1276.29</ele>
        <time>2014-06-02T13:07:47Z</time>
      </trkpt>
      <trkpt lat="46.13138216547668" lon="8.192832581698895">
        <ele>1276.29</ele>
        <time>2014-06-02T13:07:59Z</time>
      </trkpt>
      <trkpt lat="46.13147503696382" lon="8.192902570590377">
        <ele>1274.8499999999999</ele>
        <time>2014-06-02T13:08:13Z</time>
      </trkpt>
      <trkpt lat="46.131486352533102" lon="8.192970547825098">
        <ele>1274.3599999999999</ele>
        <time>2014-06-02T13:08:17Z</time>
      </trkpt>
      <trkpt lat="46.131467241793871" lon="8.19308496080339">
        <ele>1271</ele>
        <time>2014-06-02T13:08:27Z</time>
      </trkpt>
      <trkpt lat="46.131445867940784" lon="8.193103233352304">
        <ele>1270.04</ele>
        <time>2014-06-02T13:08:29Z</time>
      </trkpt>
      <trkpt lat="46.13143203780055" lon="8.193224854767323">
        <ele>1266.1900000000001</ele>
        <time>2014-06-02T13:08:39Z</time>
      </trkpt>
      <trkpt lat="46.131429523229599" lon="8.19322862662375">
        <ele>1265.71</ele>
        <time>2014-06-02T13:08:40Z</time>
      </trkpt>
      <trkpt lat="46.131441006436944" lon="8.193264668807387">
        <ele>1265.23</ele>
        <time>2014-06-02T13:08:46Z</time>
      </trkpt>
      <trkpt lat="46.131541840732098" lon="8.193493830040097">
        <ele>1265.23</ele>
        <time>2014-06-02T13:09:03Z</time>
      </trkpt>
      <trkpt lat="46.131592970341444" lon="8.19369868375361">
        <ele>1263.79</ele>
        <time>2014-06-02T13:09:16Z</time>
      </trkpt>
      <trkpt lat="46.131598586216569" lon="8.193712010979652">
        <ele>1263.79</ele>
        <time>2014-06-02T13:09:17Z</time>
      </trkpt>
      <trkpt lat="46.131624486297369" lon="8.193927342072129">
        <ele>1262.8299999999999</ele>
        <time>2014-06-02T13:09:32Z</time>
      </trkpt>
      <trkpt lat="46.131632952019572" lon="8.193977046757937">
        <ele>1262.8299999999999</ele>
        <time>2014-06-02T13:09:35Z</time>
      </trkpt>
      <trkpt lat="46.131707383319736" lon="8.194041838869453">
        <ele>1265.23</ele>
        <time>2014-06-02T13:09:49Z</time>
      </trkpt>
      <trkpt lat="46.131803942844272" lon="8.193889120593667">
        <ele>1265.23</ele>
        <time>2014-06-02T13:10:04Z</time>
      </trkpt>
      <trkpt lat="46.131943250074983" lon="8.193905213847756">
        <ele>1263.79</ele>
        <time>2014-06-02T13:10:19Z</time>
      </trkpt>
      <trkpt lat="46.132165705785155" lon="8.193908734247088">
        <ele>1261.3900000000001</ele>
        <time>2014-06-02T13:10:34Z</time>
      </trkpt>
      <trkpt lat="46.132290260866284" lon="8.193928264081478">
        <ele>1258.98</ele>
        <time>2014-06-02T13:10:44Z</time>
      </trkpt>
      <trkpt lat="46.13241808488965" lon="8.194098249077797">
        <ele>1258.02</ele>
        <time>2014-06-02T13:10:53Z</time>
      </trkpt>
      <trkpt lat="46.132592847570777" lon="8.194173686206341">
        <ele>1257.0599999999999</ele>
        <time>2014-06-02T13:11:09Z</time>
      </trkpt>
      <trkpt lat="46.132666189223528" lon="8.194158934056759">
        <ele>1258.02</ele>
        <time>2014-06-02T13:11:19Z</time>
      </trkpt>
      <trkpt lat="46.13277917727828" lon="8.19411207921803">
        <ele>1258.98</ele>
        <time>2014-06-02T13:11:34Z</time>
      </trkpt>
      <trkpt lat="46.132790828123689" lon="8.194118281826377">
        <ele>1258.98</ele>
        <time>2014-06-02T13:11:45Z</time>
      </trkpt>
      <trkpt lat="46.132821254432201" lon="8.194137141108513">
        <ele>1258.02</ele>
        <time>2014-06-02T13:12:07Z</time>
      </trkpt>
      <trkpt lat="46.132837682962418" lon="8.194142673164606">
        <ele>1258.5</ele>
        <time>2014-06-02T13:12:28Z</time>
      </trkpt>
    </trkseg>
  </trk>

</gpx>